     2              OBSERVATION DATA    GPS                 RINEX VERSION / TYPE
teqc 1997Jul24 19970813                                     PGM / RUN BY / DATE
                                                            COMMENT
BIT 2 OF LLI FLAGS DATA COLLECTED UNDER A-S CONDITION       COMMENT
BIT 2 OF LLI FLAGS DATA COLLECTED UNDER A-S CONDITION       COMMENT
Original Marker Name: 55445.BLAC                            COMMENT
Campaign Name: TREX12                                       COMMENT
4-Character Station Name: BLAC                              COMMENT
6-Character Antenna Code: TI4100                            COMMENT
Vertical Measurement Point: PAE                             COMMENT
Vertical Offset to Rinex Ref. Point: 0.0000                 COMMENT
Radial Measurement Point: RRP                               COMMENT
Radial Offset to Rinex Ref. Point: 0.0000                   COMMENT
Antenna Height from Field Measurement: 1.4360 m             COMMENT
Original XYZ: -2306335.7629 -4787919.5493 3515739.7345      COMMENT
New XYZ position is based on association with SCEC monument COMMENT
E1D0M3T8+0011. Position of that monument is believed to be  COMMENT
valid to within 1 m horizontally; vertical accuracy         COMMENT
should be no worse than 3-times this value.                 COMMENT
                                                            COMMENT
Revised Rinex header created by UCSD GPS archive for        COMMENT
GSAC on 12-Apr-1999 (1999:102) 13:49:03 GMT                 COMMENT
For assistance contact dagnew@ucsd.edu or hjohnson@ucsd.edu COMMENT
                                                            COMMENT
BLACK BUTTE NCMN 1982                                       MARKER NAME
5 NATIONAL GEODETIC SURVEY                                  OBSERVER / AGENCY
UT09 TI 4100 1.5                                            REC # / TYPE / VERS
4011 TI 4100                                                ANT # / TYPE
 -2306307.0000 -4787914.0000  3515736.0000                  APPROX POSITION XYZ
        1.4360        0.0000        0.0000                  ANTENNA: DELTA H/E/N
     1     1     0                                          WAVELENGTH FACT L1/2
     4    P1    P2    L1    L2                              # / TYPES OF OBSERV
    30                                                      INTERVAL
  1988     3    25     2    22   59.000000                  TIME OF FIRST OBS
  1988     3    25     8    19   59.000000                  TIME OF LAST OBS
     0                                                      # OF SATELLITES
                                                            END OF HEADER
 88  3 25  2 22 59.0800000  0  3G 6G 8G11
  22344850.745    22344857.014      693283.210 9  -1184373.077 9
  21417092.239    21417098.704      558912.594 9  -1318490.194 7
  24442305.699    24442316.613      393109.471 9  -1036090.365 8
 88  3 25  2 23 29.0800000  0  3G 6G 8G11
  22332999.992    22333006.253      631011.452 9  -1232896.468 8
  21401179.547    21401185.231      475287.798 9  -1383652.289 8
  24420778.257    24420789.120      279986.125 9  -1124238.231 9
 88  3 25  2 23 59.0800000  0  3G 6G 8G11
  22321157.160    22321162.489      568771.651 9  -1281394.939 9
  21385359.954    21385367.485      392160.978 9  -1448426.367 7
  24399263.789    24399273.927      166923.628 9  -1212338.684 8
 88  3 25  2 24 29.0800000  0  3G 6G 8G11
  22309319.391    22309326.132      506564.048 9  -1329868.327 9
  21369637.199    21369644.063      309534.790 9  -1512810.319 8
  24377760.372    24377771.653       53924.071 9  -1300390.092 8
 88  3 25  2 24 59.0800000  0  3G 6G 8G11
  22297488.265    22297494.545      444391.273 9  -1378314.560 9
  21354009.549    21354017.276      227413.784 9  -1576800.647 7
  24356270.327    24356279.097      -59007.995 8  -1388388.905 8
 88  3 25  2 25 29.0800000  0  3G 6G 8G11
  22285662.829    22285669.142      382254.752 9  -1426732.574 9
  21338480.225    21338486.617      145801.694 9  -1640394.402 8
  24334792.787    24334804.022     -171869.132 9  -1476332.435 9
 88  3 25  2 25 59.0800000  0  3G 6G 8G11
  22273845.470    22273852.773      320154.129 9  -1475122.593 9
  21323046.784    21323053.323       64699.901 9  -1703590.521 9
  24313330.115    24313339.552     -284657.971 8  -1564219.636 9
 88  3 25  2 26 29.0800000  0  3G 6G 8G11
  22262035.296    22262041.995      258088.600 9  -1523485.275 8
  21307710.879    21307718.034      -15890.532 9  -1766388.188 8
  24291879.840    24291890.675     -397373.630 7  -1652049.818 8
 88  3 25  2 26 59.0800000  0  3G 6G 8G11
  22250231.638    22250238.104      196060.769 9  -1571818.587 9
  21292472.796    21292480.926      -95964.171 9  -1828783.157 8
  24270447.080    24270456.283     -510011.111 8  -1739819.083 8
 88  3 25  2 27 29.0800000  0  3G 6G 8G11
  22238436.744    22238442.655      134072.232 9  -1620121.265 9
  21277334.309    21277341.238     -175517.823 9  -1890772.945 8
  24249026.034    24249036.006     -622567.264 7  -1827524.992 8
 88  3 25  2 27 59.0800000  0  3G 6G 8G11
  22226646.801    22226653.808       72122.476 9  -1668393.758 9
  21262295.266    21262302.427     -254549.916 9  -1952356.314 8
  24227624.172    24227633.238     -735040.599 7  -1915166.311 7
 88  3 25  2 28 29.0800000  0  3G 6G 8G11
  22214866.471    22214873.235       10214.197 9  -1716633.899 8
  21247355.497    21247362.839     -333055.799 9  -2013529.664 8
  24206236.575    24206245.958     -847426.521 7  -2002739.572 7
 88  3 25  2 28 59.0800000  0  3G 6G 8G11
  22203092.979    22203099.895      -51651.579 9  -1764840.960 9
  21232517.294    21232524.330     -411032.484 9  -2074290.643 7
  24184869.594    24184878.339     -959722.105 8  -2090242.421 8
 88  3 25  2 29 29.0800000  0  3G 6G 8G11
  22191329.394    22191334.934     -113474.692 9  -1813014.749 8
  21217779.861    21217786.850     -488477.851 9  -2134637.610 8
  24163516.587    24163526.466    -1071925.331 8  -2177673.338 7
 88  3 25  2 29 59.0800000  0  3G 6G 8G11
  22179573.335    22179578.855     -175253.741 9  -1861154.227 9
  21203144.023    21203151.333     -565388.925 9  -2194568.247 8
  24142185.285    24142192.456    -1184032.776 9  -2265029.627 8
 88  3 25  2 30 29.0800000  0  3G 6G 8G11
  22167826.086    22167831.333     -236986.659 9  -1909257.733 9
  21188610.369    21188616.892     -641761.329 9  -2254079.138 8
  24120869.843    24120877.821    -1296040.778 8  -2352308.441 8
 88  3 25  2 30 59.0800000  0  3G 6G 8G11
  22156086.595    22156092.663     -298673.626 9  -1957325.458 9
  21174180.510    21174186.850     -717593.741 9  -2313169.259 8
  24099573.478    24099583.299    -1407948.035 8  -2439508.735 7
 88  3 25  2 31 29.0800000  0  3G 6G 8G11
  22144356.830    22144363.317     -360314.052 9  -2005356.904 8
  21159853.223    21159859.441     -792883.602 9  -2371836.593 8
  24078299.155    24078305.833    -1519751.743 9  -2526628.357 8
 88  3 25  2 31 59.0800000  0  3G 6G 8G11
  22132636.059    22132642.263     -421904.919 9  -2053349.720 8
  21145630.426    21145636.207     -867626.038 9  -2430077.390 7
  24057041.979    24057052.436    -1631447.281 8  -2613663.688 9
 88  3 25  2 32 29.0800000  0  3G 6G 8G11
  22120925.328    22120932.085     -483446.734 9  -2101304.352 8
  21131511.718    21131517.849     -941820.066 9  -2487890.863 7
  24035809.411    24035818.425    -1743033.241 8  -2700613.637 9
 88  3 25  2 32 59.0800000  0  3G 6G 8G11
  22109224.787    22109230.829     -544937.605 9  -2149219.252 8
  21117497.802    21117503.628    -1015462.298 9  -2545274.328 6
  24014595.249    24014605.648    -1854506.044 9  -2787475.402 8
 88  3 25  2 33 29.0800000  0  3G 6G 8G11
  22097532.092    22097538.979     -606376.602 9  -2197093.749 8
  21103588.970    21103596.369    -1088550.074 9  -2602225.797 8
  23993404.491    23993414.513    -1965863.079 9  -2874246.957 9
 88  3 25  2 33 59.0800000  0  3G 6G 8G11
  22085851.463    22085856.443     -667764.169 9  -2244928.157 9
  21089786.348    21089793.645    -1161082.244 9  -2658744.297 7
  23972235.570    23972246.061    -2077103.002 8  -2960927.260 9
 88  3 25  2 34 29.0800000  0  3G 6G 8G11
  22074179.802    22074185.166     -729098.310 9  -2292720.942 8
  21076092.051    21076098.101    -1233054.913 8  -2714826.826 6
  23951091.315    23951100.520    -2188222.066 7  -3047513.358 8
 88  3 25  2 34 59.0800000  0  3G 6G 8G11
  22062518.614    22062525.084     -790375.150 9  -2340469.060 9
  21062503.335    21062508.819    -1304462.932 9  -2770469.371 9
  23929969.699    23929980.496    -2299214.384 7  -3134000.698 9
 88  3 25  2 35 29.0800000  0  3G 6G 8G11
  22050869.439    22050874.693     -851594.455 9  -2388172.368 9
  21049022.085    21049029.139    -1375304.421 9  -2825670.469 8
  23908873.107    23908881.661    -2410078.319 7  -3220387.998 9
 88  3 25  2 35 59.0800000  0  3G 6G 8G11
  22039229.259    22039236.382     -912757.502 9  -2435831.815 8
  21035648.494    21035655.079    -1445578.766 9  -2880429.637 8
  23887801.213    23887810.213    -2520813.455 7  -3306674.935 8
 88  3 25  2 36 29.0800000  0  3G 6G 8G11
  22027601.892    22027608.160     -973862.774 9  -2483446.266 8
  21022384.302    21022392.430    -1515283.176 9  -2934744.708 7
  23866752.915    23866763.275    -2631416.713 8  -3392859.118 9
 88  3 25  2 36 59.0800000  0  3G 6G 8G11
  22015986.062    22015991.557    -1034908.706 9  -2531014.447 8
  21009229.318    21009235.561    -1584414.981 9  -2988613.580 7
  23845733.016    23845740.822    -2741884.525 8  -3478937.776 7
 88  3 25  2 37 29.0800000  0  3G 6G 8G11
  22004380.812    22004386.993    -1095891.366 9  -2578533.346 8
  20996183.407    20996189.560    -1652969.164 9  -3042032.371 7
  23824738.217    23824746.793    -2852211.574 8  -3564906.756 8
 88  3 25  2 37 59.0800000  0  3G 6G 8G11
  21992789.196    21992794.220    -1156809.505 9  -2626001.959 8
  20983249.627    20983255.142    -1720942.598 9  -3094998.610 8
  23803770.193    23803779.499    -2962394.786 8  -3650763.653 7
 88  3 25  2 38 29.0800000  0  3G 6G 8G11
  21981207.736    21981213.727    -1217665.236 9  -2673421.932 9
  20970424.099    20970429.632    -1788336.451 9  -3147513.248 7
  23782830.965    23782838.248    -3072434.886 9  -3736509.044 8
 88  3 25  2 38 59.0800000  0  3G 6G 8G11
  21969638.953    21969644.494    -1278457.789 9  -2720792.669 9
  20957710.047    20957717.734    -1855148.539 8  -3199574.558 9
  23761917.855    23761927.041    -3182329.189 9  -3822140.842 8
 88  3 25  2 39 29.0800000  0  3G 6G 8G11
  21958083.677    21958088.941    -1339182.956 9  -2768110.939 8
  20945107.459    20945114.351    -1921373.262 9  -3251178.193 8
  23741033.675    23741041.538    -3292072.142 9  -3907654.691 7
 88  3 25  2 39 59.0800000  0  3G 6G 8G11
  21946540.454    21946547.055    -1399838.880 9  -2815375.203 8
  20932618.069    20932623.291    -1987007.602 9  -3302321.753 9
  23720180.480    23720189.136    -3401660.100 8  -3993047.779 8
 88  3 25  2 40 29.0800000  0  3G 6G 8G11
  21935012.793    21935017.594    -1460424.993 8  -2862585.103 9
  20920241.285    20920247.579    -2052049.651 9  -3353003.824 7
  23699355.680    23699365.238    -3511090.927 8  -4078318.425 8
 88  3 25  2 40 59.0800000  0  3G 6G 8G11
  21923496.073    21923502.695    -1520940.213 9  -2909739.737 9
  20907976.799    20907981.534    -2116497.637 8  -3403222.962 8
  23678563.879    23678571.961    -3620361.868 8  -4163464.460 8
 88  3 25  2 41 29.0800000  0  3G 6G 8G11
  21911993.888    21911999.929    -1581382.857 9  -2956837.834 9
  20895826.026    20895832.052    -2180348.392 9  -3452976.741 7
  23657799.694    23657808.968    -3729469.845 8  -4248483.525 8
 88  3 25  2 41 59.0800000  0  3G 6G 8G11
  21900506.062    21900511.845    -1641752.370 9  -3003878.937 8
  20883789.743    20883796.687    -2243600.568 9  -3502264.083 7
  23637068.213    23637077.645    -3838412.763 8  -4333373.973 8
 88  3 25  2 42 29.0800000  0  3G 6G 8G11
  21889031.748    21889038.131    -1702048.028 9  -3050862.497 8
  20871868.117    20871874.368    -2306252.320 9  -3551083.579 7
  23616369.940    23616377.784    -3947188.259 7  -4418133.947 9
 88  3 25  2 42 59.0800000  0  3G 6G 8G11
  21877572.230    21877578.344    -1762269.635 9  -3097788.369 9
  20860059.702    20860066.084    -2368302.557 8  -3599434.347 7
  23595701.840    23595710.428    -4055794.861 7  -4502762.314 9
 88  3 25  2 43 29.0800000  0  3G 6G 8G11
  21866128.653    21866133.496    -1822413.142 9  -3144653.356 9
  20848368.271    20848372.334    -2429746.059 9  -3647312.353 7
  23575067.739    23575076.424    -4164227.088 7  -4587254.825 8
 88  3 25  2 43 59.0800000  0  3G 6G 8G11
  21854698.324    21854703.143    -1882476.835 9  -3191456.177 9
  20836791.080    20836797.362    -2490580.187 9  -3694715.512 7
  23554467.750    23554476.728    -4272481.707 8  -4671608.927 9
 88  3 25  2 44 29.0800000  0  3G 6G 8G11
  21843283.483    21843289.078    -1942460.257 9  -3238196.443 9
  20825330.668    20825336.238    -2550803.630 8  -3741642.817 7
  23533902.445    23533910.721    -4380556.554 9  -4755822.964 8
 88  3 25  2 44 59.0800000  0  3G 6G 8G11
  21831885.093    21831890.167    -2002362.516 9  -3284873.469 8
  20813987.441    20813993.107    -2610414.580 9  -3788092.848 7
  23513369.622    23513378.535    -4488449.295 9  -4839895.116 9
 88  3 25  2 45 29.0800000  0  3G 6G 8G11
  21820501.189    21820505.849    -2062182.103 8  -3331486.078 9
  20802760.298    20802764.858    -2669410.827 9  -3834063.903 7
  23492874.002    23492882.564    -4596157.205 9  -4923823.242 9
 88  3 25  2 45 59.0800000  0  3G 6G 8G11
  21809134.278    21809139.730    -2121917.406 9  -3378033.002 9
  20791651.271    20791657.303    -2727790.023 9  -3879554.124 7
  23472415.265    23472420.877    -4703677.019 8  -5007604.805 9
 88  3 25  2 46 29.0800000  0  3G 6G 8G11
  21797782.714    21797788.794    -2181565.512 9  -3424512.006 8
  20780660.582    20780665.452    -2785548.502 8  -3924560.667 7
  23451990.456    23452000.080    -4811004.421 8  -5091236.448 8
 88  3 25  2 46 59.0800000  0  3G 6G 8G11
  21786448.168    21786454.865    -2241126.440 9  -3470923.059 9
  20769787.595    20769792.936    -2842685.616 9  -3969083.056 7
  23431604.209    23431612.028    -4918137.740 8  -5174716.855 8
 88  3 25  2 47 29.0800000  0  3G 6G 8G11
  21775132.312    21775136.460    -2300599.197 9  -3517265.398 9
  20759032.802    20759038.377    -2899199.661 8  -4013119.927 7
  23411253.399    23411261.477    -5025074.966 9  -5258044.461 7
 88  3 25  2 47 59.0800000  0  3G 6G 8G11
  21763830.567    21763837.261    -2359979.843 9  -3563535.989 9
  20748398.060    20748403.186    -2955086.533 9  -4056668.080 7
  23390942.625    23390950.517    -5131810.898 8  -5341215.211 8
 88  3 25  2 48 29.0800000  0  3G 6G 8G11
  21752549.578    21752555.728    -2419266.903 9  -3609733.645 8
  20737883.989    20737888.582    -3010343.596 9  -4099725.495 7
  23370670.012    23370678.771    -5238342.323 7  -5424226.622 7
 88  3 25  2 48 59.0800000  0  3G 6G 8G11
  21741285.483    21741290.855    -2478461.657 9  -3655859.373 9
  20727487.609    20727493.997    -3064971.638 9  -4142292.752 7
  23350435.866    23350445.075    -5344669.042 8  -5507078.482 8
 88  3 25  2 49 29.0800000  0  3G 6G 8G11
  21730038.235    21730044.532    -2537562.907 9  -3701912.252 9
  20717212.346    20717217.806    -3118969.317 9  -4184368.816 7
  23330241.129    23330251.296    -5450789.093 8  -5589769.320 8
 88  3 25  2 49 59.0800000  0  3G 6G 8G11
  21718809.154    21718815.048    -2596567.765 9  -3747890.009 8
  20707058.008    20707063.202    -3172333.256 9  -4225951.055 7
  23310088.397    23310097.165    -5556697.966 7  -5672295.587 7
 88  3 25  2 50 29.0800000  0  3G 6G 8G11
  21707600.016    21707607.214    -2655471.572 9  -3793789.039 8
  20697023.135    20697030.093    -3225058.493 9  -4267035.613 7
  23289976.049    23289983.415    -5662390.054 8  -5754652.939 8
 88  3 25  2 50 59.0800000  0  3G 6G 8G11
  21696411.428    21696417.001    -2714274.581 9  -3839609.521 9
  20687111.870    20687118.793    -3277144.799 8  -4307622.285 7
  23269905.072    23269912.512    -5767864.011 8  -5836840.317 8
 88  3 25  2 51 29.0800000  0  3G 6G 8G11
  21685240.610    21685244.897    -2772977.713 9  -3885352.179 8
  20677322.420    20677328.511    -3328592.617 9  -4347711.445 7
  23249874.615    23249883.924    -5873119.608 8  -5918857.539 9
 88  3 25  2 51 59.0800000  0  3G 6G 8G11
  21674089.513    21674094.870    -2831576.858 9  -3931013.799 9
  20667654.068    20667660.052    -3379397.187 9  -4387299.375 7
  23229887.822    23229896.541    -5978151.111 8  -6000700.151 8
 88  3 25  2 52 29.0800000  0  3G 6G 8G11
  21662958.447    21662963.746    -2890070.337 9  -3976593.092 9
  20658108.598    20658114.970    -3429557.315 9  -4426385.150 6
  23209945.844    23209952.028    -6082956.035 8  -6082366.206 8
 88  3 25  2 52 59.0800000  0  3G 6G 8G11
  21651847.587    21651852.411    -2948459.639 9  -4022091.201 8
  20648686.060    20648690.813    -3479073.874 8  -4464969.425 7
  23190043.936    23190051.794    -6187534.509 8  -6163855.805 9
 88  3 25  2 53 29.0800000  0  3G 6G 8G11
  21640756.934    21640761.762    -3006743.060 9  -4067506.807 8
  20639385.356    20639392.128    -3527945.123 9  -4503050.884 7
  23170186.603    23170195.277    -6291883.517 8  -6245166.603 9
 88  3 25  2 53 59.0800000  0  3G 6G 8G11
  21629686.744    21629692.538    -3064916.063 9  -4112836.367 9
  20630209.746    20630215.509    -3576166.349 9  -4540625.821 7
  23150373.858    23150382.586    -6395997.387 8  -6326294.177 8
 88  3 25  2 54 29.0800000  0  3G 6G 8G11
  21618638.234    21618644.082    -3122975.663 9  -4158077.565 8
  20621158.205    20621164.910    -3623734.464 8  -4577691.823 8
  23130607.944    23130615.502    -6499871.894 8  -6407235.245 8
 88  3 25  2 54 59.0800000  0  3G 6G 8G11
  21607611.660    21607617.098    -3180921.585 9  -4203230.184 9
  20612230.260    20612236.774    -3670649.450 9  -4614248.911 8
  23110887.273    23110894.693    -6603506.084 8  -6487989.059 8
 88  3 25  2 55 29.0800000  0  3G 6G 8G11
  21596605.627    21596611.066    -3238754.724 9  -4248294.905 9
  20603427.355    20603433.596    -3716912.019 9  -4650297.625 7
  23091211.447    23091219.439    -6706899.234 9  -6568555.045 8
 88  3 25  2 55 59.0800000  0  3G 6G 8G11
  21585621.977    21585627.931    -3296472.522 9  -4293269.762 8
  20594749.047    20594754.744    -3762519.193 9  -4685835.626 7
  23071582.990    23071590.919    -6810047.675 8  -6648930.347 8
 88  3 25  2 56 29.0800000  0  3G 6G 8G11
  21574661.512    21574667.558    -3354071.973 9  -4338152.396 9
  20586194.971    20586200.088    -3807468.150 8  -4720860.739 7
  23051999.713    23052009.104    -6912947.455 8  -6729111.894 8
 88  3 25  2 56 59.0800000  0  3G 6G 8G11
  21563723.736    21563728.126    -3411550.519 9  -4382940.820 9
  20577765.533    20577771.978    -3851756.501 8  -4755371.110 8
  23032468.329    23032476.073    -7015594.970 8  -6809096.881 8
 88  3 25  2 57 29.0800000  0  3G 6G 8G11
  21552808.562    21552813.344    -3468908.857 9  -4427635.573 8
  20569464.387    20569470.728    -3895385.243 9  -4789367.488 8
  23012983.688    23012990.696    -7117989.614 8  -6888884.814 7
 88  3 25  2 57 59.0800000  0  3G 6G 8G11
  21541916.554    21541922.714    -3526144.398 9  -4472234.649 8
  20561288.593    20561294.376    -3938352.080 9  -4822848.091 7
  22993546.989    22993554.847    -7220127.733 8  -6968472.856 7
 88  3 25  2 58 29.0800000  0  3G 6G 8G11
  21531049.515    21531054.482    -3583256.326 9  -4516737.406 8
  20553237.928    20553243.863    -3980656.702 9  -4855812.687 7
  22974160.383    22974167.791    -7322007.574 8  -7047859.663 8
 88  3 25  2 58 59.0800000  0  3G 6G 8G11
  21520205.259    21520210.137    -3640241.437 9  -4561141.340 9
  20545314.033    20545320.269    -4022295.731 8  -4888258.648 7
  22954822.274    22954830.154    -7423624.895 8  -7127041.899 8
 88  3 25  2 59 29.0800000  0  3G 6G 8G11
  21509385.574    21509390.352    -3697097.564 8  -4605444.772 8
  20537518.696    20537524.473    -4063267.444 9  -4920184.614 7
  22935536.078    22935543.572    -7524976.394 8  -7206017.016 8
 88  3 25  2 59 59.0800000  0  3G 6G 8G11
  21498590.964    21498596.636    -3753823.812 9  -4649646.992 8
  20529848.196    20529853.376    -4103571.321 9  -4951590.194 8
  22916301.027    22916307.651    -7626060.107 8  -7284783.444 8
 88  3 25  3  0 29.0800000  0  3G 6G 8G11
  21487821.096    21487826.810    -3810418.650 8  -4693746.836 8
  20522306.566    20522310.300    -4143206.054 9  -4982474.368 7
  22897116.836    22897123.431    -7726873.522 8  -7363339.268 8
 88  3 25  3  0 59.0800000  0  3G 6G 8G11
  21477077.355    21477081.914    -3866880.037 9  -4737742.672 8
  20514892.066    20514897.751    -4182170.203 9  -5012836.004 7
  22877983.617    22877991.143    -7827414.025 8  -7441682.448 8
 88  3 25  3  1 29.0800000  0  3G 6G 8G11
  21466359.302    21466364.714    -3923205.918 9  -4781632.925 8
  20507604.293    20507610.528    -4220462.344 9  -5042673.997 8
  22858904.730    22858912.474    -7927678.303 9  -7519810.364 8
 88  3 25  3  1 59.0800000  0  3G 6G 8G11
  21455666.849    21455671.486    -3979394.751 9  -4825416.400 8
  20500445.625    20500449.983    -4258080.996 9  -5071987.205 8
  22839877.242    22839886.491    -8027664.006 8  -7597721.216 7
 88  3 25  3  2 29.0800000  0  3G 6G 8G11
  21444999.971    21445004.597    -4035445.202 9  -4869092.032 8
  20493415.765    20493420.480    -4295025.487 8  -5100775.086 7
  22820905.380    22820911.717    -8127368.694 8  -7675413.094 8
 88  3 25  3  2 59.0800000  0  3G 6G 8G11
  21434360.971    21434367.211    -4091355.171 9  -4912658.201 8
  20486513.898    20486517.846    -4331294.874 9  -5129036.889 7
  22801984.194    22801994.319    -8226789.420 8  -7752883.708 8
 88  3 25  3  3 29.0800000  0  3G 6G 8G11
  21423748.414    21423754.335    -4147122.655 9  -4956113.332 9
  20479740.091    20479745.330    -4366887.807 9  -5156771.615 7
  22783120.627    22783127.283    -8325923.302 9  -7830130.802 8
 88  3 25  3  3 59.0800000  0  3G 6G 8G11
  21413163.844    21413169.196    -4202746.114 9  -4999456.252 8
  20473096.533    20473100.307    -4401803.144 9  -5183978.333 8
  22764309.682    22764319.618    -8424768.085 8  -7907152.634 8
 88  3 25  3  4 29.0800000  0  3G 6G 8G11
  21402606.527    21402611.094    -4258222.121 9  -5042684.264 8
  20466581.931    20466587.482    -4436038.127 8  -5210654.913 8
  22745556.384    22745563.896    -8523319.194 8  -7983945.627 9
 88  3 25  3  4 59.0800000  0  3G 6G 8G11
  21392078.161    21392083.953    -4313548.486 9  -5085795.676 8
  20460196.936    20460202.416    -4469591.427 9  -5236800.309 7
  22726859.518    22726867.522    -8621573.748 8  -8060507.525 8
 88  3 25  3  5 29.0800000  0  3G 6G 8G11
  21381578.530    21381583.347    -4368726.006 9  -5128791.112 8
  20453939.792    20453946.353    -4502464.708 9  -5262415.813 6
  22708218.356    22708226.840    -8719532.005 8  -8136838.550 7
 88  3 25  3  5 59.0800000  0  3G 6G 8G11
  21371107.012    21371112.131    -4423753.449 8  -5171669.595 8
  20447814.453    20447820.453    -4534657.182 9  -5287500.820 7
  22689635.036    22689642.685    -8817191.641 9  -8212936.892 8
 88  3 25  3  6 29.0800000  0  3G 6G 8G11
  21360664.670    21360669.797    -4478627.063 8  -5214428.223 9
  20441819.164    20441822.567    -4566166.812 9  -5312053.748 6
  22671109.151    22671115.040    -8914548.305 8  -8288799.155 8
 88  3 25  3  6 59.0800000  0  3G 6G 8G11
  21350251.443    21350257.848    -4533345.282 9  -5257065.748 9
  20435952.167    20435957.299    -4596992.825 8  -5336073.985 6
  22652640.122    22652647.041    -9011599.465 8  -8364423.357 8
 88  3 25  3  7 29.0800000  0  3G 6G 8G11
  21339871.087    21339875.766    -4587904.501 8  -5299579.385 9
  20430216.863    20430222.846    -4627132.391 8  -5359559.324 7
  22634231.089    22634237.871    -9108340.914 8  -8439806.234 7
 88  3 25  3  7 59.0800000  0  3G 6G 8G11
  21329518.734    21329522.900    -4642303.376 9  -5341968.088 9
  20424612.840    20424617.300    -4656585.329 8  -5382509.637 7
  22615880.259    22615887.602    -9204770.603 9  -8514946.168 8
 88  3 25  3  8 29.0800000  0  3G 6G 8G11
  21319196.391    21319203.031    -4696540.629 8  -5384230.836 8
  20419138.442    20419143.889    -4685351.381 9  -5404924.701 8
  22597591.194    22597598.010    -9300886.537 8  -8589841.637 8
 88  3 25  3  8 59.0800000  0  3G 6G 8G11
  21308906.709    21308913.122    -4750615.709 9  -5426367.226 9
  20413795.030    20413799.225    -4713431.080 8  -5426804.950 7
  22579360.576    22579366.131    -9396687.436 9  -8664491.630 8
 88  3 25  3  9 29.0800000  0  3G 6G 8G11
  21298647.705    21298654.097    -4804527.290 9  -5468376.230 8
  20408583.137    20408587.194    -4740824.066 8  -5448150.089 6
  22561190.704    22561196.393    -9492171.307 9  -8738894.566 8
 88  3 25  3  9 59.0800000  0  3G 6G 8G11
  21288421.064    21288426.188    -4858272.197 9  -5510255.339 8
  20403500.569    20403505.057    -4767528.501 8  -5468958.723 7
  22543081.969    22543088.882    -9587334.353 9  -8813047.528 8
 88  3 25  3 10 29.0800000  0  3G 6G 8G11
  21278225.765    21278230.399    -4911846.437 9  -5552001.452 8
  20398550.206    20398556.383    -4793541.793 8  -5489228.779 7
  22525034.283    22525041.362    -9682171.858 8  -8886946.806 8
 88  3 25  3 10 59.0800000  0  3G 6G 8G11
  21268064.429    21268069.286    -4965247.927 9  -5593612.968 8
  20393731.031    20393736.562    -4818863.176 9  -5508959.679 7
  22507050.593    22507056.482    -9776681.109 8  -8960590.300 8
 88  3 25  3 11 29.0800000  0  3G 6G 8G11
  21257935.720    21257940.175    -5018476.197 9  -5635089.514 8
  20389044.313    20389050.140    -4843493.976 8  -5528152.482 7
  22489127.299    22489134.922    -9870861.133 8  -9033977.264 8
 88  3 25  3 11 59.0800000  0  3G 6G 8G11
  21247839.041    21247844.020    -5071530.489 9  -5676430.483 8
  20384488.471    20384494.419    -4867434.468 9  -5546807.372 7
  22471268.623    22471276.610    -9964710.254 9  -9107106.383 8
 88  3 25  3 12 29.0800000  0  3G 6G 8G11
  21237777.530    21237782.022    -5124408.020 8  -5717633.721 8
  20380064.265    20380068.898    -4890682.980 8  -5564923.072 8
  22453474.118    22453481.641   -10058225.345 8  -9179975.212 8
 88  3 25  3 12 59.0800000  0  3G 6G 8G11
  21227748.821    21227754.283    -5177106.578 9  -5758697.507 8
  20375772.080    20375776.397    -4913238.915 8  -5582499.094 7
  22435742.579    22435749.043   -10151403.616 8  -9252581.592 9
 88  3 25  3 13 29.0800000  0  3G 6G 8G11
  21217754.785    21217759.653    -5229623.897 9  -5799620.065 9
  20371612.783    20371617.331    -4935101.648 9  -5599534.942 7
  22418075.094    22418082.903   -10244242.384 8  -9324923.404 8
 88  3 25  3 13 59.0800000  0  3G 6G 8G11
  21207795.845    21207800.824    -5281957.351 9  -5840399.342 8
  20367582.905    20367590.074    -4956270.120 8  -5616029.827 7
  22400474.332    22400481.068   -10336738.405 8  -9396998.160 7
 88  3 25  3 14 29.0800000  0  3G 6G 8G11
  21197872.135    21197877.886    -5334105.086 9  -5881033.918 8
  20363687.040    20363693.197    -4976744.106 7  -5631983.548 6
  22382938.638    22382945.623   -10428889.262 9  -9468803.947 8
 88  3 25  3 14 59.0800000  0  3G 6G 8G11
  21187984.444    21187989.674    -5386067.944 9  -5921524.424 8
  20359922.215    20359926.787    -4996526.294 8  -5647398.198 7
  22365467.761    22365474.362   -10520695.649 9  -9540341.327 8
 88  3 25  3 15 29.0800000  0  3G 6G 8G11
  21178132.650    21178137.364    -5437840.661 9  -5961866.779 9
  20356291.503    20356296.433    -5015612.763 8  -5662270.762 6
  22348064.600    22348071.339   -10612151.684 9  -9611605.706 8
 88  3 25  3 15 59.0800000  0  3G 6G 8G11
  21168317.063    21168321.195    -5489420.098 9  -6002058.527 9
  20352792.608    20352797.701    -5034002.376 8  -5676600.289 7
  22330728.756    22330735.684   -10703253.667 8  -9682594.205 8
 88  3 25  3 16 29.0800000  0  3G 6G 8G11
  21158538.846    21158542.954    -5540806.553 9  -6042099.874 9
  20349424.719    20349429.375    -5051697.126 8  -5690388.363 7
  22313459.415    22313466.315   -10794001.335 8  -9753306.606 8
 88  3 25  3 16 59.0800000  0  3G 6G 8G11
  21148797.087    21148802.163    -5591998.468 9  -6081989.662 9
  20346188.933    20346195.724    -5068697.491 7  -5703635.380 7
  22296259.171    22296264.869   -10884392.857 8  -9823741.491 7
 88  3 25  3 17 29.0800000  0  3G 6G 8G11
  21139092.417    21139098.511    -5642993.503 8  -6121726.024 8
  20343086.222    20343092.000    -5085002.510 8  -5716340.557 7
  22279126.046    22279132.559   -10974425.639 8  -9893896.846 8
 88  3 25  3 17 59.0800000  0  3G 6G 8G11
  21129426.922    21129432.401    -5693788.453 9  -6161306.485 8
  20340116.275    20340122.574    -5100611.271 8  -5728503.196 7
  22262061.833    22262068.858   -11064096.084 8  -9963769.872 7
 88  3 25  3 18 29.0800000  0  3G 6G 8G11
  21119799.501    21119804.891    -5744380.438 9  -6200728.771 9
  20337279.168    20337283.812    -5115522.474 8  -5740122.284 7
  22245068.385    22245074.763   -11153400.800 8 -10033357.903 8
 88  3 25  3 18 59.0800000  0  3G 6G 8G11
  21110211.105    21110216.263    -5794768.720 9  -6239992.339 8
  20334573.027    20334579.506    -5129737.417 8  -5751198.837 7
  22228143.141    22228150.429   -11242339.062 8 -10102660.390 8
 88  3 25  3 19 29.0800000  0  3G 6G 8G11
  21100661.605    21100666.146    -5844952.785 9  -6279096.776 9
  20332000.818    20332006.808    -5143257.625 8  -5761734.036 7
  22211288.357    22211295.803   -11330909.875 8 -10171676.546 8
 88  3 25  3 19 59.0800000  0  3G 6G 8G11
  21091150.572    21091155.996    -5894930.348 9  -6318040.303 8
  20329560.709    20329566.684    -5156083.083 7  -5771727.877 8
  22194505.349    22194511.813   -11419110.729 8 -10240404.420 8
 88  3 25  3 20 29.0800000  0  3G 6G 8G11
  21081680.197    21081686.208    -5944696.932 9  -6356819.439 8
  20327253.034    20327258.081    -5168210.962 8  -5781178.133 7
  22177792.017    22177798.230   -11506936.854 9 -10308840.313 8
 88  3 25  3 20 59.0800000  0  3G 6G 8G11
  21072250.581    21072254.692    -5994250.447 8  -6395432.537 9
  20325076.209    20325083.327    -5179641.783 8  -5790085.255 8
  22161149.909    22161157.120   -11594385.648 9 -10376982.172 8
 88  3 25  3 21 29.0800000  0  3G 6G 8G11
  21062861.544    21062867.325    -6043589.372 9  -6433878.426 8
  20323033.793    20323041.099    -5190375.948 8  -5798449.507 7
  22144581.536    22144589.079   -11681455.812 8 -10444828.997 8
 88  3 25  3 21 59.0800000  0  3G 6G 8G11
  21053514.438    21053519.493    -6092711.037 8  -6472155.012 8
  20321124.723    20321129.234    -5200413.089 8  -5806270.629 6
  22128085.350    22128093.007   -11768144.298 8 -10512378.415 8
 88  3 25  3 22 29.0800000  0  3G 6G 8G11
  21044208.338    21044213.888    -6141613.157 8  -6510260.536 8
  20319347.469    20319353.732    -5209753.258 8  -5813548.653 7
  22111663.044    22111669.700   -11854448.562 8 -10579628.423 7
 88  3 25  3 22 59.0800000  0  3G 6G 8G11
  21034944.162    21034950.143    -6190295.692 9  -6548194.952 8
  20317702.088    20317707.852    -5218398.773 8  -5820285.396 7
  22095311.990    22095319.250   -11940368.392 9 -10646578.903 7
 88  3 25  3 23 29.0800000  0  3G 6G 8G11
  21025721.657    21025727.468    -6238756.093 9  -6585956.278 9
  20316188.498    20316194.891    -5226348.932 7  -5826480.298 7
  22079037.613    22079042.521   -12025900.907 9 -10713227.557 8
 88  3 25  3 23 59.0800000  0  3G 6G 8G11
  21016544.283    21016549.434    -6286990.766 9  -6623541.707 8
  20314809.236    20314814.419    -5233602.870 8  -5832132.698 8
  22062835.287    22062841.722   -12111042.781 8 -10779571.832 8
 88  3 25  3 24 29.0800000  0  3G 6G 8G11
  21007408.482    21007414.358    -6334996.391 9  -6660948.670 8
  20313561.552    20313567.126    -5240159.913 8  -5837242.055 8
  22046707.593    22046713.642   -12195790.203 8 -10845608.721 8
 88  3 25  3 24 59.0800000  0  3G 6G 8G11
  20998316.715    20998322.912    -6382773.156 8  -6698177.283 8
  20312445.726    20312450.429    -5246022.389 8  -5841810.199 7
  22030656.200    22030662.638   -12280143.504 8 -10911338.508 8
 88  3 25  3 25 29.0800000  0  3G 6G 8G11
  20989268.785    20989274.115    -6430320.217 9  -6735226.905 8
  20311461.548    20311466.507    -5251192.287 8  -5845838.664 7
  22014679.151    22014684.519   -12364101.623 9 -10976760.367 8
 88  3 25  3 25 59.0800000  0  3G 6G 8G11
  20980266.350    20980271.385    -6477634.200 9  -6772094.932 8
  20310609.952    20310614.790    -5255668.533 9  -5849326.614 7
  21998777.975    21998783.435   -12447661.378 8 -11041871.819 6
 88  3 25  3 26 29.0800000  0  3G 6G 8G11
  20971306.268    20971312.025    -6524710.676 9  -6808777.880 8
  20309890.339    20309895.504    -5259449.499 8  -5852272.810 7
  21982953.454    21982961.486   -12530818.042 9 -11106669.164 8
 88  3 25  3 26 59.0800000  0  3G 6G 8G11
  20962393.583    20962399.024    -6571547.824 9  -6845274.330 8
  20309302.129    20309308.945    -5262535.674 8  -5854677.601 7
  21967205.878    21967212.417   -12613569.704 8 -11171150.933 9
 88  3 25  3 27 29.0800000  0  3G 6G 8G11
  20953527.912    20953532.699    -6618144.269 9  -6881583.223 8
  20308847.821    20308852.303    -5264928.745 8  -5856542.311 7
  21951535.441    21951543.536   -12695915.161 8 -11235316.184 8
 88  3 25  3 27 59.0800000  0  3G 6G 8G11
  20944706.473    20944711.454    -6664498.010 9  -6917703.008 9
  20308524.013    20308529.304    -5266628.835 8  -5857867.034 7
  21935945.056    21935951.320   -12777852.163 8 -11299163.148 8
 88  3 25  3 28 29.0800000  0  3G 6G 8G11
  20935933.649    20935937.442    -6710605.469 9  -6953630.890 7
  20308333.407    20308337.290    -5267635.832 8  -5858651.680 7
  21920429.555    21920436.944   -12859377.412 8 -11362689.284 9
 88  3 25  3 28 59.0800000  0  3G 6G 8G11
  20927205.727    20927211.058    -6756466.925 9  -6989367.067 9
  20308271.722    20308277.640    -5267952.608 9  -5858898.510 7
  21904996.096    21905001.835   -12940491.001 9 -11425894.636 8
 88  3 25  3 29 29.0800000  0  3G 6G 8G11
  20918525.991    20918530.400    -6802079.975 9  -7024909.693 9
  20308343.526    20308349.425    -5267579.090 8  -5858607.429 7
  21889638.531    21889644.964   -13021190.817 9 -11488777.549 8
 88  3 25  3 29 59.0800000  0  3G 6G 8G11
  20909893.483    20909897.557    -6847442.082 9  -7060256.762 9
  20308545.376    20308551.017    -5266515.818 9  -5857778.884 7
  21874360.825    21874367.400   -13101474.605 9 -11551336.305 7
 88  3 25  3 30 29.0800000  0  3G 6G 8G11
  20901309.733    20901315.450    -6892550.288 9  -7095405.990 8
  20308879.312    20308885.094    -5264762.731 8  -5856412.830 7
  21859163.003    21859170.603   -13181339.304 9 -11613568.480 7
 88  3 25  3 30 59.0800000  0  3G 6G 8G11
  20892774.872    20892779.821    -6937401.807 9  -7130355.207 8
  20309344.116    20309348.506    -5262320.444 9  -5854509.741 7
  21844046.074    21844051.092   -13260782.255 9 -11675472.042 8
 88  3 25  3 31 29.0800000  0  3G 6G 8G11
  20884289.295    20884293.302    -6981995.086 9  -7165103.205 8
  20309940.066    20309945.816    -5259189.874 8  -5852070.307 6
  21829008.729    21829015.726   -13339802.290 8 -11737046.051 7
 88  3 25  3 31 59.0800000  0  3G 6G 8G11
  20875852.358    20875857.413    -7026327.586 9  -7199647.992 8
  20310666.434    20310671.605    -5255371.771 8  -5849095.153 8
  21814052.089    21814058.270   -13418396.903 9 -11798288.574 9
 88  3 25  3 32 29.0800000  0  3G 6G 8G11
  20867466.194    20867471.394    -7070397.551 9  -7233988.197 8
  20311524.147    20311527.591    -5250867.014 7  -5845584.924 8
  21799177.438    21799183.178   -13496564.361 9 -11859198.240 8
 88  3 25  3 32 59.0800000  0  3G 6G 8G11
  20859131.085    20859134.735    -7114202.274 9  -7268121.738 8
  20312511.514    20312516.329    -5245676.071 8  -5841540.024 6
  21784385.078    21784390.844   -13574302.288 8 -11919773.215 6
 88  3 25  3 33 29.0800000  0  3G 6G 8G11
  20850845.832    20850851.024    -7157738.595 9  -7302046.127 8
  20313630.170    20313634.367    -5239798.961 8  -5836960.430 7
  21769673.803    21769681.051   -13651608.102 9 -11980011.453 8
 88  3 25  3 33 59.0800000  0  3G 6G 8G11
  20842612.605    20842617.744    -7201005.244 9  -7335760.372 8
  20314878.169    20314883.586    -5233237.779 8  -5831847.800 7
  21755045.611    21755051.797   -13728480.214 8 -12039911.778 7
 88  3 25  3 34 29.0800000  0  3G 6G 8G11
  20834430.894    20834435.716    -7244001.192 9  -7369263.698 8
  20316255.990    20316261.366    -5225994.566 8  -5826203.725 8
  21740500.534    21740505.925   -13804917.964 8 -12099473.630 8
 88  3 25  3 34 59.0800000  0  3G 6G 8G11
  20826301.319    20826306.289    -7286723.494 9  -7402553.785 8
  20317763.705    20317770.880    -5218069.562 9  -5820028.390 8
  21726037.690    21726042.577   -13880918.868 9 -12158695.069 8
 88  3 25  3 35 29.0800000  0  3G 6G 8G11
  20818223.836    20818228.483    -7329169.864 9  -7435628.854 8
  20319402.137    20319409.077    -5209463.521 8  -5813322.371 8
  21711658.852    21711665.496   -13956480.738 9 -12217574.410 7
 88  3 25  3 35 59.0800000  0  3G 6G 8G11
  20810199.812    20810204.995    -7371337.044 8  -7468486.384 8
  20321169.375    20321173.572    -5200176.922 7  -5806086.036 7
  21697363.765    21697370.550   -14031600.897 9 -12276109.555 8
 88  3 25  3 36 29.0800000  0  3G 6G 8G11
  20802228.725    20802233.767    -7413222.470 9  -7501124.373 8
  20323065.760    20323070.730    -5190210.206 8  -5798319.740 7
  21683153.206    21683159.193   -14106277.141 8 -12334298.796 8
 88  3 25  3 36 59.0800000  0  3G 6G 8G11
  20794311.994    20794317.102    -7454824.133 9  -7533541.228 9
  20325092.286    20325098.063    -5179564.673 8  -5790024.502 8
  21669028.064    21669033.748   -14180507.642 8 -12392140.714 8
 88  3 25  3 37 29.0800000  0  3G 6G 8G11
  20786450.313    20786455.298    -7496141.554 9  -7565736.609 8
  20327245.919    20327252.335    -5168243.302 8  -5781202.638 6
  21654986.938    21654993.625   -14254292.667 9 -12449635.516 8
 88  3 25  3 37 59.0800000  0  3G 6G 8G11
  20778642.359    20778647.056    -7537172.903 9  -7597709.068 8
  20329529.413    20329533.328    -5156247.741 9  -5771855.439 6
  21641029.691    21641037.200   -14327630.274 9 -12506781.667 7
 88  3 25  3 38 29.0800000  0  3G 6G 8G11
  20770888.949    20770894.701    -7577913.560 9  -7629455.021 8
  20331940.254    20331945.366    -5143576.575 8  -5761981.785 7
  21627161.694    21627167.037   -14400516.496 9 -12563576.089 6
 88  3 25  3 38 59.0800000  0  3G 6G 8G11
  20763191.459    20763197.329    -7618362.172 9  -7660973.396 9
  20334478.595    20334483.317    -5130232.319 7  -5751583.638 7
  21613376.983    21613384.681   -14472950.596 8 -12620018.200 8
 88  3 25  3 39 29.0800000  0  3G 6G 8G11
  20755551.771    20755556.393    -7658516.153 9  -7692262.206 8
  20337145.718    20337151.562    -5116216.321 8  -5740662.081 6
  21599679.783    21599686.330   -14544930.046 9 -12676106.048 7
 88  3 25  3 39 59.0800000  0  3G 6G 8G11
  20747966.613    20747971.208    -7698372.952 8  -7723319.446 8
  20339941.265    20339946.101    -5101529.062 7  -5729217.438 7
  21586069.200    21586075.495   -14616453.024 9 -12731838.206 7
 88  3 25  3 40 29.0800000  0  4G 6G 8G11G 9
  20740438.182    20740445.125    -7737930.598 9  -7754143.556 8
  20342864.406    20342867.694    -5086172.240 9  -5717251.089 6
  21572545.938    21572552.212   -14687517.909 8 -12787213.409 8
                  22938571.308   -27820312.586 8
 88  3 25  3 40 59.0800000  0  4G 6G 8G11G 9
  20732968.666    20732974.261    -7777186.258 9  -7784732.372 8
  20345912.853    20345917.088    -5070146.732 8  -5704763.644 7
  21559110.863    21559116.929   -14758122.763 8 -12842230.162 7
  22921531.263    22921537.556   -27909868.879 8  35424591.904 8
 88  3 25  3 41 29.0800000  0  4G 6G 8G11G 9
  20725556.275    20725561.820    -7816136.383 9  -7815083.110 8
  20349089.711    20349094.974    -5053452.497 7  -5691755.143 7
  21545762.876    21545769.112   -14828264.277 8 -12896885.844 8
  22904498.247    22904503.459   -27999380.247 8  35354842.842 8
 88  3 25  3 41 59.0800000  0  4G 6G 8G11G 9
  20718202.990    20718208.255    -7854782.042 8  -7845196.591 8
  20352393.573    20352397.689    -5036094.360 8  -5678229.301 7
  21532503.022    21532508.722   -14897944.232 8 -12951181.887 7
  22887473.428    22887478.313   -28088848.345 8  35285127.507 7
 88  3 25  3 42 29.0800000  0  4G 6G 8G11G 9
  20710906.446    20710912.267    -7893121.120 8  -7875071.183 8
  20355822.293    20355827.844    -5018073.907 8  -5664187.376 7
  21519333.265    21519338.647   -14967161.105 8 -13005117.082 7
  22870455.717    22870462.422   -28178271.736 8  35215446.998 9
 88  3 25  3 42 59.0800000  0  4G 6G 8G11G 9
  20703670.288    20703676.049    -7931147.336 8  -7904701.981 8
  20359377.731    20359382.327    -4999388.222 8  -5649627.096 7
  21506249.488    21506255.947   -15035909.161 8 -13058686.974 8
  22853448.607    22853454.923   -28267644.325 8  35145806.102 8
 88  3 25  3 43 29.0800000  0  4G 6G 8G11G 9
  20696494.341    20696498.573    -7968860.172 8  -7934088.593 9
  20363059.679    20363064.739    -4980040.532 8  -5634550.974 7
  21493255.721    21493262.558   -15104188.305 8 -13111891.460 8
  22836452.208    22836457.812   -28356966.058 7  35076204.823 8
 88  3 25  3 43 59.0800000  0  4G 6G 8G11G 9
  20689377.025    20689382.028    -8006259.519 9  -7963230.928 9
  20366867.041    20366872.459    -4960034.518 7  -5618961.853 6
  21480352.646    21480358.185   -15171999.137 8 -13164731.038 7
  22819464.364    22819470.797   -28446237.090 9  35006643.043 9
 88  3 25  3 44 29.0800000  0  4G 6G 8G11G 9
  20682320.904    20682326.581    -8043341.164 9  -7992125.716 9
  20370798.908    20370804.402    -4939370.205 8  -5602859.775 7
  21467537.629    21467544.298   -15239338.272 8 -13217203.050 7
  22802485.495    22802492.037   -28535453.971 8  34937123.475 8
 88  3 25  3 44 59.0800000  0  4G 6G 8G11G 9
  20675325.596    20675330.620    -8080103.287 8  -8020771.513 9
  20374855.696    20374860.965    -4918049.724 8  -5586246.403 7
  21454813.276    21454819.154   -15306204.470 8 -13269306.553 8
  22785519.540    22785525.513   -28624615.046 9  34867647.385 8
 88  3 25  3 45 29.0800000  0  4G 6G 8G11G 9
  20668391.113    20668395.788    -8116543.103 8  -8049166.166 8
  20379038.661    20379044.706    -4896074.173 8  -5569122.584 7
  21442179.907    21442186.052   -15372595.551 8 -13321039.845 8
  22768564.069    22768569.807   -28713717.661 9  34798216.832 8
 88  3 25  3 45 59.0800000  0  4G 6G 8G11G 9
  20661518.665    20661523.593    -8152656.703 8  -8077306.622 8
  20383344.024    20383349.745    -4873443.516 7  -5551488.298 7
  21429636.806    21429644.353   -15438508.206 8 -13372400.318 8
  22751619.865    22751625.686   -28802758.475 8  34728834.470 7
 88  3 25  3 46 29.0800000  0  4G 6G 8G11G 9
  20654709.493    20654714.100    -8188442.404 8  -8105191.568 8
  20387774.134    20387779.659    -4850160.095 8  -5533345.352 8
  21417184.923    21417192.031   -15503941.909 8 -13423387.580 7
  22734688.722    22734693.899   -28891736.200 8  34659501.202 8
 88  3 25  3 46 59.0800000  0  4G 6G 8G11G 9
  20647962.221    20647966.843    -8223899.819 9  -8132820.720 8
  20392329.518    20392333.422    -4826227.130 8  -5514696.300 7
  21404825.302    21404831.198   -15568896.682 8 -13474001.647 7
  22717768.783    22717774.161   -28980650.418 9  34590217.457 8
 88  3 25  3 47 29.0800000  0  4G 6G 8G11G 9
  20641277.242    20641282.118    -8259027.099 9  -8160192.608 8
  20397006.066    20397011.970    -4801646.926 9  -5495542.885 6
  21392555.370    21392561.491   -15633371.592 8 -13524241.801 8
  22700862.029    22700867.129   -29069499.780 8  34520984.259 9
 88  3 25  3 47 59.0800000  0  4G 6G 8G11G 9
  20634656.081    20634661.138    -8293821.583 9  -8187305.188 9
  20401807.646    20401811.590    -4776420.913 8  -5475886.228 7
  21380378.048    21380384.241   -15697364.797 8 -13574106.601 8
  22683966.402    22683971.705   -29158281.620 8  34451803.645 8
 88  3 25  3 48 29.0800000  0  4G 6G 8G11G 9
  20628099.160    20628104.165    -8328279.196 8  -8214155.269 8
  20406731.002    20406735.581    -4750548.915 8  -5455726.226 7
  21368294.289    21368298.985   -15760873.062 8 -13623593.539 8
  22667085.061    22667091.706   -29246992.651 9  34382678.227 8
 88  3 25  3 48 59.0800000  0  4G 6G 8G11G 9
  20621606.212    20621610.458    -8362398.845 9  -8240741.997 7
  20411776.154    20411781.114    -4724034.118 9  -5435065.346 8
  21356299.466    21356305.933   -15823895.661 8 -13672702.013 8
  22650217.886    22650222.920   -29335631.559 9  34313608.982 9
 88  3 25  3 49 29.0800000  0  4G 6G 8G11G 9
  20615178.511    20615182.926    -8396178.476 8  -8267063.777 8
  20416943.478    20416947.592    -4696878.433 8  -5413905.060 7
  21344399.856    21344406.337   -15886431.602 9 -13721431.287 8
  22633365.286    22633370.051   -29424196.732 9  34244597.226 8
 88  3 25  3 49 59.0800000  0  4G 6G 8G11G 9
  20608816.121    20608820.313    -8429614.158 8  -8293117.551 8
  20422232.319    20422238.737    -4669082.645 8  -5392245.977 7
  21332592.160    21332599.812   -15948478.010 8 -13769779.124 8
  22616525.616    22616530.828   -29512684.534 9  34175645.756 7
 88  3 25  3 50 29.0800000  0  4G 6G 8G11G 9
  20602518.024    20602523.686    -8462703.705 8  -8318901.603 8
  20427644.134    20427649.579    -4640647.802 8  -5370088.966 8
  21320879.266    21320885.796   -16010033.420 8 -13817744.344 7
  22599702.617    22599708.604   -29601092.696 9  34106756.298 8
 88  3 25  3 50 59.0800000  0  4G 6G 8G11G 9
  20596288.449    20596294.130    -8495447.097 9  -8344415.927 7
  20433175.177    20433181.143    -4611578.502 9  -5347437.554 8
  21309258.790    21309265.999   -16071098.966 8 -13865327.857 8
  22582893.594    22582899.080   -29689421.601 9  34037928.661 8
 88  3 25  3 51 29.0800000  0  4G 6G 8G11G 9
  20590124.573    20590129.148    -8527839.383 8  -8369656.662 9
  20438827.627    20438832.172    -4581873.645 9  -5324290.902 8
  21297732.132    21297739.680   -16131670.235 8 -13912526.219 7
  22566102.278    22566106.362   -29777666.584 9  33969166.397 7
 88  3 25  3 51 59.0800000  0  4G 6G 8G11G 9
  20584027.148    20584030.493    -8559879.479 8  -8394622.953 8
  20444600.593    20444606.451    -4551536.578 9  -5300651.615 8
  21286300.503    21286306.120   -16191747.174 8 -13959339.399 7
  22549324.610    22549329.395   -29865826.565 9  33900470.339 7
 88  3 25  3 52 29.0800000  0  4G 6G 8G11G 9
  20577996.434    20578001.247    -8591567.709 8  -8419315.080 8
  20450492.800    20450498.366    -4520571.903 8  -5276523.312 8
  21274961.983    21274967.765   -16251331.338 9 -14005768.584 7
  22532564.511    22532569.296   -29953902.050 8  33831840.177 9
 88  3 25  3 52 59.0800000  0  4G 6G 8G11G 9
  20572034.460    20572040.390    -8622899.462 9  -8443729.417 8
  20456505.314    20456511.178    -4488979.022 8  -5251905.466 8
  21263718.519    21263722.801   -16310418.672 8 -14051810.653 8
  22515821.445    22515827.014   -30041888.465 9  33763279.361 8
 88  3 25  3 53 29.0800000  0  4G 6G 8G11G 9
  20566140.723    20566145.154    -8653872.147 8  -8467863.972 9
  20462635.929    20462641.445    -4456759.988 8  -5226799.718 7
  21252568.823    21252575.566   -16369007.546 8 -14097464.293 8
  22499094.958    22499101.852   -30129783.431 8  33694789.852 9
 88  3 25  3 53 59.0800000  0  4G 6G 8G11G 9
  20560315.526    20560321.350    -8684483.368 8  -8491716.867 8
  20468886.532    20468891.015    -4423916.761 7  -5201207.569 8
  21241514.664    21241519.737   -16427096.880 9 -14142728.689 8
  22482386.670    22482392.711   -30217584.786 8  33626373.260 8
 88  3 25  3 54 29.0800000  0  4G 6G 8G11G 9
  20554559.786    20554565.210    -8714730.382 9  -8515285.970 8
  20475255.002    20475259.908    -4390450.946 8  -5175130.324 7
  21230556.447    21230563.626   -16484685.032 8 -14187602.548 7
  22465696.843    22465702.618   -30305289.664 8  33558031.855 8
 88  3 25  3 54 59.0800000  0  4G 6G 8G11G 9
  20548874.160    20548878.755    -8744613.492 8  -8538571.494 9
  20481740.255    20481745.547    -4356366.893 8  -5148571.314 8
  21219693.017    21219697.458   -16541772.968 8 -14232086.624 7
  22449025.627    22449031.419   -30392898.415 8  33489765.347 8
 88  3 25  3 55 29.0800000  0  4G 6G 8G11G 9
  20543256.457    20543261.686    -8774129.383 8  -8561570.883 8
  20488344.213    20488347.739    -4321666.006 9  -5121531.642 8
  21208924.724    21208929.409   -16598358.520 9 -14276179.240 7
  22432373.229    22432379.211   -30480407.998 9  33421576.110 9
 88  3 25  3 55 59.0800000  0  4G 6G 8G11G 9
  20537710.338    20537715.890    -8803273.773 9  -8584280.799 8
  20495063.659    20495070.034    -4286348.232 9  -5094011.299 8
  21198253.394    21198259.472   -16654438.403 8 -14319877.837 7
  22415740.271    22415745.588   -30567814.020 9  33353467.564 8
 88  3 25  3 56 29.0800000  0  4G 6G 8G11G 9
  20532236.613    20532240.288    -8832045.363 8  -8606700.212 9
  20501902.181    20501908.058    -4250416.475 8  -5066012.521 8
  21187677.740    21187683.193   -16710012.715 8 -14363182.465 6
  22399126.978    22399133.858   -30655115.143 9  33285440.761 9
 88  3 25  3 56 59.0800000  0  4G 6G 8G11G 9
  20526832.107    20526836.534    -8860442.568 8  -8628827.884 8
  20508856.372    20508861.062    -4213873.907 8  -5037537.790 8
  21177198.174    21177204.305   -16765080.566 8 -14406092.460 7
  22382534.745    22382540.621   -30742310.062 9  33217496.718 8
 88  3 25  3 57 29.0800000  0  4G 6G 8G11G 9
  20521499.967    20521504.656    -8888462.989 9  -8650661.968 8
  20515926.564    20515931.239    -4176722.370 8  -5008588.531 7
  21166816.195    21166820.663   -16819641.050 8 -14448607.081 7
  22365963.679    22365968.790   -30829396.107 8  33149637.493 8
 88  3 25  3 57 59.0800000  0  4G 6G 8G11G 9
  20516239.325    20516244.304    -8916104.885 8  -8672201.106 8
  20523110.733    20523116.036    -4138964.522 9  -4979166.828 8
  21156529.387    21156535.633   -16873693.394 8 -14490725.782 7
  22349412.202    22349417.611   -30916371.656 8  33081864.391 8
 88  3 25  3 58 29.0800000  0  4G 6G 8G11G 9
  20511052.164    20511057.083    -8943363.574 9  -8693441.625 8
  20530410.718    20530417.109    -4100600.299 9  -4949272.626 8
  21146341.463    21146348.600   -16927234.055 8 -14532445.759 7
  22332883.497    22332888.216   -31003231.939 9  33014181.083 8
 88  3 25  3 58 59.0800000  0  4G 6G 8G11G 9
  20505938.287    20505943.077    -8970239.542 9  -8714383.927 8
  20537826.539    20537832.062    -4061634.663 7  -4918909.786 8
  21136249.791    21136257.192   -16980264.869 8 -14573768.447 8
  22316375.923    22316381.458   -31089977.512 9  32946587.176 7
 88  3 25  3 59 29.0800000  0  4G 6G 8G11G 9
  20500896.102    20500901.886    -8996731.411 8  -8735026.942 8
  20545354.573    20545360.696    -4022070.925 9  -4888080.885 8
  21126256.140    21126263.282   -17032785.391 8 -14614693.505 8
  22299891.124    22299896.216   -31176606.842 9  32879083.835 8
 88  3 25  3 59 59.0800000  0  4G 6G 8G11G 9
  20495929.149    20495935.097    -9022834.421 7  -8755366.936 8
  20552997.505    20553002.662    -3981908.853 8  -4856785.766 8
  21116358.670    21116364.929   -17084791.997 8 -14655218.117 7
  22283428.674    22283434.234   -31263114.908 8  32811674.995 7
 88  3 25  4  0 29.0800000  0  4G 6G 8G11G 9
  20491037.275    20491040.986    -9048547.096 8  -8775402.787 8
  20560753.901    20560759.191    -3941151.343 9  -4825026.661 9
  21106561.185    21106566.791   -17136284.714 8 -14695342.298 8
  22266990.516    22266996.395   -31349500.265 8  32744361.747 9
 88  3 25  4  0 59.0800000  0  4G 6G 8G11G 9
  20486218.365    20486223.438    -9073866.604 8  -8795132.266 7
  20568622.584    20568628.583    -3899800.364 8  -4792805.110 7
  21096859.884    21096866.010   -17187261.640 9 -14735064.546 8
  22250575.870    22250580.019   -31435759.987 9  32677146.441 8
 88  3 25  4  1 29.0800000  0  4G 6G 8G11G 9
  20481474.334    20481480.318    -9098792.116 8  -8814554.739 8
  20576603.855    20576608.843    -3857859.430 9  -4760123.857 9
  21087257.196    21087262.819   -17237723.518 7 -14774385.467 7
  22234185.577    22234190.110   -31521893.008 8  32610029.829 8
 88  3 25  4  1 59.0800000  0  4G 6G 8G11G 9
  20476807.439    20476813.668    -9123320.070 9  -8833667.413 8
  20584696.820    20584701.939    -3815329.470 8  -4726983.625 8
  21077753.601    21077759.301   -17287667.916 8 -14813303.152 7
  22217819.908    22217825.346   -31607895.740 9  32543014.777 7
 88  3 25  4  2 29.0800000  0  4G 6G 8G11G 9
  20472215.847    20472220.987    -9147450.263 8  -8852470.173 8
  20592900.943    20592906.633    -3772214.742 8  -4693387.749 8
  21068347.071    21068354.548   -17337095.794 8 -14851818.367 7
  22201477.966    22201484.259   -31693767.762 9  32476101.537 8
 88  3 25  4  2 59.0800000  0  4G 6G 8G11G 9
  20467700.560    20467704.663    -9171178.806 8  -8870959.932 9
  20601216.316    20601221.837    -3728516.306 9  -4659337.008 8
  21059039.731    21059046.750   -17386004.563 9 -14889929.081 8
  22185162.659    22185168.638   -31779504.968 8  32409293.360 8
 88  3 25  4  3 29.0800000  0  4G 6G 8G11G 9
  20463261.237    20463266.904    -9194503.463 8  -8889134.980 9
  20609643.511    20609648.172    -3684236.730 8  -4624833.428 7
  21049832.050    21049839.636   -17434393.207 8 -14927634.483 8
  22168874.025    22168879.397   -31865105.037 9  32342592.056 8
 88  3 25  4  3 59.0800000  0  4G 6G 8G11G 9
  20458900.139    20458905.401    -9217422.697 9  -8906994.115 9
  20618177.812    20618183.026    -3639379.081 7  -4589879.431 8
  21040722.968    21040729.717   -17482261.881 8 -14964934.723 7
  22152611.165    22152616.101   -31950566.121 8  32275999.044 8
 88  3 25  4  4 29.0800000  0  4G 6G 8G11G 9
  20454616.090    20454621.565    -9239934.586 8  -8924535.838 8
  20626824.887    20626828.485    -3593946.181 8  -4554477.158 8
  21031712.942    21031719.270   -17529609.581 8 -15001829.015 7
  22136375.938    22136380.611   -32035885.897 9  32209516.146 8
 88  3 25  4  4 59.0800000  0  4G 6G 8G11G 9
  20450412.114    20450415.149    -9262034.963 8  -8941756.913 9
  20635579.925    20635583.802    -3547937.984 8  -4518626.631 8
  21022802.677    21022809.069   -17576433.830 8 -15038315.415 7
  22120166.425    22120172.017   -32121060.338 8  32143146.480 9
 88  3 25  4  5 29.0800000  0  4G 6G 8G11G 9
  20446283.292    20446288.491    -9283723.136 8  -8958656.774 8
  20644443.485    20644447.879    -3501359.091 8  -4482331.380 8
  21013992.821    21013998.353   -17622735.249 8 -15074394.436 8
  22103987.659    22103992.281   -32206088.001 9  32076891.206 9
 88  3 25  4  5 59.0800000  0  4G 6G 8G11G 9
  20442234.867    20442239.328    -9304999.135 7  -8975235.474 8
  20653414.686    20653418.690    -3454213.938 9  -4445594.892 8
  21005279.772    21005286.163   -17668515.288 9 -15110067.162 8
  22087834.977    22087839.567   -32290968.952 8  32010750.225 8
 88  3 25  4  6 29.0800000  0  4G 6G 8G11G 9
  20438265.811    20438271.574    -9325859.273 9  -8991490.121 9
  20662494.126    20662499.596    -3406503.141 8  -4408417.650 8
  20996668.727    20996674.440   -17713771.311 8 -15145331.576 7
  22071711.559    22071716.055   -32375698.912 8  31944726.913 8
 88  3 25  4  6 59.0800000  0  4G 6G 8G11G 9
  20434376.057    20434380.221    -9346300.543 9  -9007418.372 8
  20671680.228    20671684.186    -3358228.825 8  -4370801.294 8
  20988156.148    20988162.083   -17758502.320 8 -15180186.896 7
  22055617.184    22055621.345   -32460275.135 9  31878823.400 8
 88  3 25  4  7 29.0800000  0  4G 6G 8G11G 9
  20430564.669    20430570.699    -9366321.416 9  -9023019.051 8
  20680972.723    20680977.428    -3309394.366 7  -4332748.468 8
  20979743.727    20979749.649   -17802707.842 8 -15214632.728 7
  22039550.737    22039558.206   -32544695.042 9  31813041.693 7
 88  3 25  4  7 59.0800000  0  4G 6G 8G11G 9
  20426836.731    20426841.134    -9385920.573 9  -9038291.121 9
  20690372.429    20690377.086    -3260003.126 8  -4294261.791 8
  20971432.119    20971438.792   -17846388.050 8 -15248669.223 8
  22023517.327    22023522.358   -32628957.314 9  31747382.795 8
 88  3 25  4  8 29.0800000  0  4G 6G 8G11G 9
  20423187.752    20423192.681    -9405094.147 8  -9053231.566 8
  20699876.386    20699881.033    -3210055.650 9  -4255341.680 8
  20963220.786    20963226.488   -17889540.570 7 -15282294.551 8
  22007513.586    22007519.118   -32713057.544 9  31681850.192 8
 88  3 25  4  8 59.0800000  0  4G 6G 8G11G 9
  20419619.803    20419624.992    -9423839.285 8  -9067838.157 8
  20709486.607    20709492.312    -3159554.125 9  -4215989.830 7
  20955110.355    20955114.662   -17932163.731 8 -15315507.391 7
  21991541.273    21991546.304   -32796992.723 9  31616446.175 8
 88  3 25  4  9 29.0800000  0  4G 6G 8G11G 9
  20416135.637    20416139.283    -9442156.438 8  -9082111.264 8
  20719201.801    20719206.056    -3108503.613 8  -4176210.224 8
  20947098.919    20947105.091   -17974259.446 8 -15348309.229 7
  21975599.746    21975605.097   -32880762.417 9  31551171.134 7
 88  3 25  4  9 59.0800000  0  4G 6G 8G11G 9
  20412732.271    20412736.415    -9460042.887 9  -9096048.756 8
  20729020.393    20729024.911    -3056906.266 8  -4136004.485 8
  20939189.698    20939194.213   -18015826.828 8 -15380699.372 8
  21959691.315    21959696.859   -32964363.764 9  31486027.249 9
 88  3 25  4 10 29.0800000  0  3G 6G11G 9
  20409410.360    20409414.404    -9477496.848 8  -9109649.246 7
  20931379.111    20931384.801   -18056865.576 9 -15412677.614 7
  21943814.732    21943819.993   -33047794.460 9  31421016.352 8
 88  3 25  4 10 59.0800000  0  4G 6G13G11G 9
  20406169.972    20406175.298    -9494515.840 9  -9122910.804 8
  23948488.720    23948494.764   -38748596.999 8  49159660.987 8
  20923670.803    20923676.675   -18097374.515 9 -15444243.007 6
  21927971.564    21927977.733   -33131051.689 9  31356140.609 8
 88  3 25  4 11 29.0800000  0  4G 6G13G11G 9
  20403016.149    20403020.808    -9511096.909 8  -9135831.113 8
  23927611.397    23927617.241   -38858306.678 8  49074172.999 6
  20916063.055    20916069.151   -18137352.306 9 -15475394.504 7
  21912162.024    21912166.685   -33214131.761 9  31291402.925 8
 88  3 25  4 11 59.0800000  0  4G 6G13G11G 9
  20399944.436    20399949.435    -9527237.956 9  -9148408.538 8
  23906774.617    23906781.111   -38967800.271 8  48988853.386 8
  20908556.364    20908562.200   -18176798.459 8 -15506131.765 7
  21896386.470    21896392.860   -33297032.227 8  31226805.191 9
 88  3 25  4 12 29.0800000  0  4G 6G13G11G 9
  20396956.848    20396961.238    -9542938.580 9  -9160642.810 8
  23885980.239    23885985.985   -39077077.683 7  48903702.238 7
  20901151.320    20901157.591   -18215714.227 8 -15536455.709 7
  21880646.266    21880651.394   -33379752.017 9  31162348.232 8
 88  3 25  4 12 59.0800000  0  4G 6G13G11G 9
  20394053.555    20394058.050    -9558196.985 8  -9172532.476 8
  23865225.719    23865234.606   -39186136.335 8  48818721.506 7
  20893846.856    20893852.217   -18254099.266 8 -15566366.129 7
  21864939.065    21864943.756   -33462288.936 8  31098033.790 8
 88  3 25  4 13 29.0800000  0  4G 6G13G11G 9
  20391234.485    20391238.596    -9573010.067 9  -9184075.139 8
  23844517.073    23844522.691   -39294973.015 9  48733913.755 7
  20886642.778    20886649.393   -18291952.360 8 -15595862.020 7
  21849269.189    21849274.465   -33544639.082 9  31033864.861 7
 88  3 25  4 13 59.0800000  0  4G 6G13G11G 9
  20388501.182    20388505.009    -9587375.151 9  -9195268.706 8
  23823847.746    23823854.648   -39403584.719 9  48649281.314 7
  20879542.622    20879547.454   -18329271.858 8 -15624942.125 7
  21833634.201    21833639.049   -33626799.320 9  30969843.932 9
 88  3 25  4 14 29.0800000  0  4G 6G13G11G 9
  20385851.964    20385857.850    -9601290.721 8  -9206112.006 7
  23803221.657    23803229.991   -39511969.424 8  48564825.734 6
  20872541.148    20872547.900   -18366057.889 8 -15653606.561 6
  21818035.998    21818040.645   -33708767.454 9  30905972.692 8
 88  3 25  4 14 59.0800000  0  4G 6G13G11G 9
  20383291.062    20383295.265    -9614756.671 8  -9216604.953 9
  23782641.024    23782649.469   -39620126.735 9  48480547.361 7
  20865643.119    20865647.115   -18402312.378 7 -15681856.774 6
  21802473.903    21802479.810   -33790542.803 9  30842251.676 8
 88  3 25  4 15 29.0800000  0  4G 6G13G11G 9
  20380815.395    20380819.396    -9627770.399 8  -9226745.523 9
  23762102.691    23762110.037   -39728053.393 9  48396448.700 8
  20858844.469    20858851.555   -18438034.471 7 -15709692.167 6
  21786950.899    21786955.373   -33872122.039 9  30778683.467 8
 88  3 25  4 15 59.0800000  0  4G 6G13G11G 9
  20378424.169    20378428.984    -9640328.131 8  -9236530.765 8
  23741610.191    23741617.013   -39835746.022 9  48312532.412 9
  20852148.738    20852154.136   -18473221.915 7 -15737110.937 7
  21771464.571    21771469.937   -33953500.720 9  30715271.537 8
 88  3 25  4 16 29.0800000  0  4G 6G13G11G 9
  20376121.772    20376126.827    -9652428.062 8  -9245959.288 8
  23721161.728    23721168.073   -39943201.860 9  48228800.616 7
  20845554.424    20845560.464   -18507874.225 7 -15764112.716 7
  21756017.736    21756021.847   -34034676.505 9  30652017.708 8
 88  3 25  4 16 59.0800000  0  4G 6G13G11G 9
  20373906.251    20373910.481    -9664069.499 8  -9255030.550 8
  23700759.513    23700765.225   -40050419.708 9  48145254.288 8
  20839061.807    20839068.398   -18541992.325 8 -15790698.228 6
  21740609.530    21740614.110   -34115647.601 9  30588923.375 8
 88  3 25  4 17 29.0800000  0  4G 6G13G11G 9
  20371778.971    20371783.019    -9675251.614 8  -9263743.871 8
  23680402.343    23680408.424   -40157398.522 9  48061894.224 8
  20832671.335    20832677.857   -18575577.325 7 -15816868.348 6
  21725239.481    21725244.206   -34196412.547 8  30525989.669 9
 88  3 25  4 17 59.0800000  0  4G 6G13G11G 9
  20369738.293    20369743.154    -9685971.209 9  -9272096.823 8
  23660089.987    23660097.287   -40264134.377 8  47978723.468 8
  20826380.747    20826388.337   -18608627.749 7 -15842621.887 7
  21709911.488    21709915.702   -34276967.686 9  30463219.473 8
 88  3 25  4 18 29.0800000  0  4G 6G13G11G 9
  20367786.882    20367792.546    -9696224.065 9  -9280086.057 9
  23639826.013    23639833.170   -40370622.699 9  47895745.603 8
  20820195.778    20820201.693   -18641141.017 8 -15867956.901 6
  21694623.776    21694628.418   -34357307.730 8  30400616.871 7
 88  3 25  4 18 59.0800000  0  4G 6G13G11G 9
  20365926.014    20365929.755    -9706010.165 8  -9287711.583 7
  23619609.431    23619616.399   -40476863.793 8  47812960.400 8
  20814109.888    20814115.935   -18673118.665 7 -15892874.536 6
  21679375.399    21679380.818   -34437432.003 9  30338182.412 8
 88  3 25  4 19 29.0800000  0  4G 6G13G11G 9
  20364151.605    20364156.650    -9715329.818 8  -9294973.657 8
  23599439.482    23599446.454   -40582857.250 9  47730368.151 8
  20808125.899    20808131.746   -18704562.747 8 -15917376.397 7
  21664169.388    21664173.925   -34517339.691 9  30275916.688 8
 88  3 25  4 19 59.0800000  0  4G 6G13G11G 9
  20362467.985    20362472.728    -9724179.958 8  -9301869.871 6
  23579316.617    23579323.362   -40688599.517 8  47647971.630 8
  20802243.741    20802251.205   -18735472.054 8 -15941461.565 7
  21649004.964    21649010.312   -34597027.304 9  30213822.495 8
 88  3 25  4 20 29.0800000  0  4G 6G13G11G 9
  20360875.058    20360878.157    -9732558.547 9  -9308398.655 7
  23559244.466    23559250.141   -40794088.228 8  47565772.696 8
  20796465.244    20796470.596   -18765846.248 8 -15965129.727 7
  21633884.043    21633888.586   -34676491.919 8  30151902.033 8
 88  3 25  4 20 59.0800000  0  4G 6G13G11G 9
  20359369.672    20359373.816    -9740463.924 9  -9314558.681 8
  23539217.329    23539224.101   -40899320.885 8  47483773.269 8
  20790786.066    20790792.755   -18795685.513 8 -15988381.093 8
  21618805.394    21618810.503   -34755730.641 9  30090157.608 8
 88  3 25  4 21 29.0800000  0  4G 6G13G11G 9
  20357954.935    20357960.759    -9747893.155 9  -9320347.688 7
  23519243.154    23519248.331   -41004293.827 9  47401976.215 8
  20785209.956    20785216.198   -18824988.535 7 -16011214.604 7
  21603769.466    21603774.937   -34834740.212 8  30028591.741 8
 88  3 25  4 21 59.0800000  0  4G 6G13G11G 9
  20356632.805    20356637.151    -9754843.714 9  -9325763.713 7
  23499316.891    23499323.301   -41109004.688 8  47320383.357 8
  20779736.294    20779741.958   -18853754.665 7 -16033629.741 6
  21588778.616    21588784.627   -34913516.491 9  29967207.637 9
 88  3 25  4 22 29.0800000  0  4G 6G13G11G 9
  20355401.785    20355406.401    -9761315.322 9  -9330806.536 7
  23479441.057    23479448.285   -41213452.888 9  47238995.194 8
  20774363.838    20774369.966   -18881985.222 8 -16055627.564 7
  21573832.651    21573838.150   -34992058.547 9  29906006.051 7
 88  3 25  4 22 59.0800000  0  4G 6G13G11G 9
  20354261.287    20354264.651    -9767306.679 9  -9335475.129 8
  23459614.849    23459621.921   -41317636.873 9  47157812.901 7
  20769095.054    20769098.713   -18909680.675 9 -16077208.422 7
  21558932.774    21558936.654   -35070364.055 9  29844988.795 8
 88  3 25  4 23 29.0800000  0  4G 6G13G11G 9
  20353213.235    20353217.055    -9772814.742 8  -9339767.118 7
  23439840.035    23439845.708   -41421552.680 8  47076839.582 8
  20763926.097    20763930.460   -18936839.740 8 -16098371.311 6
  21544077.723    21544082.280   -35148429.121 9  29784158.890 8
 88  3 25  4 23 59.0800000  0  4G 6G13G11G 9
  20352257.224    20352262.492    -9777838.357 8  -9343681.617 8
  23420117.249    23420124.098   -41525198.562 9  46996076.576 7
  20758859.117    20758865.677   -18963463.170 8 -16119116.843 8
  21529267.943    21529273.057   -35226251.482 8  29723518.125 8
 88  3 25  4 24 29.0800000  0  4G 6G13G11G 9
  20351393.499    20351398.856    -9782376.639 7  -9347217.960 7
  23400445.902    23400452.232   -41628572.682 9  46915525.337 8
  20753894.649    20753901.459   -18989551.651 8 -16139445.506 6
  21514505.067    21514510.539   -35303828.964 9  29663068.158 8
 88  3 25  4 24 59.0800000  0  4G 6G13G11G 9
  20350622.013    20350627.369    -9786427.615 8  -9350374.568 8
  23380826.414    23380832.675   -41731673.689 9  46835186.935 7
  20749031.947    20749038.390   -19015105.458 8 -16159357.549 8
  21499788.849    21499795.327   -35381159.114 9  29602810.908 8
 88  3 25  4 25 29.0800000  0  4G 6G13G11G 9
  20349945.230    20349949.572    -9789989.840 8  -9353150.322 7
  23361259.494    23361265.364   -41834499.248 9  46755063.157 8
  20744270.522    20744276.917   -19040124.815 8 -16178853.125 8
  21485121.069    21485127.042   -35458239.000 9  29542748.702 8
 88  3 25  4 25 59.0800000  0  4G 6G13G11G 9
  20349360.254    20349365.810    -9793059.513 8  -9355542.287 8
  23341744.524    23341751.907   -41937045.427 8  46675157.082 8
  20739611.526    20739617.184   -19064607.460 8 -16197930.501 7
  21470502.640    21470509.714   -35535063.740 9  29482885.281 8
 88  3 25  4 26 29.0800000  0  4G 6G13G11G 9
  20348870.373    20348874.756    -9795634.670 8  -9357548.901 7
  23322284.406    23322291.292   -42039309.316 8  46595470.967 7
  20735055.570    20735060.634   -19088553.357 9 -16216589.615 8
  21455932.838    21455937.863   -35611630.367 8  29423223.011 8
 88  3 25  4 26 59.0800000  0  4G 6G13G11G 9
  20348474.411    20348478.842    -9797715.759 8  -9359170.532 7
  23302878.843    23302884.375   -42141291.267 8  46516004.562 8
  20730599.996    20730606.035   -19111965.049 9 -16234832.485 8
  21441412.136    21441417.533   -35687938.308 8  29363762.299 8
 88  3 25  4 27 29.0800000  0  4G 6G13G11G 9
  20348172.293    20348176.668    -9799302.678 9  -9360407.098 7
  23283524.230    23283531.633   -42242990.185 8  46436758.681 9
  20726247.153    20726252.707   -19134844.191 9 -16252660.372 7
  21426940.620    21426945.117   -35763985.963 9  29304504.415 8
 88  3 25  4 27 59.0800000  0  4G 6G13G11G 9
  20347964.688    20347970.122    -9800392.875 8  -9361256.615 8
  23264227.494    23264233.679   -42344403.177 9  46357735.621 8
  20721994.948    20721999.871   -19157190.130 8 -16270072.772 7
  21412518.929    21412524.544   -35839769.681 9  29245452.185 8
 88  3 25  4 28 29.0800000  0  4G 6G13G11G 9
  20347852.428    20347856.818    -9800982.987 8  -9361716.445 7
  23244984.987    23244990.769   -42445526.092 8  46278938.591 8
  20717843.309    20717850.055   -19179001.023 8 -16287068.268 8
  21398149.038    21398155.204   -35915285.141 9  29186608.999 8
 88  3 25  4 28 59.0800000  0  4G 6G13G11G 9
  20347835.006    20347840.706    -9801072.641 8  -9361786.318 8
  23225795.771    23225804.339   -42546358.355 9  46200368.028 9
  20713794.924    20713801.688   -19200278.988 9 -16303648.477 7
  21383829.713    21383835.624   -35990530.604 9  29127976.192 8
 88  3 25  4 29 29.0800000  0  4G 6G13G11G 9
  20347914.523    20347918.201    -9800661.695 8  -9361466.101 8
  23206664.590    23206671.077   -42646899.466 8  46122024.341 9
  20709847.015    20709852.660   -19221025.348 9 -16319814.467 8
  21369562.742    21369568.080   -36065504.465 9  29069555.018 8
 88  3 25  4 29 59.0800000  0  4G 6G13G11G 9
  20348088.074    20348092.565    -9799745.980 8  -9360752.566 7
  23187588.992    23187595.522   -42747144.737 9  46043911.189 8
  20706001.335    20706006.253   -19241237.674 7 -16335564.311 7
  21355348.266    21355353.614   -36140201.648 8  29011349.442 7
 88  3 25  4 30 29.0800000  0  4G 6G13G11G 9
  20348358.920    20348365.846    -9798322.706 9  -9359643.534 7
  23168569.351    23168575.412   -42847090.373 9  45966031.499 9
  20702255.904    20702261.965   -19260914.883 9 -16350897.193 8
  21341187.832    21341193.169   -36214617.831 9  28953362.837 7
 88  3 25  4 30 59.0800000  0  4G 6G13G11G 9
  20348724.906    20348730.412    -9796392.464 9  -9358139.455 7
  23149606.826    23149613.002   -42946736.602 9  45888385.110 8
  20698612.682    20698618.156   -19280059.948 8 -16365815.403 8
  21327081.319    21327085.221   -36288752.000 9  28895595.952 8
 88  3 25  4 31 29.0800000  0  4G 6G13G11G 9
  20349190.189    20349194.378    -9793955.615 8  -9356240.605 7
  23130702.480    23130708.041   -43046082.961 9  45810972.375 8
  20695070.687    20695076.522   -19298674.824 8 -16380320.483 7
  21313027.377    21313031.763   -36362603.777 9  28838049.127 8
 88  3 25  4 31 59.0800000  0  4G 6G13G11G 9
  20349750.404    20349755.196    -9791008.985 7  -9353944.542 8
  23111854.540    23111861.381   -43145126.424 9  45733795.687 8
  20691629.661    20691635.974   -19316758.336 9 -16394411.514 7
  21299028.575    21299032.498   -36436168.436 9  28780726.037 8
 88  3 25  4 32 29.0800000  0  4G 6G13G11G 9
  20350408.712    20350412.806    -9787550.294 8  -9351249.458 7
  23093065.418    23093071.665   -43243863.437 9  45656857.768 8
  20688289.035    20688295.789   -19334310.163 8 -16408088.245 8
  21285084.562    21285089.475   -36509442.032 9  28723629.752 8
 88  3 25  4 32 59.0800000  0  4G 6G13G11G 9
  20351164.382    20351169.640    -9783578.905 8  -9348154.879 8
  23074335.753    23074341.316   -43342292.758 9  45580159.618 8
  20685050.321    20685056.763   -19351331.098 8 -16421351.298 7
  21271197.085    21271201.927   -36582422.555 9  28666761.824 8
 88  3 25  4 33 29.0800000  0  4G 6G13G11G 9
  20352018.451    20352022.844    -9779093.582 9  -9344659.833 8
  23055664.088    23055668.839   -43440413.153 9  45503702.183 8
  20681912.106    20681917.756   -19367822.419 8 -16434201.671 7
  21257364.756    21257370.375   -36655107.752 9  28610124.010 7
 88  3 25  4 33 59.0800000  0  4G 6G13G11G 9
  20352968.870    20352973.670    -9774092.814 9  -9340763.129 7
  23037050.617    23037057.622   -43538222.134 9  45427487.406 8
  20678876.126    20678881.983   -19383784.442 8 -16446639.592 7
  21243590.851    21243595.678   -36727494.663 8  28553718.637 8
 88  3 25  4 34 29.0800000  0  4G 6G13G11G 9
  20354020.619    20354023.609    -9768575.110 8  -9336463.612 7
  23018498.025    23018504.461   -43635717.870 9  45351516.735 8
  20675937.635    20675944.704   -19399217.317 9 -16458665.199 7
  21229873.724    21229877.885   -36799579.823 9  28497548.403 8
 88  3 25  4 34 59.0800000  0  4G 6G13G11G 9
  20355168.265    20355172.266    -9762540.012 9  -9331760.958 7
  23000004.836    23000010.654   -43732899.464 9  45275790.834 8
  20673101.446    20673107.043   -19414122.655 8 -16470279.732 8
  21216212.661    21216218.939   -36871361.687 9  28441614.499 7
 88  3 25  4 35 29.0800000  0  4G 6G13G11G 9
  20356415.493    20356419.504    -9755985.561 8  -9326653.591 7
  22981572.156    22981580.684   -43829763.247 8  45200312.569 8
  20670365.602    20670371.370   -19428500.242 8 -16481483.021 7
  21202611.441    21202617.060   -36942836.771 9  28385919.635 8
 88  3 25  4 35 59.0800000  0  4G 6G13G11G 9
  20357761.285    20357767.140    -9748909.728 8  -9321139.952 7
  22963200.729    22963205.678   -43926307.414 9  45125083.372 7
  20667729.098    20667736.675   -19442350.038 8 -16492275.057 7
  21189071.442    21189073.210   -37014001.258 9  28330466.822 8
 88  3 25  4 36 29.0800000  0  4G 6G13G11G 9
  20359208.695    20359211.682    -9741309.741 8  -9315217.892 8
  22944890.424    22944897.467   -44022528.743 8  45050105.752 7
  20665194.779    20665201.794   -19455671.558 8 -16502655.445 7
  21175588.600    21175592.098   -37084850.997 9  28275259.235 7
 88  3 25  4 36 59.0800000  0  4G 6G13G11G 9
  20360753.002    20360757.165    -9733186.943 8  -9308888.451 7
  22926641.885    22926647.643   -44118427.882 8  44975379.170 8
  20662760.535    20662766.564   -19468467.684 8 -16512626.435 7
  21162165.418    21162171.008   -37155385.648 9  28220297.182 7
 88  3 25  4 37 29.0800000  0  4G 6G13G11G 9
  20362398.832    20362403.794    -9724541.171 8  -9302151.487 6
  22908454.152    22908459.836   -44214004.023 9  44900904.282 8
  20660425.615    20660431.072   -19480740.267 8 -16522189.493 8
  21148804.468    21148808.476   -37225603.683 8  28165581.843 7
 88  3 25  4 37 59.0800000  0  4G 6G13G11G 9
  20364144.452    20364148.796    -9715369.114 8  -9295004.452 7
  22890329.127    22890335.515   -44309252.773 9  44826684.496 8
  20658188.717    20658193.849   -19492487.602 8 -16531343.252 7
  21135502.731    21135507.650   -37295499.833 9  28111117.336 7
 88  3 25  4 38 29.0800000  0  4G 6G13G11G 9
  20365990.075    20365995.369    -9705667.979 8  -9287445.113 7
  22872266.288    22872273.147   -44404170.485 8  44752722.676 8
  20656053.914    20656058.827   -19503709.350 8 -16540087.445 7
  21122263.327    21122268.443   -37365069.937 8  28056906.891 8
 88  3 25  4 38 59.0800000  0  4G 6G13G11G 9
  20367937.560    20367940.994    -9695438.947 8  -9279474.436 7
  22854266.755    22854273.798   -44498757.833 9  44679018.277 8
  20654018.136    20654024.099   -19514408.705 8 -16548424.591 7
  21109087.094    21109091.496   -37434313.108 9  28002951.188 8
 88  3 25  4 39 29.0800000  0  4G 6G13G11G 9
  20369983.312    20369988.068    -9684680.725 9  -9271091.431 8
  22836330.451    22836337.580   -44593012.935 9  44605572.778 8
  20652081.378    20652086.209   -19524586.054 9 -16556354.982 8
  21095974.034    21095976.845   -37503227.327 9  27949251.815 7
 88  3 25  4 39 59.0800000  0  4G 6G13G11G 9
  20372131.997    20372136.266    -9673390.460 8  -9262293.826 8
  22818458.991    22818465.067   -44686932.896 9  44532388.401 9
  20650244.707    20650249.929   -19534240.398 9 -16563877.830 7
  21082923.768    21082927.902   -37571806.929 9  27895813.178 7
 88  3 25  4 40 29.0800000  0  4G 6G13G11G 9
  20374383.101    20374387.466    -9661569.035 8  -9253082.328 7
  22800650.815    22800656.298   -44780517.288 9  44459465.516 8
  20648505.763    20648511.764   -19543374.403 9 -16570995.237 8
  21069936.878    21069941.076   -37640051.510 9  27842635.602 7
 88  3 25  4 40 59.0800000  0  4G 6G13G11G 9
  20376733.056    20376736.353    -9649215.295 8  -9243456.053 7
  22782905.205    22782911.904   -44873764.180 9  44386805.622 8
  20646866.347    20646872.686   -19551988.879 9 -16577707.788 8
  21057014.022    21057018.148   -37707958.380 8  27789721.172 7
 88  3 25  4 41 29.0800000  0  4G 6G13G11G 9
  20379185.686    20379189.852    -9636326.781 8  -9233413.067 7
  22765225.903    22765233.343   -44966670.269 9  44314411.299 8
  20645325.886    20645331.498   -19560083.797 8 -16584015.508 7
  21044157.064    21044160.729   -37775522.966 9  27737073.460 8
 88  3 25  4 41 59.0800000  0  4G 6G13G11G 9
  20381740.828    20381745.336    -9622902.858 9  -9222952.882 7
  22747612.274    22747618.659   -45059234.812 9  44242283.112 8
  20643884.961    20643890.125   -19567660.247 9 -16589919.227 8
  21031365.843    21031370.742   -37842743.090 9  27684694.158 7
 88  3 25  4 42 29.0800000  0  4G 6G13G11G 9
  20384396.855    20384401.004    -9608943.823 8  -9212075.719 7
  22730062.969    22730068.962   -45151457.160 9  44170421.556 8
  20642540.654    20642546.965   -19574720.228 9 -16595420.494 7
  21018640.443    21018645.138   -37909617.019 8  27632584.618 8
 88  3 25  4 42 59.0800000  0  4G 6G13G11G 9
  20387154.186    20387158.986    -9594447.973 8  -9200780.252 8
  22712578.607    22712585.281   -45243334.641 9  44098828.745 8
  20641295.354    20641300.868   -19581263.967 8 -16600519.500 8
  21005980.510    21005985.594   -37976141.428 8  27580747.433 8
 88  3 25  4 43 29.0800000  0  4G 6G13G11G 9
  20390015.982    20390020.551    -9579413.695 8  -9189065.236 7
  22695159.417    22695167.101   -45334865.209 8  44027506.254 8
  20640148.836    20640154.485   -19587291.855 8 -16605216.545 8
  20993389.411    20993394.534   -38042312.670 9  27529185.436 8
 88  3 25  4 43 59.0800000  0  4G 6G13G11G 9
  20392980.243    20392983.944    -9563840.199 8  -9176930.062 6
  22677809.193    22677816.010   -45426047.288 9  43956455.302 8
  20639098.322    20639104.787   -19592804.921 8 -16609512.434 8
  20980864.489    20980869.202   -38108128.221 9  27477900.607 8
 88  3 25  4 44 29.0800000  0  4G 6G13G11G 9
  20396047.313    20396051.426    -9547723.256 9  -9164371.415 7
  22660524.435    22660532.005   -45516875.648 8  43885679.999 8
  20638148.714    20638153.646   -19597801.294 8 -16613405.689 8
  20968409.075    20968413.469   -38173581.871 8  27426897.770 7
 88  3 25  4 44 59.0800000  0  4G 6G13G11G 9
  20399215.552    20399221.366    -9531064.789 9  -9151390.800 8
  22643308.408    22643314.235   -45607351.196 8  43815179.593 8
  20637295.843    20637300.821   -19602284.422 8 -16616899.027 8
  20956022.512    20956027.813   -38238673.765 9  27376176.826 8
 88  3 25  4 45 29.0800000  0  4G 6G13G11G 9
  20402488.832    20402493.552    -9513864.214 8  -9137987.770 7
  22626158.875    22626165.051   -45697472.837 8  43744954.963 8
  20636539.547    20636545.060   -19606255.577 8 -16619993.410 8
  20943705.865    20943709.363   -38303401.085 8  27325739.967 8
 88  3 25  4 45 59.0800000  0  4G 6G13G11G 9
  20405865.922    20405870.489    -9496122.913 8  -9124163.388 8
  22609076.502    22609083.419   -45787241.368 9  43675005.479 8
  20635881.615    20635887.283   -19609718.458 9 -16622691.753 8
  20931457.597    20931463.250   -38367763.638 9  27275587.337 7
 88  3 25  4 46 29.0800000  0  4G 6G13G11G 9
  20409344.785    20409349.108    -9477839.089 9  -9109916.280 7
  22592061.387    22592067.952   -45876654.260 8  43605333.142 7
  20635317.662    20635324.897   -19612673.210 8 -16624994.140 8
  20919279.328    20919285.057   -38431757.410 8  27225722.078 7
 88  3 25  4 46 59.0800000  0  4G 6G13G11G 9
  20412927.936    20412933.646    -9459008.647 8  -9095243.213 7
  22575114.942    22575123.104   -45965706.768 9  43535941.595 8
  20634852.941    20634858.562   -19615116.978 8 -16626898.366 7
  20907173.225    20907178.785   -38495376.230 9  27176148.983 8
 88  3 25  4 47 29.0800000  0  4G 6G13G11G 9
  20416615.961    20416620.189    -9439630.167 8  -9080143.104 8
  22558238.912    22558243.992   -46054396.136 9  43466833.017 8
  20634485.046    20634491.288   -19617050.694 9 -16628405.130 8
  20895139.804    20895143.951   -38558616.947 9  27126870.522 7
 88  3 25  4 47 59.0800000  0  4G 6G13G11G 9
  20420407.476    20420411.336    -9419704.765 9  -9064616.813 7
  22541431.575    22541437.084   -46142722.400 9  43398007.383 8
  20634212.472    20634220.154   -19618477.532 8 -16629516.954 8
  20883176.989    20883181.705   -38621478.476 9  27077887.521 7
 88  3 25  4 48 29.0800000  0  4G 6G13G11G 9
  20424303.105    20424308.736    -9399232.239 9  -9048664.227 7
  22524691.981    22524698.283   -46230685.213 9  43329464.947 8
  20634037.557    20634043.829   -19619399.102 8 -16630235.055 7
  20871288.225    20871292.577   -38683958.397 9  27029201.877 8
 88  3 25  4 48 59.0800000  0  4G 6G13G11G 9
  20428302.488    20428308.347    -9378214.619 9  -9032286.876 6
  22508022.453    22508028.434   -46318285.722 9  43261204.834 7
  20633958.841    20633965.022   -19619819.023 9 -16630562.255 7
  20859470.620    20859474.453   -38746056.837 9  26980813.492 8
 88  3 25  4 49 29.0800000  0  4G 6G13G11G 9
  20432407.542    20432412.813    -9356648.053 8  -9015481.768 7
  22491422.313    22491428.976   -46405518.929 8  43193230.924 8
  20633973.726    20633981.080   -19619735.722 8 -16630497.328 8
  20847728.077    20847730.879   -38807767.800 9  26932727.043 8
 88  3 25  4 49 59.0800000  0  4G 6G13G11G 9
  20436616.436    20436621.433    -9334528.915 9  -8998246.084 8
  22474892.120    22474898.957   -46492380.820 9  43125546.358 8
  20634087.018    20634091.962   -19619147.381 9 -16630038.867 8
  20836058.712    20836065.099   -38869085.648 8  26884946.900 7
 88  3 25  4 50 29.0800000  0  4G 6G13G11G 9
  20440931.007    20440932.997    -9311859.735 9  -8980581.798 7
  22458433.578    22458439.757   -46578872.742 9  43058150.067 9
  20634293.504    20634300.315   -19618058.602 8 -16629190.460 7
  20824465.052    20824469.939   -38930010.646 8  26837472.882 8
 88  3 25  4 50 59.0800000  0  4G 6G13G11G 9
  20445349.333    20445353.450    -9288639.837 9  -8962488.388 6
  22442045.738    22442052.039   -46664993.307 9  42991043.152 8
  20634595.813    20634601.426   -19616470.422 8 -16627952.912 7
  20812946.897    20812952.430   -38990540.148 9  26790307.052 8
 88  3 25  4 51 29.0800000  0  4G 6G13G11G 9
  20449871.782    20449876.619    -9264866.955 9  -8943964.065 7
  22425729.630    22425735.874   -46750738.328 9  42924228.871 8
  20634992.922    20634999.299   -19614382.185 8 -16626325.703 8
  20801504.619    20801510.265   -39050669.408 9  26743453.083 7
 88  3 25  4 51 59.0800000  0  4G 6G13G11G 9
  20454501.816    20454506.170    -9240540.801 8  -8925008.634 7
  22409484.212    22409490.185   -46836107.520 9  42857707.441 9
  20635485.025    20635490.815   -19611795.595 8 -16624310.175 8
  20790139.879    20790144.885   -39110396.043 9  26696912.867 7
 88  3 25  4 52 29.0800000  0  4G 6G13G11G 9
  20459236.143    20459241.565    -9215663.893 9  -8905624.018 8
  22393309.391    22393316.184   -46921102.890 8  42791477.314 9
  20636072.126    20636078.011   -19608715.109 8 -16621909.791 8
  20778850.221    20778855.838   -39169720.328 9  26650686.156 8
 88  3 25  4 52 59.0800000  0  4G 6G13G11G 9
  20464074.605    20464079.650    -9190234.896 9  -8885809.243 7
  22377207.511    22377213.095   -47005721.723 9  42725540.575 8
  20636752.090    20636758.303   -19605141.479 8 -16619125.132 7
  20767638.692    20767642.086   -39228639.011 8  26604775.504 8
 88  3 25  4 53 29.0800000  0  4G 6G13G11G 9
  20469018.862    20469024.237    -9164249.488 9  -8865560.893 7
  22361176.551    22361183.508   -47089959.110 8  42659901.079 7
  20637525.368    20637531.073   -19601072.051 8 -16615954.143 7
  20756505.366    20756510.142   -39287145.184 9  26559186.292 8
 88  3 25  4 53 59.0800000  0  4G 6G13G11G 9
  20474069.880    20474074.159    -9137707.792 8  -8844879.045 6
  22345220.682    22345226.114   -47173813.760 9  42594559.813 7
  20638394.509    20638399.473   -19596508.745 9 -16612398.306 7
  20745451.547    20745456.108   -39345236.614 9  26513920.264 7
 88  3 25  4 54 29.0800000  0  4G 6G13G11G 9
  20479227.300    20479230.416    -9110612.327 8  -8823765.711 8
  22329335.753    22329341.749   -47257287.602 9  42529515.280 8
  20639355.973    20639361.505   -19591455.951 8 -16608461.064 7
  20734474.942    20734480.759   -39402913.674 8  26468977.108 8
 88  3 25  4 54 59.0800000  0  4G 6G13G11G 9
  20484487.662    20484491.919    -9082962.678 8  -8802220.552 8
  22313523.964    22313530.246   -47340379.161 9  42464768.629 7
  20640409.562    20640415.336   -19585915.107 7 -16604143.515 8
  20723577.819    20723583.313   -39460173.636 9  26424358.952 8
 88  3 25  4 55 29.0800000  0  4G 6G13G11G 9
  20489855.269    20489858.639    -9054756.347 8  -8780241.612 7
  22297785.335    22297790.856   -47423085.095 8  42400322.474 8
  20641558.378    20641563.697   -19579885.687 8 -16599445.254 8
  20712762.682    20712768.196   -39517011.724 9  26380069.554 7
 88  3 25  4 55 59.0800000  0  4G 6G13G11G 9
  20495328.603    20495333.503    -9025991.374 8  -8757827.349 7
  22282120.753    22282125.902   -47505402.750 8  42336178.867 8
  20642797.533    20642804.186   -19573367.548 8 -16594366.175 8
  20702027.815    20702033.269   -39573423.529 9  26336112.309 8
 88  3 25  4 56 29.0800000  0  4G 6G13G11G 9
  20500908.633    20500913.087    -8996669.674 9  -8734979.283 8
  22266530.611    22266536.506   -47587332.803 9  42272337.276 8
  20644129.973    20644135.762   -19566364.154 8 -16588908.988 7
  20691374.263    20691379.988   -39629408.705 9  26292487.515 8
 88  3 25  4 56 59.0800000  0  4G 6G13G11G 9
  20506595.224    20506598.318    -8966791.428 8  -8711697.548 7
  22251013.322    22251018.954   -47668874.353 8  42208798.426 7
  20645554.504    20645561.264   -19558877.563 8 -16583075.264 7
  20680802.487    20680807.096   -39684964.889 9  26249196.992 9
 88  3 25  4 57 29.0800000  0  4G 6G13G11G 9
  20512386.449    20512389.673    -8936353.551 9  -8687979.718 7
  22235571.128    22235577.532   -47750023.428 9  42145565.394 8
  20647072.891    20647078.467   -19550906.926 9 -16576864.379 7
  20670313.452    20670318.420   -39740087.019 9  26206244.687 8
 88  3 25  4 57 59.0800000  0  4G 6G13G11G 9
  20518285.510    20518290.331    -8905356.356 9  -8663826.086 7
  22220203.905    22220209.448   -47830779.516 9  42082638.601 8
  20648680.413    20648686.633   -19542454.037 8 -16570277.685 8
  20659906.213    20659911.561   -39794772.472 9  26163632.654 7
 88  3 25  4 58 29.0800000  0  4G 6G13G11G 9
  20524291.011    20524294.067    -8873801.177 8  -8639237.655 8
  22204911.963    22204917.564   -47911142.691 9  42020017.960 8
  20650380.189    20650385.164   -19533522.105 9 -16563317.737 7
  20649583.271    20649588.204   -39849020.375 9  26121361.569 8
 88  3 25  4 58 59.0800000  0  4G 6G13G11G 9
  20530400.521    20530405.823    -8841688.223 8  -8614214.570 7
  22189693.682    22189699.549   -47991112.319 9  41957703.980 8
  20652170.791    20652175.589   -19524113.173 9 -16555986.085 8
  20639343.660    20639348.945   -39902828.483 9  26079433.176 8
 88  3 25  4 59 29.0800000  0  4G 6G13G11G 9
  20536617.976    20536624.124    -8809015.400 8  -8588755.252 8
  22174552.445    22174557.802   -48070685.097 9  41895699.235 8
  20654052.066    20654057.060   -19514226.951 8 -16548282.531 7
  20629190.819    20629193.634   -39956192.258 8  26037851.023 8
 88  3 25  4 59 59.0800000  0  4G 6G13G11G 9
  20542942.445    20542947.204    -8775782.691 9  -8562859.642 7
  22159484.465    22159490.440   -48149860.008 9  41834004.507 8
  20656023.765    20656030.011   -19503864.890 8 -16540208.171 8
  20619118.807    20619124.798   -40009109.212 9  25996617.034 8
 88  3 25  5  0 29.0800000  0  4G 6G13G11G 9
  20549372.923    20549377.249    -8741990.215 8  -8536527.845 7
  22144494.086    22144499.919   -48228636.102 8  41772620.568 8
  20658085.319    20658092.189   -19493028.842 8 -16531764.504 8
  20609135.740    20609140.177   -40061576.722 8  25955733.260 7
 88  3 25  5  0 59.0800000  0  4G 6G13G11G 9
  20555910.184    20555914.759    -8707638.665 9  -8509760.419 8
  22129579.128    22129585.350   -48307013.394 8  41711547.360 7
  20660237.508    20660243.344   -19481721.448 9 -16522953.529 8
  20599236.664    20599241.906   -40113593.134 9  25915201.013 8
 88  3 25  5  1 29.0800000  0  4G 6G13G11G 9
  20562553.045    20562558.313    -8672727.299 9  -8482556.762 7
  22114740.307    22114747.256   -48384989.601 9  41650786.708 8
  20662478.680    20662485.669   -19469943.582 8 -16513775.975 8
  20589424.897    20589429.080   -40165155.167 9  25875022.801 8
 88  3 25  5  1 59.0800000  0  4G 6G13G11G 9
  20569303.368    20569307.857    -8637254.153 9  -8454915.373 8
  22099979.004    22099986.070   -48462561.952 8  41590340.736 8
  20664810.444    20664816.139   -19457695.027 8 -16504231.629 7
  20579700.318    20579705.002   -40216258.268 8  25835202.226 8
 88  3 25  5  2 29.0800000  0  4G 6G13G11G 9
  20576160.564    20576165.309    -8601219.419 9  -8426836.369 7
  22085293.853    22085301.725   -48539729.896 8  41530209.894 8
  20667229.195    20667235.937   -19444977.764 8 -16494322.068 7
  20570063.994    20570068.648   -40266900.284 8  25795740.904 7
 88  3 25  5  2 59.0800000  0  4G 6G13G11G 9
  20583124.997    20583129.316    -8564623.391 9  -8398320.008 7
  22070687.733    22070693.368   -48616492.417 8  41470394.971 8
  20669738.074    20669744.790   -19431794.048 9 -16484049.032 8
  20560514.935    20560520.225   -40317078.791 8  25756640.770 8
 88  3 25  5  3 29.0800000  0  4G 6G13G11G 9
  20590195.721    20590200.620    -8527466.968 9  -8369366.953 8
  22056156.886    22056163.528   -48692849.404 9  41410896.048 8
  20672334.744    20672341.871   -19418146.214 8 -16473414.351 8
  20551054.505    20551060.132   -40366791.978 8  25717903.229 7
 88  3 25  5  3 59.0800000  0  4G 6G13G11G 9
  20597373.007    20597378.238    -8489750.017 8  -8339977.138 8
  22041703.185    22041710.534   -48768800.040 9  41351713.760 8
  20675019.552    20675026.789   -19404036.113 8 -16462419.459 8
  20541683.112    20541689.317   -40416037.233 9  25679530.315 7
 88  3 25  5  4 29.0800000  0  4G 6G13G11G 9
  20604655.817    20604660.906    -8451472.539 8  -8310150.524 9
  22027329.498    22027336.246   -48844342.824 8  41292849.262 8
  20677793.895    20677798.985   -19389465.093 9 -16451065.410 8
  20532401.620    20532406.449   -40464811.691 9  25641524.256 7
 88  3 25  5  4 59.0800000  0  4G 6G13G11G 9
  20612046.932    20612051.456    -8412636.180 9  -8279888.452 8
  22013030.726    22013037.305   -48919478.129 8  41234302.303 8
  20680653.051    20680657.987   -19374436.473 8 -16439354.792 8
  20523211.044    20523215.577   -40513114.410 9  25603885.782 8
 88  3 25  5  5 29.0800000  0  4G 6G13G11G 9
  20619543.344    20619547.650    -8373239.585 8  -8249189.815 8
  21998811.804    21998818.306   -48994203.199 9  41176075.001 8
  20683600.401    20683605.303   -19358950.869 9 -16427288.075 9
  20514108.503    20514114.307   -40560941.628 8  25566617.823 7
 88  3 25  5  5 59.0800000  0  4G 6G13G11G 9
  20627147.935    20627152.998    -8333279.230 9  -8218051.892 7
  21984670.413    21984677.052   -49068514.216 9  41118170.335 8
  20686633.152    20686639.442   -19343006.198 9 -16414863.646 7
  20505101.041    20505105.878   -40608286.975 9  25529725.347 7
 88  3 25  5  6 29.0800000  0  4G 6G13G11G 9
  20634858.664    20634864.211    -8292756.306 8  -8186475.597 7
  21970607.565    21970614.242   -49142410.955 9  41060588.475 8
  20689755.069    20689759.905   -19326605.280 8 -16402083.707 7
  20496182.555    20496185.564   -40655148.949 8  25493209.519 8
 88  3 25  5  6 59.0800000  0  4G 6G13G11G 9
  20642676.860    20642680.873    -8251673.565 9  -8154463.084 8
  21956624.754    21956630.927   -49215895.245 9  41003328.027 8
  20692961.495    20692968.531   -19309752.387 8 -16388951.575 7
  20487356.606    20487360.725   -40701527.616 8  25457070.312 7
 88  3 25  5  7 29.0800000  0  4G 6G13G11G 9
  20650601.959    20650607.458    -8210030.887 8  -8122014.264 7
  21942719.347    21942725.643   -49288965.435 9  40946390.233 8
  20696254.648    20696260.584   -19292449.125 9 -16375468.501 7
  20478623.610    20478628.147   -40747420.241 9  25421309.825 7
 88  3 25  5  7 59.0800000  0  4G 6G13G11G 9
  20658632.443    20658637.291    -8167827.564 9  -8089128.573 8
  21928895.121    21928900.010   -49361620.046 9  40889776.274 8
  20699633.418    20699639.181   -19274696.386 8 -16361635.196 8
  20469984.247    20469988.054   -40792823.321 8  25385930.819 7
 88  3 25  5  8 29.0800000  0  4G 6G13G11G 9
  20666769.476    20666774.745    -8125062.673 9  -8055805.300 8
  21915148.370    21915154.348   -49433856.179 9  40833488.389 8
  20703095.598    20703103.487   -19256494.689 8 -16347452.059 8
  20461437.284    20461442.089   -40837733.063 8  25350936.219 8
 88  3 25  5  8 59.0800000  0  4G 6G13G11G 9
  20675015.183    20675021.165    -8081736.717 8  -8022044.830 8
  21901481.483    21901487.816   -49505674.063 9  40777526.419 8
  20706645.365    20706649.672   -19237846.269 8 -16332920.809 7
  20452986.097    20452990.506   -40882147.238 8  25316327.774 7
 88  3 25  5  9 29.0800000  0  4G 6G13G11G 9
  20683366.073    20683371.491    -8037851.839 9  -7987848.829 7
  21887893.951    21887900.522   -49577074.258 8  40721889.925 8
  20710277.144    20710283.886   -19218754.930 8 -16318044.435 7
  20444629.175    20444633.088   -40926065.285 9  25282105.942 7
 88  3 25  5  9 59.0800000  0  4G 6G13G11G 9
  20691824.069    20691829.005    -7993407.065 9  -7953216.560 7
  21874387.462    21874394.402   -49648054.769 9  40666580.451 7
  20713994.864    20714001.147   -19199221.315 8 -16302823.427 8
  20436366.647    20436370.960   -40969483.557 8  25248273.517 7
 88  3 25  5 10 29.0800000  0  4G 6G13G11G 9
  20700387.680    20700393.400    -7948401.686 9  -7918147.435 7
  21860960.463    21860966.112   -49718613.357 8  40611599.757 7
  20717796.329    20717802.155   -19179245.909 9 -16287258.165 7
  20428199.226    20428204.635   -41012398.388 8  25214833.401 7
 88  3 25  5 10 59.0800000  0  4G 6G13G11G 9
  20709058.278    20709063.017    -7902837.529 9  -7882642.916 7
  21847613.549    21847619.464   -49788750.895 9  40556947.139 8
  20721681.062    20721687.952   -19158832.352 8 -16271351.498 8
  20420129.860    20420133.706   -41054808.914 9  25181786.245 7
 88  3 25  5 11 29.0800000  0  4G 6G13G11G 9
  20717835.412    20717839.147    -7856714.453 9  -7846702.873 8
  21834347.717    21834353.555   -49858466.078 9  40502623.651 8
  20725648.293    20725655.139   -19137982.295 8 -16255104.694 7
  20412155.617    20412160.939   -41096712.154 8  25149134.372 7
 88  3 25  5 11 59.0800000  0  4G 6G13G11G 9
  20726718.629    20726723.177    -7810033.070 8  -7810327.791 7
  21821161.462    21821167.412   -49927756.986 9  40448630.744 7
  20729698.485    20729705.473   -19116695.799 9 -16238517.817 8
  20404278.723    20404282.753   -41138104.219 9  25116880.828 7
 88  3 25  5 12 29.0800000  0  4G 6G13G11G 9
  20735708.350    20735713.009    -7762791.154 9  -7773515.921 7
  21808057.352    21808063.574   -49996623.201 9  40394968.785 7
  20733833.267    20733837.789   -19094975.970 8 -16221593.254 7
  20396499.203    20396504.475   -41178983.917 7  25085026.542 7
 88  3 25  5 12 59.0800000  0  4G 6G13G11G 9
  20744804.375    20744809.375    -7714991.662 7  -7736269.581 7
  21795032.473    21795039.021   -50065064.346 8  40341638.035 8
  20738047.076    20738054.296   -19072824.596 9 -16204332.446 8
  20388818.590    20388823.136   -41219348.675 7  25053573.486 7
 88  3 25  5 13 29.0800000  0  4G 6G13G11G 9
  20754005.991    20754011.192    -7666634.060 9  -7698588.339 8
  21782089.792    21782095.327   -50133078.906 9  40288639.695 7
  20742344.372    20742350.027   -19050242.753 8 -16186736.197 7
  20381235.367    20381240.580   -41259195.430 8  25022524.066 8
 88  3 25  5 13 59.0800000  0  4G 6G13G11G 9
  20763314.342    20763319.298    -7617719.306 9  -7660472.958 7
  21769227.147    21769235.810   -50200667.015 9  40235973.650 7
  20746723.541    20746728.860   -19027233.302 8 -16168806.763 7
  20373752.417    20373756.606   -41298522.371 9  24991879.713 8
 88  3 25  5 14 29.0800000  0  4G 6G13G11G 9
  20772729.132    20772733.590    -7568248.039 8  -7621923.937 7
  21756447.544    21756454.015   -50267827.548 8  40183640.806 8
  20751182.633    20751188.859   -19003798.604 8 -16150545.944 7
  20366366.970    20366373.128   -41337327.189 9  24961642.190 7
 88  3 25  5 14 59.0800000  0  4G 6G13G11G 9
  20782249.372    20782252.530    -7518220.847 9  -7582941.736 7
  21743748.960    21743755.712   -50334560.156 9  40131641.389 8
  20755721.912    20755727.704   -18979940.192 8 -16131954.964 7
  20359083.170    20359086.408   -41375607.630 8  24931813.283 7
 88  3 25  5 15 29.0800000  0  4G 6G13G11G 9
  20791874.945    20791879.130    -7467636.356 9  -7543525.257 7
  21731132.245    21731138.198   -50400862.625 9  40079977.141 8
  20760343.566    20760349.140   -18955658.324 7 -16113034.026 7
  20351898.877    20351904.107   -41413359.490 9  24902396.233 7
 88  3 25  5 15 59.0800000  0  4G 6G13G11G 9
  20801606.038    20801609.859    -7416496.214 9  -7503675.806 7
  21718596.565    21718602.629   -50466735.118 8  40028647.957 7
  20765044.883    20765049.442   -18930955.781 8 -16093785.276 8
  20344815.882    20344820.457   -41450581.408 8  24873392.148 7
 88  3 25  5 16 29.0800000  0  4G 6G13G11G 9
  20811444.072    20811447.904    -7364800.848 9  -7463393.717 7
  21706144.852    21706150.570   -50532176.472 9  39977654.701 8
  20769825.193    20769829.400   -18905834.354 8 -16074210.143 7
  20337835.202    20337839.335   -41487271.037 8  24844802.847 8
 88  3 25  5 16 59.0800000  0  4G 6G13G11G 9
  20821386.430    20821389.726    -7312551.861 9  -7422680.237 7
  21693772.864    21693779.214   -50597187.256 9  39926996.971 8
  20774683.413    20774689.995   -18880297.485 8 -16054311.268 8
  20330953.930    20330958.422   -41523426.921 8  24816629.429 7
 88  3 25  5 17 29.0800000  0  4G 6G13G11G 9
  20831433.922    20831438.504    -7259750.251 9  -7381536.138 7
  21681483.557    21681489.553   -50661767.225 9  39876674.939 8
  20779622.648    20779628.599   -18854347.285 8 -16034090.332 7
  20324175.798    20324180.750   -41559047.117 7  24788873.441 8
 88  3 25  5 17 59.0800000  0  4G 6G13G11G 9
  20841587.357    20841591.702    -7206395.979 9  -7339961.391 7
  21669276.620    21669283.554   -50725914.726 9  39826689.893 7
  20784638.882    20784644.520   -18827985.018 8 -16013548.297 8
  20317499.404    20317504.501   -41594128.718 8  24761537.120 8
 88  3 25  5 18 29.0800000  0  4G 6G13G11G 9
  20851844.516    20851849.929    -7152489.233 8  -7297956.166 8
  21657152.790    21657159.312   -50789628.487 9  39777042.837 8
  20789734.187    20789740.242   -18801212.227 7 -15992686.371 8
  20310927.197    20310931.781   -41628668.887 9  24734622.716 7
 88  3 25  5 18 59.0800000  0  4G 6G13G11G 9
  20862208.496    20862214.180    -7098028.028 9  -7255518.862 8
  21645111.379    21645116.839   -50852905.989 9  39727735.697 8
  20794905.830    20794912.177   -18774028.236 8 -15971504.043 7
  20304457.932    20304463.594   -41662662.800 8  24708133.955 8
 88  3 25  5 19 29.0800000  0  4G 6G13G11G 9
  20872677.838    20872682.447    -7043015.837 9  -7212652.233 6
  21633152.180    21633159.941   -50915749.196 9  39678766.993 8
  20800157.924    20800162.643   -18746437.766 8 -15950004.976 7
  20298093.517    20298097.472   -41696110.661 7  24682070.695 7
 88  3 25  5 19 59.0800000  0  4G 6G13G11G 9
  20883250.072    20883254.192    -6987456.186 9  -7169359.014 7
  21621276.537    21621282.642   -50978160.167 8  39630135.080 9
  20805482.995    20805489.641   -18718445.505 8 -15928192.806 6
  20291831.632    20291837.484   -41729013.398 8  24656432.200 7
 88  3 25  5 20 29.0800000  0  4G 6G13G11G 9
  20893927.692    20893932.096    -6931347.132 9  -7125637.706 6
  21609482.624    21609490.059   -51040135.155 9  39581842.909 8
  20810887.168    20810892.987   -18690051.051 9 -15906067.244 7
  20285675.592    20285680.983   -41761365.944 8  24631222.426 7
 88  3 25  5 20 59.0800000  0  4G 6G13G11G 9
  20904710.370    20904714.756    -6874685.598 9  -7081485.869 7
  21597773.263    21597779.524   -51101669.760 9  39533893.875 8
  20816367.070    20816371.999   -18661252.263 8 -15883626.628 8
  20279625.912    20279630.473   -41793161.858 8  24606446.382 7
 88  3 25  5 21 29.0800000  0  4G 6G13G11G 9
  20915595.753    20915600.056    -6817474.627 9  -7036905.903 7
  21586147.745    21586152.939   -51162766.646 9  39486285.935 7
  20821923.213    20821928.819   -18632054.007 9 -15860874.747 7
  20273681.367    20273683.771   -41824401.798 7  24582103.580 7
 88  3 25  5 21 59.0800000  0  4G 6G13G11G 9
  20926587.109    20926591.590    -6759717.613 9  -6991900.460 7
  21574603.604    21574610.185   -51223427.288 8  39439017.920 7
  20827554.633    20827560.491   -18602460.443 9 -15837814.817 8
  20267842.391    20267845.823   -41855085.923 7  24558193.865 7
 88  3 25  5 22 29.0800000  0  4G 6G13G11G 9
  20937682.115    20937686.747    -6701414.557 9  -6946469.527 7
  21563143.350    21563149.749   -51283650.189 9  39392091.010 8
  20833261.396    20833265.965   -18572472.772 8 -15814447.800 7
  20262107.878    20262113.689   -41885211.176 8  24534719.648 7
 88  3 25  5 22 59.0800000  0  4G 6G13G11G 9
  20948880.266    20948884.778    -6642566.047 9  -6900613.560 7
  21551767.601    21551771.669   -51343434.991 9  39345505.467 8
  20839042.904    20839047.916   -18542092.701 8 -15790775.010 8
  20256484.082    20256487.414   -41914775.041 8  24511682.883 7
 88  3 25  5 23 29.0800000  0  4G 6G13G11G 9
  20960183.312    20960188.013    -6583172.896 9  -6854333.211 7
  21540474.615    21540480.041   -51402780.883 9  39299261.941 7
  20844898.046    20844904.229   -18511322.535 8 -15766798.257 7
  20250963.999    20250969.232   -41943775.546 7  24489085.091 8
 88  3 25  5 23 59.0800000  0  4G 6G13G11G 9
  20971588.005    20971593.785    -6523236.190 9  -6807629.283 8
  21529264.269    21529269.960   -51461687.672 9  39253360.559 8
  20850827.174    20850832.154   -18480164.207 9 -15742519.030 8
  20245553.341    20245557.280   -41972210.441 8  24466928.016 8
 88  3 25  5 24 29.0800000  0  4G 6G13G11G 9
  20983097.238    20983102.296    -6462756.494 9  -6760502.274 8
  21518137.975    21518143.859   -51520154.961 9  39207801.654 7
  20856830.477    20856834.688   -18448619.510 9 -15717938.734 8
  20240250.327    20240253.807   -42000077.687 7  24445213.286 7
 88  3 25  5 24 59.0800000  0  4G 6G13G11G 9
  20994710.324    20994715.304    -6401733.448 8  -6712951.868 7
  21507095.249    21507101.498   -51578180.676 9  39162586.829 7
  20862906.558    20862910.367   -18416689.256 9 -15693058.018 7
  20235056.324    20235062.347   -42027373.537 7  24423943.809 7
 88  3 25  5 25 29.0800000  0  4G 6G13G11G 9
  21006424.007    21006429.686    -6340167.996 9  -6664978.806 8
  21496138.353    21496143.789   -51635764.215 9  39117716.568 7
  20869055.262    20869061.035   -18384375.317 8 -15667878.342 7
  20229970.182    20229975.437   -42054096.186 8  24403120.954 6
 88  3 25  5 25 59.0800000  0  4G 6G13G11G 9
  21018243.587    21018248.644    -6278061.202 9  -6616583.936 8
  21485265.246    21485270.557   -51692905.457 8  39073190.956 6
  20875277.280    20875282.925   -18351680.094 9 -15642401.526 9
  20224995.077    20224999.777   -42080243.451 8  24382746.465 8
 88  3 25  5 26 29.0800000  0  4G 6G13G11G 9
  21030164.412    21030169.015    -6215416.543 8  -6567769.922 8
  21474474.148    21474480.458   -51749606.546 8  39029008.315 8
  20881569.812    20881575.931   -18318607.984 9 -15616631.043 7
  20220129.450    20220134.225   -42105815.540 7  24362820.167 7
 88  3 25  5 26 59.0800000  0  4G 6G13G11G 9
  21042187.318    21042193.205    -6152235.888 9  -6518538.286 6
  21463767.970    21463774.866   -51805868.185 9  38985168.091 8
  20887935.181    20887940.043   -18285161.800 9 -15590569.080 8
  20215372.933    20215377.415   -42130811.704 8  24343342.627 7
 88  3 25  5 27 29.0800000  0  4G 6G13G11G 9
  21054312.988    21054317.647    -6088517.683 9  -6468887.729 8
  21453146.996    21453151.824   -51861686.707 9  38941673.165 8
  20894370.208    20894375.987   -18251341.492 8 -15564215.590 8
  20210726.292    20210732.051   -42155227.301 7  24324317.498 6
 88  3 25  5 27 59.0800000  0  4G 6G13G11G 9
  21066540.627    21066544.830    -6024261.466 9  -6418817.980 8
  21442609.468    21442613.969   -51917060.589 8  38898524.721 9
  20900877.121    20900883.106   -18217147.362 9 -15537570.798 7
  20206191.629    20206196.248   -42179058.494 8  24305747.739 7
 88  3 25  5 28 29.0800000  0  4G 6G13G11G 9
  21078869.557    21078874.540    -5959471.331 9  -6368332.178 7
  21432156.524    21432162.246   -51971992.848 9  38855720.377 7
  20907454.674    20907460.481   -18182584.246 9 -15510638.495 8
  20201767.673    20201771.802   -42202306.526 6  24287632.375 7
 88  3 25  5 28 59.0800000  0  4G 6G13G11G 9
  21091300.241    21091304.481    -5894148.109 9  -6317430.986 7
  21421787.300    21421791.882   -52026482.337 8  38813261.061 7
  20914101.752    20914106.971   -18147654.184 9 -15483420.252 8
  20197455.084    20197460.737   -42224969.083 7  24269973.244 7
 88  3 25  5 29 29.0800000  0  4G 6G13G11G 9
  21103831.270    21103837.159    -5828291.998 9  -6266114.550 7
  21411502.432    21411508.110   -52080527.887 9  38771147.664 7
  20920817.301    20920823.387   -18112358.406 9 -15455917.060 8
  20193254.685    20193259.633   -42247043.548 7  24252772.368 8
 88  3 25  5 29 59.0800000  0  4G 6G13G11G 9
  21116464.836    21116470.087    -5761904.735 9  -6214384.235 8
  21401302.869    21401308.714   -52134130.121 9  38729379.713 8
  20927604.643    20927609.235   -18076699.405 9 -15428130.821 8
  20189166.683    20189170.209   -42268528.298 8  24236031.007 7
 88  3 25  5 30 29.0800000  0  4G 6G13G11G 9
  21129199.165    21129203.246    -5694986.690 9  -6162240.315 7
  21391187.170    21391191.622   -52187288.092 9  38687957.948 7
  20934457.903    20934463.813   -18040678.730 8 -15400062.768 7
  20185190.637    20185195.438   -42289420.936 7  24219751.026 7
 88  3 25  5 30 59.0800000  0  4G 6G13G11G 9
  21142033.941    21142038.891    -5627539.649 9  -6109684.200 8
  21381155.340    21381161.836   -52240002.038 8  38646882.168 7
  20941380.282    20941387.407   -18004298.830 8 -15371714.781 8
  20181327.455    20181332.391   -42309719.966 7  24203933.604 7
 88  3 25  5 31 29.0800000  0  4G 6G13G11G 9
  21154969.547    21154973.532    -5559564.522 9  -6056716.576 7
  21371209.462    21371214.836   -52292271.244 9  38606152.925 7
  20948372.502    20948378.232   -17967561.510 9 -15343088.288 8
  20177577.598    20177582.899   -42329423.305 7  24188580.351 7
 88  3 25  5 31 59.0800000  0  4G 6G13G11G 9
  21168004.972    21168009.588    -5491061.240 8  -6003337.422 8
  21361346.857    21361353.458   -52344094.743 8  38565771.003 7
  20955430.352    20955436.979   -17930467.916 8 -15314184.201 7
  20173942.372    20173948.232   -42348527.824 8  24173693.719 7
 88  3 25  5 32 29.0800000  0  4G 6G13G11G 9
  21181140.962    21181145.497    -5422032.378 9  -5949548.710 7
  21351570.068    21351576.799   -52395473.205 9  38525735.859 7
  20962556.980    20962563.003   -17893021.176 9 -15285004.919 7
  20170422.234    20170426.178   -42367033.022 7  24159274.099 8
 88  3 25  5 32 59.0800000  0  4G 6G13G11G 9
  21194374.941    21194381.717    -5352480.586 9  -5895352.531 7
  21341878.242    21341883.724   -52446408.109 8  38486046.352 9
  20969749.958    20969755.648   -17855225.000 8 -15255553.349 7
  20167013.818    20167017.766   -42384938.479 8  24145321.788 7
 88  3 25  5 33 29.0800000  0  4G 6G13G11G 9
  21207710.635    21207714.577    -5282407.145 9  -5840749.864 8
  21332268.738    21332275.232   -52496899.093 9  38446702.744 7
  20977006.355    20977013.185   -17817081.415 9 -15225831.085 8
  20163721.102    20163725.793   -42402242.604 8  24131838.058 8
 88  3 25  5 33 59.0800000  0  4G 6G13G11G 9
  21221145.083    21221149.150    -5211811.183 9  -5785740.051 7
  21322746.390    21322752.315   -52546943.830 9  38407706.852 8
  20984332.236    20984338.107   -17778590.108 9 -15195837.847 8
  20160542.899    20160547.542   -42418941.306 7  24118826.093 8
 88  3 25  5 34 29.0800000  0  4G 6G13G11G 9
  21234677.346    21234682.394    -5140696.334 9  -5730325.904 7
  21313306.966    21313313.912   -52596544.602 9  38369056.923 7
  20991721.180    20991728.737   -17739755.690 9 -15165577.256 8
  20157482.166    20157485.237   -42435035.012 9  24106285.530 7
 88  3 25  5 34 59.0800000  0  4G 6G13G11G 9
  21248309.183    21248314.603    -5069063.985 9  -5674508.504 7
  21303953.649    21303958.749   -52645700.498 9  38330753.653 7
  20999176.700    20999182.332   -17700580.303 8 -15135050.987 8
  20154534.122    20154538.516   -42450522.111 7  24094217.665 7
 88  3 25  5 35 29.0800000  0  4G 6G13G11G 9
  21262038.424    21262042.724    -4996914.143 9  -5618287.866 7
  21294684.820    21294689.666   -52694410.792 9  38292797.615 8
  21006696.650    21006702.596   -17661064.921 8 -15104259.782 8
  20151702.813    20151706.988   -42465399.916 7  24082624.571 8
 88  3 25  5 35 59.0800000  0  4G 6G13G11G 9
  21275866.438    21275871.480    -4924246.937 9  -5561664.085 6
  21285499.772    21285506.947   -52742674.900 9  38255189.231 8
  21014280.007    21014285.894   -17621210.176 9 -15073204.138 8
  20148987.905    20148991.967   -42479665.075 8  24071508.859 8
 88  3 25  5 36 29.0800000  0  4G 6G13G11G 9
  21289792.003    21289796.102    -4851065.570 9  -5504639.675 7
  21276401.028    21276405.821   -52790493.787 9  38217927.774 7
  21021929.207    21021933.629   -17581020.168 9 -15041887.246 8
  20146389.931    20146395.382   -42493318.198 8  24060870.066 7
 88  3 25  5 36 59.0800000  0  4G 6G13G11G 9
  21303815.194    21303820.132    -4777372.139 9  -5447216.244 7
  21267385.745    21267391.734   -52837867.690 8  38181013.056 8
  21029639.495    21029645.640   -17540497.595 9 -15010311.216 8
  20143908.185    20143914.180   -42506357.917 8  24050709.247 8
 88  3 25  5 37 29.0800000  0  4G 6G13G11G 9
  21317936.721    21317940.590    -4703167.532 9  -5389394.492 8
  21258455.431    21258461.638   -52884795.981 9  38144445.580 7
  21037413.819    21037419.851   -17499643.803 9 -14978477.094 7
  20141544.986    20141549.323   -42518782.209 8  24041027.971 7
 88  3 25  5 37 59.0800000  0  4G 6G13G11G 9
  21332153.704    21332159.252    -4628453.488 9  -5331175.785 8
  21249609.306    21249615.643   -52931279.568 9  38108224.621 8
  21045250.923    21045256.939   -17458461.427 9 -14946386.937 8
  20139297.624    20139302.977   -42530589.722 8  24031827.304 6
 88  3 25  5 38 29.0800000  0  4G 6G13G11G 9
  21346468.661    21346472.748    -4553231.976 8  -5272561.649 8
  21240848.413    21240854.710   -52977318.678 8  38072350.011 8
  21053149.462    21053156.204   -17416953.224 9 -14914042.882 9
  20137168.665    20137173.824   -42541779.531 7  24023107.977 7
 88  3 25  5 38 59.0800000  0  4G 6G13G11G 9
  21360879.113    21360884.012    -4477503.026 9  -5213552.089 8
  21232172.665    21232178.774   -53022912.283 9  38036822.538 7
  21061109.429    21061115.267   -17375119.649 9 -14881445.288 8
  20135155.441    20135162.053   -42552348.643 8  24014872.302 7
 88  3 25  5 39 29.0800000  0  4G 6G13G11G 9
  21375386.629    21375390.710    -4401267.982 9  -5154148.181 8
  21223581.599    21223586.483   -53068059.945 9  38001642.566 8
  21069132.430    21069137.700   -17332962.620 8 -14848595.649 8
  20133264.363    20133269.556   -42562295.140 8  24007121.792 7
 88  3 25  5 39 59.0800000  0  4G 6G13G11G 9
  21389988.659    21389993.689    -4324530.083 9  -5094352.434 8
  21215073.622    21215079.056   -53112762.917 9  37966809.100 7
  21077216.098    21077220.780   -17290486.004 9 -14815496.979 8
  20131490.169    20131495.115   -42571619.504 7  23999856.049 7
 88  3 25  5 40 29.0800000  0  4G 6G13G11G 9
  21404686.321    21404691.431    -4247292.137 9  -5034167.053 8
  21206651.061    21206658.187   -53157022.598 9  37932321.053 7
  21085358.671    21085364.402   -17247693.104 9 -14782151.859 8
  20129834.493    20129838.923   -42580321.167 7  23993075.526 8
 88  3 25  5 40 59.0800000  0  4G 6G13G11G 9
  21419479.889    21419484.913    -4169555.266 9  -4973592.892 7
  21198313.823    21198320.201   -53200838.899 9  37898178.508 7
  21093562.209    21093566.536   -17204585.890 9 -14748561.817 8
  20128297.909    20128301.978   -42588398.758 8  23986781.282 8
 88  3 25  5 41 29.0800000  0  4G 6G13G11G 9
  21434368.216    21434373.240    -4091319.402 9  -4912629.904 8
  21190060.660    21190066.492   -53244211.041 9  37864382.049 7
  21101823.915    21101829.240   -17161164.938 9 -14714727.304 8
  20126879.591    20126884.034   -42595849.316 8  23980975.664 7
 88  3 25  5 41 59.0800000  0  4G 6G13G11G 9
  21449350.683    21449355.165    -4012583.932 9  -4851277.599 7
  21181892.342    21181897.928   -53287136.310 8  37830933.804 7
  21110146.248    21110153.735   -17117429.692 9 -14680647.896 8
  20125581.332    20125585.456   -42602668.597 8  23975661.936 7
 88  3 25  5 42 29.0800000  0  4G 6G13G11G 9
  21464427.693    21464433.111    -3933352.848 9  -4789539.122 8
  21173807.633    21173814.030   -53329616.853 9  37797832.101 7
  21118528.242    21118533.478   -17073384.968 9 -14646327.317 8
  20124403.515    20124408.458   -42608858.095 7  23970838.937 7
 88  3 25  5 42 59.0800000  0  4G 6G13G11G 9
  21479598.160    21479604.082    -3853631.489 8  -4727418.595 8
  21165808.898    21165813.837   -53371656.443 8  37765073.996 8
  21126967.742    21126972.956   -17029036.536 9 -14611770.107 8
  20123345.636    20123351.009   -42614420.016 8  23966504.974 7
 88  3 25  5 43 29.0800000  0  4G 6G13G11G 9
  21494861.528    21494867.631    -3773418.483 9  -4664914.980 8
  21157892.768    21157898.400   -53413252.489 9  37732661.528 8
  21135465.196    21135469.685   -16984383.318 9 -14576975.394 8
  20122406.836    20122412.139   -42619350.043 7  23962663.387 7
 88  3 25  5 43 59.0800000  0  4G 6G13G11G 9
  21510219.385    21510224.597    -3692714.412 9  -4602028.709 8
  21150062.191    21150068.207   -53454403.703 9  37700595.658 7
  21144019.803    21144024.304   -16939426.482 9 -14541944.089 7
  20121589.600    20121594.512   -42623645.700 8  23959316.111 8
 88  3 25  5 44 29.0800000  0  4G 6G13G11G 9
  21525669.717    21525675.364    -3611521.412 9  -4538761.473 7
  21142316.042    21142320.975   -53495111.162 9  37668875.572 7
  21152632.413    21152637.486   -16894168.318 9 -14506677.989 8
  20120893.069    20120896.651   -42627306.124 8  23956463.831 7
 88  3 25  5 44 59.0800000  0  4G 6G13G11G 9
  21541213.021    21541217.055    -3529843.322 9  -4475116.212 7
  21134652.657    21134658.625   -53535377.143 8  37637499.516 8
  21161300.578    21161306.926   -16848613.077 9 -14471180.390 7
  20120317.539    20120322.672   -42630332.293 7  23954105.772 8
 88  3 25  5 45 29.0800000  0  4G 6G13G11G 9
  21556847.869    21556851.832    -3447680.667 9  -4411093.383 8
  21127075.037    21127081.978   -53575200.522 8  37606468.326 7
  21170026.680    21170031.492   -16802761.731 9 -14435452.059 8
  20119862.920    20119867.156   -42632721.722 7  23952243.874 7
 88  3 25  5 45 59.0800000  0  4G 6G13G11G 9
  21572574.810    21572579.243    -3365035.475 9  -4346694.556 8
  21119580.174    21119586.562   -53614582.275 8  37575781.272 7
  21178807.332    21178812.841   -16756616.646 8 -14399494.849 8
  20119529.240    20119534.304   -42634473.604 7  23950878.764 7
 88  3 25  5 46 29.0800000  0  4G 6G13G11G 9
  21588392.976    21588397.511    -3281909.976 9  -4281921.462 8
  21112170.315    21112176.802   -53653522.317 9  37545438.390 7
  21187643.619    21187648.985   -16710180.676 9 -14363310.975 7
  20119316.876    20119322.029   -42635587.154 8  23950011.063 7
 88  3 25  5 46 59.0800000  0  4G 6G13G11G 9
  21604302.391    21604307.324    -3198305.256 9  -4216774.954 7
  21104844.999    21104850.790   -53692020.354 8  37515439.936 7
  21196535.616    21196541.173   -16663455.291 9 -14326901.590 7
  20119226.719    20119232.599   -42636060.728 9  23949642.044 7
 88  3 25  5 47 29.0800000  0  4G 6G13G11G 9
  21620302.371    21620307.129    -3114222.729 9  -4151256.114 7
  21097602.410    21097609.970   -53730076.503 8  37485785.824 7
  21205481.416    21205487.421   -16616441.821 9 -14290267.711 7
  20119258.422    20119264.670   -42635892.430 7  23949773.180 8
 88  3 25  5 47 59.0800000  0  4G 6G13G11G 9
  21636393.039    21636398.375    -3029665.338 9  -4085367.254 8
  21090445.581    21090450.603   -53767692.152 9  37456474.951 7
  21214481.723    21214488.164   -16569143.500 9 -14253411.896 8
  20119412.402    20119417.932   -42635082.748 8  23950404.093 8
 88  3 25  5 48 29.0800000  0  4G 6G13G11G 9
  21652572.816    21652578.756    -2944636.595 9  -4019111.111 8
  21083369.635    21083376.321   -53804869.081 9  37427505.923 7
  21223535.877    21223541.454   -16521564.468 8 -14216337.317 8
  20119688.548    20119695.331   -42633631.974 7  23951534.566 8
 88  3 25  5 48 59.0800000  0  4G 6G13G11G 9
  21668843.921    21668849.226    -2859136.030 9  -3952487.315 7
  21076379.818    21076384.485   -53841605.292 9  37398880.318 7
  21232642.947    21232649.114   -16473704.652 9 -14179043.948 8
  20120087.899    20120093.667   -42631536.884 7  23953167.090 7
 88  3 25  5 49 29.0800000  0  4G 6G13G11G 9
  21685204.142    21685209.279    -2773165.710 9  -3885497.483 8
  21069473.024    21069478.036   -53877901.749 9  37370597.398 7
  21241804.015    21241809.735   -16425566.077 9 -14141533.373 8
  20120609.033    20120614.756   -42628796.697 7  23955302.309 7
 88  3 25  5 49 59.0800000  0  4G 6G13G11G 9
  21701652.276    21701657.498    -2686729.106 9  -3818144.300 7
  21062649.137    21062654.833   -53913760.326 9  37342655.656 7
  21251016.109    21251022.512   -16377152.324 9 -14103808.353 8
  20121253.580    20121258.754   -42625412.134 8  23957939.627 8
 88  3 25  5 50 29.0800000  0  4G 6G13G11G 9
  21718189.221    21718193.923    -2599827.589 9  -3750428.855 9
  21055909.057    21055915.018   -53949180.896 9  37315055.246 8
  21260281.360    21260287.451   -16328464.838 9 -14065870.063 8
  20122020.613    20122025.651   -42621381.574 8  23961080.302 8
 88  3 25  5 50 59.0800000  0  4G 6G13G11G 9
  21734814.477    21734818.916    -2512462.568 9  -3682352.240 8
  21049251.706    21049258.600   -53984162.731 9  37287796.676 8
  21269599.475    21269604.469   -16279505.537 9 -14027719.957 7
  20122910.729    20122915.964   -42616703.625 7  23964725.452 8
 88  3 25  5 51 29.0800000  0  4G 6G13G11G 9
  21751527.240    21751532.199    -2424635.516 9  -3613915.593 8
  21042679.100    21042684.671   -54018706.703 9  37260879.313 8
  21278966.983    21278972.163   -16230275.848 9 -13989359.152 8
  20123924.159    20123928.673   -42611376.952 7  23968876.090 7
 88  3 25  5 51 59.0800000  0  4G 6G13G11G 9
  21768327.299    21768332.733    -2336350.020 9  -3545121.715 8
  21036188.171    21036193.376   -54052814.159 9  37234302.095 7
  21288385.442    21288390.269   -16180779.635 9 -13950790.677 8
  20125062.151    20125064.552   -42605402.202 7  23973531.730 8
 88  3 25  5 52 29.0800000  0  4G 6G13G11G 9
  21785214.764    21785218.970    -2247608.138 9  -3475972.221 8
  21029780.692    21029786.310   -54086485.651 8  37208064.586 8
  21297854.742    21297860.018   -16131019.016 8 -13912016.160 7
  20126321.846    20126326.132   -42598778.887 7  23978692.758 7
 88  3 25  5 52 59.0800000  0  4G 6G13G11G 9
  21802188.194    21802193.989    -2158410.746 9  -3406467.786 8
  21023456.287    21023461.416   -54119720.434 9  37182167.383 7
  21307373.552    21307380.000   -16080994.840 8 -13873036.295 8
  20127705.439    20127711.358   -42591504.834 7  23984360.843 7
 88  3 25  5 53 29.0800000  0  4G 6G13G11G 9
  21819248.125    21819253.686    -2068759.105 9  -3336609.391 8
  21017215.616    21017221.327   -54152518.381 9  37156610.548 8
  21316943.139    21316948.472   -16030708.571 9 -13833852.182 8
  20129213.104    20129219.922   -42583578.660 8  23990537.084 7
 88  3 25  5 53 59.0800000  0  4G 6G13G11G 9
  21836394.523    21836399.666    -1978656.385 8  -3266399.500 9
  21011056.014    21011062.649   -54184881.259 1  37131392.733 1
  21326561.310    21326567.472   -15980163.682 9 -13794466.558 8
  20130846.831    20130851.670   -42575000.829 8  23997221.089 7
 88  3 25  5 54 29.0800000  0  4G 6G13G11G 9
  21853625.805    21853630.174    -1888106.401 9  -3195841.091 8
  21004981.593    21004985.525   -54216811.452 1  37106512.091 1
  21336229.800    21336233.411   -15929363.676 9 -13754882.142 8
  20132601.274    20132608.216   -42565772.346 7  24004412.102 7
 88  3 25  5 54 59.0800000  0  4G 6G13G11G 9
  21870940.846    21870946.152    -1797111.244 8  -3124935.813 8
  20998987.083    20998992.046   -54248309.730 9  37081968.009 8
  21345944.647    21345946.914   -15878310.700 1 -13715100.600 1
  20134482.612    20134487.976   -42555892.395 6  24012110.769 7
 88  3 25  5 55 29.0800000  0  4G 6G13G11G 9
  21888340.859    21888347.401    -1705672.626 9  -3053684.962 8
  20993075.112    20993081.021   -54279375.315 8  37057761.070 8
  21355706.552    21355711.582   -15827006.643 8 -13675123.407 8
  20136487.476    20136491.801   -42545360.160 8  24020317.699 7
 88  3 25  5 55 59.0800000  0  4G 6G13G11G 9
  21905825.472    21905831.560    -1613789.073 8  -2982087.412 8
  20987246.051    20987251.969   -54310005.772 9  37033893.205 8
  21365516.881    21365523.663   -15775449.921 8 -13634949.335 9
  20138615.597    20138620.437   -42534171.457 7  24029036.164 8
 88  3 25  5 56 29.0800000  0  4G 6G13G11G 9
  21923395.128    21923400.792    -1521464.061 8  -2910145.873 8
  20981500.056    20981504.871   -54340202.743 8  37010363.130 8
  21375375.846    21375381.322   -15723644.111 9 -13594581.177 8
  20140869.900    20140874.735   -42522326.915 7  24038265.665 8
 88  3 25  5 56 59.0800000  0  4G 6G13G11G 9
  21941046.869    21941051.498    -1428704.193 9  -2837865.470 8
  20975834.860    20975840.451   -54369971.617 9  36987166.630 8
  21385280.719    21385285.306   -15671595.707 9 -13554023.970 8
  20143246.882    20143254.402   -42509830.682 8  24048002.975 7
 88  3 25  5 57 29.0800000  0  4G 6G13G11G 9
  21958780.227    21958785.647    -1335511.444 8  -2765247.771 9
  20970252.399    20970257.335   -54399312.641 8  36964303.485 8
  21395229.781    21395235.284   -15619306.496 8 -13513279.135 8
  20145750.919    20145755.010   -42496681.847 7  24058248.823 8
 88  3 25  5 57 59.0800000  0  4G 6G13G11G 9
  21976597.215    21976602.672    -1241885.591 9  -2692292.588 8
  20964749.906    20964755.731   -54428224.210 8  36941775.019 8
  21405226.366    21405231.747   -15566776.490 8 -13472346.678 7
  20148375.921    20148380.909   -42482877.635 8  24069005.335 8
 88  3 25  5 58 29.0800000  0  4G 6G13G11G 9
  21994495.750    21994500.784    -1147828.260 8  -2619001.177 7
  20959330.952    20959336.032   -54456706.082 8  36919581.369 8
  21415268.181    21415272.899   -15514006.888 8 -13431227.497 8
  20151128.857    20151133.291   -42468417.003 7  24080273.350 8
 88  3 25  5 58 59.0800000  0  4G 6G13G11G 9
  22012475.977    22012480.665    -1053340.300 8  -2545374.213 8
  20953993.762    20953996.926   -54484758.063 4  36897722.708 2
  21425355.002    21425360.891   -15460998.681 8 -13389922.395 9
  20154005.852    20154009.806   -42453298.386 7  24092054.082 8
 88  3 25  5 59 29.0800000  0  4G 6G13G11G 9
  22030537.038    22030542.980     -958426.320 9  -2471415.292 8
  20948735.177    20948740.591   -54512383.259 9  36876196.590 8
  21435488.173    21435490.550   -15407756.042 1 -13348434.610 7
  20157008.414    20157013.553   -42437523.495 5  24104346.208 3
 88  3 25  5 59 59.0800000  0  4G 6G13G11G 9
  22048679.829    22048684.664     -863088.938 9  -2397126.452 8
  20943558.684    20943563.761   -54539582.331 3  36855002.533 2
  21445662.610    21445668.368   -15354281.529 9 -13306766.174 8
  20160132.573    20160138.867   -42421092.619 3  24117149.459 1
 88  3 25  6  0 29.0800000  0  4G 6G13G11G 9
  22066901.817    22066906.701     -767331.607 8  -2322510.363 7
  20938463.994    20938471.072   -54566357.369 9  36834138.890 8
  21455882.237    21455887.045   -15300578.305 1 -13264919.533 1
  20163385.265    20163390.376   -42404006.475 7  24130463.340 7
 88  3 25  6  0 59.0800000  0  4G 6G13G11G 9
  22085204.796    22085209.655     -671154.015 8  -2247566.806 7
  20933449.532    20933455.759   -54592706.544 9  36813607.084 8
                  21466150.438                   -13222880.215 6
  20166762.656    20166766.418   -42386261.927 7  24144290.244 7
 88  3 25  6  1 29.0800000  0  4G 6G13G11G 9
  22103585.926    22103591.653     -574557.816 8  -2172297.048 8
  20928517.042    20928521.772   -54618629.794 9  36793407.154 8
  21476450.579    21476456.440   -15439549.064 8 -13180689.783 8
  20170264.041    20170269.711   -42367858.533 7  24158630.536 7
 88  3 25  6  1 59.0800000  0  4G 6G13G11G 9
  22122045.990    22122051.303     -477547.678 9  -2096704.751 8
  20923664.148    20923670.141   -54644130.302 9  36773536.649 8
  21486799.576    21486805.927   -15385166.251 9 -13138313.579 8
  20173891.886    20173896.462   -42348798.368 7  24173482.597 8
 88  3 25  6  2 29.0800000  0  4G 6G13G11G 9
  22140584.896    22140590.466     -380126.475 9  -2020792.150 9
  20918891.905    20918898.092   -54669209.105 8  36753994.757 7
  21497190.935    21497196.283   -15330562.862 8 -13095765.499 8
  20177643.368    20177649.701   -42329081.547 8  24188846.354 7
 88  3 25  6  2 59.0800000  0  4G 6G13G11G 9
  22159201.390    22159205.873     -282296.983 7  -1944561.397 8
  20914198.889    20914205.046   -54693867.783 8  36734780.230 8
  21507623.217    21507629.069   -15275741.278 8 -13053047.359 7
  20181521.531    20181523.866   -42308708.498 8  24204721.430 7
 88  3 25  6  3 29.0800000  0  4G 6G13G11G 9
  22177895.582    22177900.677     -184059.594 7  -1868012.791 9
  20909586.865    20909592.672   -54718105.161 8  36715893.993 8
  21518096.212    21518102.514   -15220701.606 9 -13010159.311 8
  20185522.401    20185527.816   -42287677.047 7  24221109.586 8
 88  3 25  6  3 59.0800000  0  4G 6G13G11G 9
  22196665.992    22196671.527      -85415.639 8  -1791147.389 8
  20905056.490    20905059.942   -54741921.553 7  36697335.772 8
  21528612.570    21528620.782   -15165445.012 2 -12967102.202 2
                  25810812.733   -79549997.113 1
 88  3 25  6  4 29.0800000  0  4G 6G13G11G 9
  22215513.180    22215519.348       13630.610 8  -1713968.518 8
  20900602.663    20900607.694   -54765319.138 1  36679103.894 9
  21539166.767    21539173.526   -15109975.404 3 -12923879.155 6
                  25814014.787   -79722791.091 1
 88  3 25  6  4 59.0800000  0  4G 6G13G11G 9
  22234437.956    22234443.881      113076.366 9  -1636478.337 8
  20896230.285    20896235.033   -54788298.994 8  36661197.544 8
  21549762.583    21549768.575   -15054295.279 9 -12880492.047 8
                  20198186.401   -79731957.439 1
 88  3 25  6  5 29.0800000  0  2G 6G13
  22253437.207    22253442.762      212919.668 6  -1558678.390 6
  20891936.135    20891942.323   -54810861.704 6  36643616.237 8
 88  3 25  6  5 59.0800000  0  4G 6G13G11G 9
  22272511.580    22272517.555      313157.974 9  -1480570.637 8
  20887722.473    20887727.308   -54833008.168 7  36626359.266 8
  21571073.107    21571077.002   -14942310.631 9 -12793231.270 8
  20207410.870    20207414.073   -80016621.816 7 101671112.953 1
 88  3 25  6  6 29.0800000  0  4G 6G13G11G 9
  22291661.671    22291666.564      413788.156 9  -1402157.522 7
  20883585.791    20883592.254   -54854739.898 8  36609425.465 8
  21581787.078    21581791.461   -14886010.807 9 -12749361.278 7
  20212168.987    20212171.174   -79991643.828 8 101690575.827 1
 88  3 25  6  6 59.0800000  0  4G 6G13G11G 9
  22310884.865    22310890.102      514807.306 9  -1323441.321 8
  20879529.823    20879535.569   -54876058.494 9  36592813.606 7
  21592537.656    21592543.812   -14829509.598 9 -12705334.371 8
                  20816630.287   -80598521.466 9
 88  3 25  6  7 29.0800000  0  4G 6G13G11G 9
  22330182.583    22330188.422      616215.663 8  -1244421.831 8
  20875552.297    20875557.460   -54896962.431 8  36576524.824 7
  21603328.716    21603333.370   -14772806.020 9 -12661149.755 9
                  20222094.314   -80572228.634 1
 88  3 25  6  7 59.0800000  0  4G 6G13G11G 9
  22349553.367    22349559.795      718009.895 9  -1165101.676 8
  20871651.138    20871658.368   -54917453.395 8  36560557.877 7
  21614156.343    21614162.905   -14715903.072 8 -12616809.808 8
                  20227175.955   -80545278.333 8
 88  3 25  6  8 29.0800000  0  4G 6G13G11G 9
  22368996.614    22369002.038      820185.841 9  -1085484.064 7
  20867830.306    20867836.230   -54937533.646 8  36544910.969 7
  21625022.323    21625027.811   -14658804.486 8 -12572317.398 9
  20232428.904    20232433.370   -80517671.398 9 102645737.417 7
 88  3 25  6  8 59.0800000  0  4G 6G13G11G 9
  22388512.224    22388517.251      922740.935 9  -1005571.019 8
  20864087.961    20864093.068   -54957204.764 9  36529582.845 7
  21635924.636    21635930.168   -14601512.189 9 -12527674.049 9
  20237807.304    20237813.328   -80489408.779 9 102667760.219 7
 88  3 25  6  9 29.0800000  0  4G 6G13G11G 9
  22408099.591    22408106.087     1025673.379 8   -925363.943 8
  20860422.340    20860428.635   -54976466.832 8  36514573.460 8
  21646863.997    21646868.725   -14544027.862 9 -12482881.065 9
  20243310.003    20243314.957   -80460490.014 8 102690294.310 7
 88  3 25  6  9 59.0800000  0  4G 6G13G11G 9
  22427758.475    22427763.597     1128980.689 8   -844864.749 8
  20856834.672    20856840.903   -54995320.231 8  36499882.519 8
  21657838.376    21657843.518   -14486353.455 9 -12437939.972 8
  20248938.402    20248942.901   -80430915.262 9 102713339.561 7
 88  3 25  6 10 29.0800000  0  4G 6G13G11G 9
  22447487.679    22447493.386     1232660.552 9   -764075.269 8
  20853325.230    20853329.224   -55013766.270 8  36485508.986 7
  21668849.367    21668855.310   -14428490.442 9 -12392851.911 8
  20254690.124    20254695.638   -80400684.599 9 102736895.907 7
 88  3 25  6 10 59.0800000  0  4G 6G13G11G 9
  22467287.573    22467293.641     1336711.485 8   -682996.633 8
  20849891.423    20849897.172   -55031804.753 8  36471453.041 7
  21679896.769    21679901.492   -14370439.816 8 -12347617.644 8
  20260568.819    20260572.461   -80369797.395 9 102760963.844 7
 88  3 25  6 11 29.0800000  0  4G 6G13G11G 9
  22487158.549    22487163.616     1441129.075 8   -601632.310 8
  20846536.716    20846541.949   -55049438.766 8  36457712.268 8
  21690977.228    21690984.183   -14312205.632 9 -12302240.366 8
  20266570.368    20266575.607   -80338255.828 8 102785541.677 7
 88  3 25  6 11 59.0800000  0  4G 6G13G11G 9
  22507096.821    22507101.880     1545909.181 9   -519985.500 8
  20843256.712    20843262.342   -55066671.133 8  36444284.461 8
  21702093.790    21702098.504   -14253791.143 9 -12256722.577 8
  20272697.265    20272701.008   -80306061.948 8 102810627.817 8
 88  3 25  6 12 29.0800000  0  4G 6G13G11G 9
  22527104.693    22527109.999     1651049.890 9   -438057.702 8
  20840054.444    20840060.027   -55083501.137 8  36431170.193 8
  21713244.063    21713248.986   -14195197.683 8 -12211065.336 8
  20278948.410    20278951.247   -80273215.199 8 102836222.673 7
 88  3 25  6 12 59.0800000  0  4G 6G13G11G 9
  22547180.849    22547186.891     1756551.261 8   -355848.871 9
  20836927.501    20836935.159   -55099927.963 9  36418370.104 9
  21724427.756    21724432.880   -14136424.842 9 -12165268.319 8
  20285323.428    20285326.006   -80239713.761 8 102862327.683 8
 88  3 25  6 13 29.0800000  0  4G 6G13G11G 9
  22567325.284    22567330.745     1862409.435 9   -273362.008 8
  20833878.959    20833883.439   -55115954.029 9  36405882.259 7
  21735645.126    21735650.708   -14077475.763 9 -12119333.983 8
  20291821.511    20291826.182   -80205559.337 8 102888941.507 8
 88  3 25  6 13 59.0800000  0  4G 6G13G11G 9
  22587536.882    22587542.253     1968621.096 9   -190599.696 8
  20830904.849    20830909.302   -55131581.429 8  36393705.082 8
  21746895.921    21746901.038   -14018352.881 8 -12073264.200 8
  20298445.774    20298451.758   -80170752.970 8 102916063.321 8
 88  3 25  6 14 29.0800000  0  4G 6G13G11G 9
  22607814.397    22607820.139     2075182.751 9   -107564.673 9
  20828005.852    20828012.236   -55146811.751 9  36381837.303 7
  21758179.170    21758184.923   -13959059.307 8 -12027061.416 8
  20305193.121    20305198.010   -80135296.290 9 102943691.897 9
 88  3 25  6 14 59.0800000  0  4G 6G13G11G 9
  22628158.541    22628164.337     2182092.578 9    -24258.331 9
  20825184.695    20825188.576   -55161645.222 9  36370278.779 7
  21769494.509    21769500.212   -13899595.976 9 -11980726.345 8
  20312063.449    20312069.205   -80099189.027 9 102971827.404 7
 88  3 25  6 15 29.0800000  0  4G 6G13G11G 9
  22648568.746    22648574.503     2289347.490 9     59316.896 8
  20822436.874    20822441.528   -55176083.527 9  36359028.167 8
  21780841.799    21780847.823   -13839965.236 9 -11934260.849 8
  20319058.157    20319063.957   -80062432.110 8 103000469.154 7
 88  3 25  6 15 59.0800000  0  4G 6G13G11G 9
  22669044.942    22669050.643     2396947.346 9    143160.916 9
  20819763.546    20819769.914   -55190125.452 9  36348086.418 7
  21792221.499    21792226.829   -13780166.607 8 -11887664.505 8
  20326176.948    20326181.545   -80025023.879 8 103029618.397 7
 88  3 25  6 16 29.0800000  0  4G 6G13G11G 9
  22689585.303    22689591.142     2504887.984 9    227270.479 8
  20817167.558    20817173.172   -55203773.562 9  36337451.522 8
  21803632.243    21803637.903   -13720203.540 9 -11840940.043 8
  20333419.218    20333421.891   -79986966.166 8 103059273.758 7
 88  3 25  6 16 59.0800000  0  4G 6G13G11G 9
  22710189.195    22710194.451     2613165.098 9    311642.239 9
  20814644.735    20814649.775   -55217030.548 9  36327121.423 8
  21815073.267    21815079.612   -13660079.688 9 -11794090.299 8
  20340784.512    20340788.970   -79948261.466 8 103089433.239 7
 88  3 25  6 17 29.0800000  0  4G 6G13G11G 9
  22730856.784    22730862.677     2721774.583 8    396272.981 8
  20812195.961    20812200.556   -55229898.817 9  36317094.218 7
  21826544.776    21826549.719   -13599798.242 9 -11747117.746 8
  20348272.960    20348276.517   -79908912.275 8 103120094.925 8
 88  3 25  6 17 59.0800000  0  4G 6G13G11G 9
  22751588.193    22751593.478     2830716.288 9    481162.600 8
  20809820.349    20809826.378   -55242377.258 9  36307370.771 7
  21838045.903    21838050.902   -13539358.585 9 -11700021.901 8
  20355883.265    20355887.881   -79868916.350 8 103151260.563 7
 88  3 25  6 18 29.0800000  0  4G 6G13G11G 9
  22772381.967    22772387.814     2939988.069 9    566309.425 8
  20807520.107    20807525.745   -55254466.380 9  36297950.696 8
  21849576.744    21849582.246   -13478762.247 9 -11652803.976 9
  20363617.088    20363621.203   -79828274.167 8 103182929.784 7
 88  3 25  6 18 59.0800000  0  4G 6G13G11G 9
  22793237.213    22793244.139     3049587.920 8    651711.874 8
  20805293.626    20805299.896   -55266166.884 8  36288833.431 7
  21861137.490    21861143.001   -13418010.085 9 -11605464.646 8
  20371473.597    20371478.662   -79786985.788 7 103215102.537 8
 88  3 25  6 19 29.0800000  0  4G 6G13G11G 9
  22814155.613    22814161.170     3159511.614 8    737366.664 8
  20803140.880    20803146.877   -55277481.323 9  36280016.997 7
  21872727.557    21872732.740   -13357105.715 9 -11558006.692 8
  20379452.657    20379458.064   -79745053.574 8 103247776.978 7
 88  3 25  6 19 59.0800000  0  4G 6G13G11G 9
  22835134.846    22835140.803     3269756.883 8    823272.055 9
  20801062.672    20801066.980   -55288410.415 9  36271500.856 7
  21884345.757    21884350.657   -13296050.304 8 -11510431.048 8
  20387553.465    20387560.013   -79702477.751 8 103280952.918 8
 88  3 25  6 20 29.0800000  0  4G 6G13G11G 9
  22856174.489    22856179.501     3380319.124 9    909424.428 9
  20799054.678    20799059.516   -55298957.552 9  36263282.322 7
  21895993.453    21895997.998   -13234847.701 9 -11462740.720 8
  20395779.040    20395784.715   -79659261.554 8 103314627.860 7
 88  3 25  6 20 59.0800000  0  4G 6G13G11G 9
  22877272.539    22877278.663     3491195.975 9    995821.943 8
  20797120.147    20797125.115   -55309123.427 8  36255360.900 7
  21907667.181    21907671.630   -13173499.202 9 -11414936.697 8
  20404123.726    20404129.673   -79615405.090 6 103348801.705 7
 88  3 25  6 21 29.0800000  0  4G 6G13G11G 9
  22898431.831    22898437.663     3602386.452 9   1082463.855 9
  20795257.092    20795264.034   -55318907.532 9  36247736.922 8
  21919368.321    21919373.910   -13112005.457 9 -11367019.492 7
  20412591.784    20412596.871   -79570907.891 8 103383474.841 6
 88  3 25  6 21 59.0800000  0  4G 6G13G11G 9
  22919649.700    22919655.271     3713886.530 9   1169347.014 8
  20793468.158    20793473.755   -55328312.776 8  36240408.174 8
  21931097.093    21931102.096   -13050369.316 9 -11318991.345 9
  20421180.495    20421185.993   -79525772.069 8 103418645.602 7
 88  3 25  6 22 29.0800000  0  4G 6G13G11G 9
  22940926.119    22940932.084     3825694.050 9   1256469.745 8
  20791750.626    20791755.224   -55337339.315 8  36233374.531 7
  21942852.869    21942858.958   -12988591.990 9 -11270853.158 8
  20429891.323    20429896.034   -79479998.066 8 103454313.628 7
 88  3 25  6 22 59.0800000  0  4G 6G13G11G 9
  22962261.103    22962266.331     3937806.524 9   1343830.100 9
  20790103.898    20790110.039   -55345988.496 9  36226634.916 8
  21954635.322    21954641.234   -12926675.133 9 -11222606.268 8
  20438722.953    20438726.511   -79433586.694 8 103490478.307 6
 88  3 25  6 23 29.0800000  0  4G 6G13G11G 9
  22983651.800    22983657.860     4050218.624 9   1431423.920 9
  20788529.930    20788534.828   -55354263.930 9  36220186.541 7
  21966443.940    21966449.537   -12864622.749 9 -11174253.768 8
  20447675.781    20447681.017   -79386541.420 7 103527136.967 7
 88  3 25  6 23 59.0800000  0  4G 6G13G11G 9
  23005099.635    23005104.860     4162927.410 8   1519248.933 7
  20787025.735    20787031.359   -55362167.025 9  36214028.301 8
  21978276.297    21978283.088   -12802436.916 9 -11125797.281 8
  20456748.670    20456753.593   -79338863.757 8 103564288.357 7
 88  3 25  6 24 29.0800000  0  4G 6G13G11G 9
  23026603.440    23026610.163     4275933.102 9   1607305.283 8
  20785593.972    20785597.753   -55369696.053 9  36208161.547 7
  21990136.050    21990142.368   -12740116.446 9 -11077235.886 9
  20465942.234    20465947.503   -79290551.796 8 103601934.043 7
 88  3 25  6 24 59.0800000  0  4G 6G13G11G 9
  23048164.376    23048171.100     4389233.401 8   1695591.227 8
  20784231.465    20784235.949   -55376852.454 9  36202585.132 8
  22002020.960    22002027.077   -12677662.887 8 -11028570.773 9
  20475256.843    20475260.828   -79241606.077 8 103640073.544 7
 88  3 25  6 25 29.0800000  0  4G 6G13G11G 9
  23069779.195    23069785.372     4502823.833 8   1784103.217 8
  20782940.175    20782945.116   -55383638.349 9  36197297.440 6
  22013930.314    22013935.223   -12615079.306 9 -10979804.359 8
  20484688.944    20484694.694   -79192029.513 8 103678704.610 6
 88  3 25  6 25 59.0800000  0  4G 6G13G11G 9
  23091448.703    23091455.332     4616699.344 9   1872837.369 8
  20781718.875    20781722.854   -55390057.765 9  36192295.315 8
  22025863.170    22025869.596   -12552369.942 8 -10930939.925 8
  20494243.271    20494248.035   -79141825.785 7 103717824.385 6
 88  3 25  6 26 29.0800000  0  4G 6G13G11G 9
  23113173.176    23113179.139     4730857.923 9   1961792.074 8
  20780566.770    20780572.540   -55396110.834 9  36187578.637 7
  22037820.271    22037826.280   -12489535.608 9 -10881978.109 9
  20503915.547    20503920.554   -79090994.929 8 103757432.828 7
 88  3 25  6 26 59.0800000  0  4G 6G13G11G 9
  23134950.118    23134955.958     4845298.106 9   2050966.234 8
  20779484.324    20779490.309   -55401798.582 9  36183146.651 7
  22049801.234    22049806.994   -12426576.808 8 -10832919.316 8
  20513709.130    20513711.645   -79039537.130 8 103797529.800 7
 88  3 25  6 27 29.0800000  0  4G 6G13G11G 9
  23156781.223    23156786.759     4960018.838 8   2140358.978 9
  20778471.048    20778476.819   -55407119.799 9  36179000.256 7
  22061805.645    22061810.519   -12363493.629 9 -10783763.592 8
  20523619.987    20523625.005   -78987451.788 7 103838115.763 7
 88  3 25  6 27 59.0800000  0  4G 6G13G11G 9
  23178664.327    23178670.670     5075016.779 8   2229967.730 8
  20777528.532    20777533.986   -55412076.219 9  36175138.135 8
  22073832.671    22073838.791   -12300288.370 9 -10734512.741 8
  20533650.756    20533655.694   -78934740.898 7 103879189.173 7
 88  3 25  6 28 29.0800000  0  4G 6G13G11G 9
  23200599.481    23200604.747     5190286.425 8   2319788.198 8
  20776652.853    20776658.349   -55416672.060 9  36171556.964 8
  22085883.171    22085887.753   -12236965.250 9 -10685170.054 8
  20543798.514    20543802.294   -78881408.377 8 103920746.958 6
 88  3 25  6 28 59.0800000  0  4G 6G13G11G 9
  23222585.980    23222591.734     5305824.250 9   2409817.631 8
  20775848.906    20775853.059   -55420909.434 8  36168255.132 7
  22097954.815    22097960.546   -12173526.497 9 -10635737.260 8
  20554065.540    20554070.564   -78827456.400 8 103962787.441 8
 88  3 25  6 29 29.0800000  0  4G 6G13G11G 9
  23244622.900    23244627.500     5421627.623 9   2500054.007 7
  20775109.323    20775113.959   -55424789.873 8  36165231.419 7
  22110049.504    22110053.804   -12109973.873 8 -10586215.746 8
  20564451.260    20564455.219   -78772886.000 9 104005309.818 7
 88  3 25  6 29 59.0800000  0  4G 6G13G11G 9
  23266710.054    23266714.435     5537695.631 9   2590496.582 8
  20774438.294    20774442.032   -55428312.272 9  36162486.699 8
  22122163.272    22122170.499   -12046307.169 9 -10536605.322 8
  20574952.953    20574956.557   -78717696.844 8 104048314.342 7
 88  3 25  6 30 29.0800000  0  4G 6G13G11G 9
  23288847.174    23288851.950     5654025.528 9   2681143.240 8
  20773836.493    20773841.132   -55431477.913 8  36160019.983 7
  22134300.192    22134305.817   -11982528.125 9 -10486907.371 8
  20585572.822    20585578.297   -78661890.204 8 104091800.003 6
 88  3 25  6 30 59.0800000  0  4G 6G13G11G 9
  23311033.302    23311038.623     5770614.591 9   2771991.830 9
  20773302.261    20773307.459   -55434288.003 9  36157830.313 8
  22146459.180    22146464.812   -11918637.566 9 -10437122.523 8
  20596309.352    20596315.217   -78605467.524 7 104135765.735 7
 88  3 25  6 31 29.0800000  0  4G 6G13G11G 9
  23333268.106    23333273.583     5887458.234 9   2863038.797 8
  20772834.167    20772838.174   -55436746.333 8  36155914.735 7
  22158636.559    22158642.827   -11854639.246 8 -10387253.699 8
  20607163.920    20607167.584   -78548431.810 9 104180209.129 6
 88  3 25  6 31 59.0800000  0  4G 6G13G11G 9
  23355549.890    23355555.815     6004553.431 8   2954281.782 8
  20772432.865    20772438.463   -55438854.267 9  36154272.182 7
  22170835.711    22170841.557   -11790535.116 9 -10337302.440 9
  20618132.300    20618137.377   -78490785.074 9 104225128.634 7
 88  3 25  6 32 29.0800000  0  4G 6G13G11G 9
  23377879.564    23377884.852     6121897.761 9   3045718.879 8
  20772099.104    20772102.712   -55440612.693 9  36152902.003 7
  22183053.679    22183060.348   -11726326.391 9 -10287269.666 8
  20629218.817    20629222.728   -78432528.172 9 104270523.609 7
 88  3 25  6 32 59.0800000  0  4G 6G13G11G 9
  23400256.691    23400260.927     6239489.621 9   3137348.870 9
  20771829.606    20771834.443   -55442021.659 9  36151804.118 7
  22195293.435    22195297.907   -11662013.391 9 -10237155.646 8
  20640421.474    20640424.591   -78373661.605 8 104316393.653 7
 88  3 25  6 33 29.0800000  0  4G 6G13G11G 9
  23422680.200    23422685.726     6357325.013 9   3229168.624 9
  20771626.959    20771632.344   -55443083.681 8  36150976.571 6
  22207550.602    22207556.363   -11597598.775 9 -10186962.449 8
  20651738.197    20651742.280   -78314187.766 8 104362736.887 7
 88  3 25  6 33 59.0800000  0  4G 6G13G11G 9
  23445148.404    23445154.209     6475400.111 8   3321175.152 9
  20771491.238    20771496.208   -55443801.394 8  36150417.301 7
  22219826.923    22219832.597   -11533085.003 8 -10136691.970 9
  20663172.566    20663175.888   -78254109.588 8 104409551.029 7
 88  3 25  6 34 29.0800000  0  4G 6G13G11G 9
  23467662.053    23467668.107     6593711.474 8   3413365.788 8
  20771420.008    20771424.977   -55444176.764 9  36150124.821 8
  22232122.311    22232128.859   -11468474.510 9 -10086346.135 8
  20674718.666    20674722.597   -78193429.149 9 104456834.470 6
 88  3 25  6 34 59.0800000  0  4G 6G13G11G 9
  23490221.033    23490226.817     6712256.586 9   3505738.555 8
  20771412.840    20771419.026   -55444210.242 9  36150098.736 7
  22244435.308    22244441.655   -11403768.533 8 -10035925.904 9
  20686379.666    20686383.051   -78132147.750 8 104504586.202 8
 88  3 25  6 35 29.0800000  0  4G 6G13G11G 9
  23512823.547    23512829.042     6831033.342 8   3598291.830 8
  20771471.524    20771476.462   -55443903.145 9  36150338.063 8
  22256766.032    22256772.193   -11338967.448 9  -9985431.554 9
  20698154.776    20698160.006   -78070266.424 8 104552805.391 7
 88  3 25  6 35 59.0800000  0  4G 6G13G11G 9
  23535469.834    23535476.512     6950040.842 9   3691024.924 9
  20771595.156    20771599.381   -55443254.839 9  36150843.259 7
  22269115.331    22269120.411   -11274071.275 8  -9934863.120 9
  20710045.536    20710049.020   -78007784.978 8 104601492.216 7
 88  3 25  6 36 29.0800000  0  4G 6G13G11G 9
  23558158.664    23558165.537     7069275.091 8   3783934.706 7
  20771783.551    20771789.321   -55442267.453 9  36151612.661 7
  22281482.725    22281488.776   -11209082.358 8  -9884222.414 9
  20722049.208    20722053.727   -77944706.124 7 104650644.540 6
 88  3 25  6 36 59.0800000  0  4G 6G13G11G 9
  23580891.224    23580897.294     7188730.565 9   3877016.862 8
  20772033.964    20772040.276   -55440945.360 9  36152642.868 7
  22293866.306    22293872.017   -11144004.981 9  -9833512.785 9
  20734164.541    20734168.961   -77881034.373 9 104700258.886 7
 88  3 25  6 37 29.0800000  0  4G 6G13G11G 9
  23603664.254    23603670.943     7308404.281 9   3970269.083 8
  20772350.126    20772353.847   -55439290.680 9  36153932.238 7
  22306266.788    22306272.096   -11078840.893 8  -9782735.585 8
  20746393.554    20746399.299   -77816771.641 8 104750333.720 8
 88  3 25  6 37 59.0800000  0  4G 6G13G11G 9
  23626478.948    23626484.458     7428295.300 9   4063690.647 8
  20772726.588    20772732.956   -55437302.803 9  36155481.240 8
  22318683.819    22318689.716   -11013589.504 9  -9731890.357 8
  20758734.914    20758740.773   -77751917.542 8 104800869.362 7
 88  3 25  6 38 29.0800000  0  4G 6G13G11G 9
  23649334.783    23649339.656     7548401.189 9   4157279.642 7
  20773169.271    20773174.455   -55434982.198 9  36157289.518 8
  22331116.668    22331122.929   -10948251.783 8  -9680977.859 8
  20771189.520    20771193.948   -77686473.704 8 104851864.545 8
 88  3 25  6 38 59.0800000  0  4G 6G13G11G 9
  23672229.421    23672236.653     7668717.346 9   4251032.481 7
  20773673.313    20773678.110   -55432332.374 9  36159354.309 7
  22343566.046    22343572.392   -10882831.099 9  -9630000.713 8
  20783754.005    20783760.589   -77620443.433 8 104903316.678 8
 88  3 25  6 39 29.0800000  0  4G 6G13G11G 9
  23695164.399    23695169.720     7789240.746 9   4344946.820 9
  20774240.717    20774245.127   -55429354.342 9  36161674.865 8
  22356030.673    22356036.207   -10817328.958 8  -9578960.093 8
  20796430.162    20796434.285   -77553829.219 9 104955223.848 7
 88  3 25  6 39 59.0800000  0  4G 6G13G11G 9
  23718138.477    23718144.517     7909969.215 9   4439020.933 8
  20774869.077    20774874.505   -55426049.361 9  36164250.167 7
  22368510.752    22368515.805   -10751746.191 8  -9527856.649 9
  20809216.576    20809221.845   -77486631.902 8 105007585.365 7
 88  3 25  6 40 29.0800000  0  4G 6G13G11G 9
  23741149.833    23741156.638     8030900.020 8   4533252.725 8
  20775560.468    20775565.497   -55422418.645 9  36167079.301 7
  22381005.446    22381011.406   -10686084.047 9  -9476691.345 8
  20822114.929    20822119.490   -77418853.336 8 105060399.824 7
 88  3 25  6 40 59.0800000  0  4G 6G13G11G 9
  23764200.742    23764207.394     8152029.140 8   4627639.011 8
  20776312.533    20776316.042   -55418465.311 9  36170159.836 7
  22393515.737    22393521.240   -10620344.881 8  -9425466.037 8
  20835122.779    20835128.569   -77350496.630 8 105113664.768 8
 88  3 25  6 41 29.0800000  0  4G 6G13G11G 9
  23787287.595    23787293.829     8273352.810 8   4722176.914 8
  20777125.626    20777130.521   -55414191.117 9  36173490.373 7
  22406039.507    22406044.230   -10554531.493 9  -9374182.874 8
  20848240.635    20848245.069   -77281564.639 9 105167377.985 7
 88  3 25  6 41 59.0800000  0  4G 6G13G11G 9
  23810413.010    23810416.854     8394869.123 7   4816864.897 9
  20777999.532    20778006.018   -55409596.705 9  36177070.450 7
  22418577.516    22418583.620   -10488643.981 8  -9322841.955 8
  20861466.866    20861472.197   -77212058.495 9 105221538.602 7
 88  3 25  6 42 29.0800000  0  4G 6G13G11G 9
  23833572.670    23833578.597     8516576.763 9   4911701.977 7
  20778935.098    20778939.893   -55404681.933 9  36180900.150 8
  22431129.982    22431135.506   -10422682.330 8  -9271443.274 7
  20874802.709    20874808.537   -77141978.293 8 105276146.535 7
 88  3 25  6 42 59.0800000  0  4G 6G13G11G 9
  23856766.743    23856774.404     8638471.108 7   5006684.546 9
  20779930.874    20779936.415   -55399450.257 9  36184976.788 8
  22443694.805    22443700.780   -10356649.520 8  -9219989.140 7
  20888247.635    20888251.592   -77071328.046 9 105331198.659 7
 88  3 25  6 43 29.0800000  0  4G 6G13G11G 9
  23879998.153    23880004.748     8760548.162 9   5101809.485 9
  20780986.406    20780990.831   -55393904.166 9  36189298.428 7
  22456274.164    22456279.977   -10290547.981 8  -9168481.449 8
  20901800.341    20901804.801   -77000110.860 8 105386692.547 8
 88  3 25  6 43 59.0800000  0  4G 6G13G11G 9
  23903262.307    23903270.172     8882806.005 9   5197075.310 9
  20782101.280    20782106.635   -55388043.923 9  36193864.860 7
  22468866.601    22468870.856   -10224378.082 9  -9116920.492 9
  20915458.725    20915463.667   -76928327.827 9 105442627.387 8
 88  3 25  6 44 29.0800000  0  4G 6G13G11G 9
  23926562.480    23926568.222     9005241.771 9   5292479.774 8
  20783275.809    20783281.049   -55381870.875 9  36198675.050 7
  22481470.521    22481474.609   -10158141.250 8  -9065307.369 8
  20929225.923    20929231.408   -76855980.875 9 105499001.608 7
 88  3 25  6 44 59.0800000  0  4G 6G13G11G 9
  23949893.773    23949900.403     9127852.091 9   5388020.265 8
  20784509.389    20784515.046   -55375387.661 9  36203726.914 7
  22494087.103    22494093.077   -10091839.522 9  -9013643.698 8
  20943100.052    20943105.227   -76783072.913 9 105555813.006 8
 88  3 25  6 45 29.0800000  0  4G 6G13G11G 9
  23973259.020    23973265.269     9250633.655 9   5483694.206 8
  20785802.399    20785806.449   -55368595.906 9  36209019.204 6
  22506715.222    22506721.288   -10025474.320 9  -8961930.551 8
  20957080.549    20957085.770   -76709606.106 9 105613059.836 7
 88  3 25  6 45 59.0800000  0  4G 6G13G11G 9
  23996655.166    23996662.841     9373584.738 9   5579500.241 8
  20787153.101    20787157.956   -55361495.813 9  36214551.755 7
  22519356.449    22519362.438    -9959045.809 9  -8910168.086 8
  20971167.099    20971171.726   -76635581.778 9 105670741.130 7
 88  3 25  6 46 29.0800000  0  4G 6G13G11G 9
  24020084.795    24020090.909     9496701.314 9   5675435.225 8
  20788562.373    20788568.443   -55354089.821 9  36220322.671 8
  22532009.173    22532014.913    -9892556.720 9  -8858358.413 8
  20985358.460    20985363.980   -76561002.983 9 105728854.474 8
 88  3 25  6 46 59.0800000  0  4G 6G13G11G 9
  24043543.330    24043549.607     9619980.516 9   5771496.929 8
  20790029.264    20790034.363   -55346379.596 9  36226330.637 7
  22544672.765    22544678.633    -9826008.080 8  -8806502.348 8
  20999655.931    20999661.038   -76485872.192 9 105787397.924 8
 88  3 25  6 47 29.0800000  0  4G 6G13G11G 9
  24067032.719    24067038.653     9743417.248 8   5867681.394 7
  20791554.126    20791559.092   -55338369.007 9  36232572.661 7
  22557347.054    22557353.345    -9759403.309 8  -8754602.533 9
  21014057.207    21014061.950   -76410193.594 8 105846368.253 7
 88  3 25  6 47 59.0800000  0  4G 6G13G11G 9
  24090550.714    24090557.148     9867011.475 9   5963988.573 6
  20793136.150    20793141.147   -55330056.327 9  36239050.086 8
  22570032.453    22570039.043    -9692741.118 9  -8702657.979 8
  21028562.832    21028566.883   -76333966.799 9 105905765.742 7
 88  3 25  6 48 29.0800000  0  4G 6G13G11G 9
  24114100.521    24114104.940     9990759.784 8   6060415.842 8
  20794775.097    20794779.808   -55321443.909 9  36245761.064 7
  22582728.685    22582734.940    -9626023.166 8  -8650669.967 8
  21043171.811    21043177.168   -76257194.289 9 105965588.457 7
 88  3 25  6 48 59.0800000  0  4G 6G13G11G 9
  24137677.825    24137682.987    10114658.998 6   6156960.645 7
  20796469.950    20796475.104   -55312533.667 9  36252704.105 7
  22595436.122    22595440.958    -9559250.893 8  -8598639.640 9
  21057883.982    21057888.809   -76179878.911 9 106025834.198 6
 88  3 25  6 49 29.0800000  0  4G 6G13G11G 9
  24161282.208    24161287.610    10238706.837 7   6253621.270 8
  20798222.570    20798226.549   -55303326.245 9  36259878.732 7
  22608151.705    22608157.336    -9492425.052 9  -8546567.565 8
  21072700.733    21072703.632   -76102022.224 9 106086501.734 7
 88  3 25  6 49 59.0800000  0  4G 6G13G11G 9
  24184914.835    24184921.817    10362898.160 7   6350393.691 8
  20800030.380    20800034.289   -55293825.621 8  36267281.810 8
  22620877.686    22620883.388    -9425549.007 8  -8494456.374 9
  21087618.419    21087623.356   -76023628.893 8 106147587.423 8
 88  3 25  6 50 29.0800000  0  4G 3G13G11G 9
                  23211524.488   -96198428.539 9
  20801893.959    20801898.935   -55284034.159 9  36274911.549 9
  22633613.837    22633620.242    -9358625.278 9  -8442308.021 9
  21102636.918    21102642.394   -75944701.863 8 106209088.992 7
 88  3 25  6 50 59.0800000  0  4G 3G13G11G 9
  23199731.275    23199738.769   -96260367.622 8 122074713.123 8
  20803812.772    20803817.353   -55273951.227 9  36282768.360 7
  22646356.769    22646363.728    -9291652.775 9  -8390121.672 8
  21117758.559    21117763.538   -75865241.801 9 106271005.908 6
 88  3 25  6 51 29.0800000  0  4G 3G13G11G 9
  23187988.028    23187996.057   -96322076.232 8 122026628.529 8
  20805786.169    20805792.055   -55263577.349 9  36290851.921 8
  22659110.743    22659117.504    -9224631.876 9  -8337897.600 9
  21132979.566    21132984.599   -75785250.274 9 106333336.942 7
 88  3 25  6 51 59.0800000  0  4G 3G13G11G 9
  23176291.389    23176296.482   -96383554.974 9 121978723.060 8
  20807815.025    20807819.873   -55252915.193 9  36299160.102 7
  22671872.978    22671879.557    -9157564.697 9  -8285637.468 8
  21148302.479    21148307.517   -75704730.625 8 106396079.511 7
 88  3 25  6 52 29.0800000  0  4G 3G13G11G 9
  23164635.650    23164639.818   -96444804.700 8 121930996.018 8
  20809898.841    20809904.355   -55241967.661 9  36307690.655 8
  22684644.544    22684650.727    -9090454.009 9  -8233343.438 9
  21163723.473    21163729.370   -75623686.560 8 106459230.710 8
 88  3 25  6 52 59.0800000  0  4G 3G13G11G 9
  23153023.242    23153029.870   -96505824.552 8 121883448.114 9
  20812035.941    20812041.574   -55230735.433 9  36316443.042 8
  22697423.541    22697429.650    -9023299.880 9  -8181015.546 8
  21179245.867    21179251.125   -75542119.479 9 106522789.452 8
 88  3 25  6 53 29.0800000  0  4G 3G13G11G 9
  23141456.857    23141460.116   -96566615.685 8 121836078.427 9
  20814227.964    20814231.975   -55219220.875 9  36325415.429 7
  22710210.283    22710215.512    -8956104.443 9  -8128655.471 9
  21194867.298    21194870.727   -75460032.883 9 106586753.033 7
 88  3 25  6 53 59.0800000  0  4G 3G13G11G 9
  23129930.938    23129936.446   -96627177.767 8 121788887.220 8
  20816471.498    20816477.234   -55207424.992 9  36334607.038 8
  22723005.771    22723010.622    -8888867.920 9  -8076263.376 9
  21210586.895    21210591.209   -75377428.646 8 106651119.940 7
 88  3 25  6 54 29.0800000  0  4G 3G13G11G 9
  23118449.899    23118455.446   -96687511.850 9 121741873.686 8
  20818768.769    20818774.667   -55195350.523 9  36344015.706 7
  22735806.795    22735813.002    -8821592.525 9  -8023841.011 8
  21226402.941    21226407.758   -75294309.933 9 106715887.754 8
 88  3 25  6 54 59.0800000  0  4G 3G13G11G 9
  23107011.310    23107017.573   -96747618.057 9 121695037.695 8
  20821120.075    20821125.522   -55182997.857 9  36353641.179 8
  22748616.792    22748621.524    -8754279.268 9  -7971389.128 8
  21242317.771    21242321.314   -75210679.306 8 106781054.454 8
 88  3 25  6 55 29.0800000  0  4G 3G13G11G 9
  23095617.690    23095623.719   -96807495.720 8 121648379.816 8
  20823523.909    20823528.159   -55170368.503 8  36363482.240 7
  22761432.895    22761437.659    -8686928.768 9  -7918908.227 8
  21258327.998    21258332.706   -75126538.669 8 106846618.569 7
 88  3 25  6 55 59.0800000  0  4G 3G13G11G 9
  23084266.320    23084272.609   -96867145.305 9 121601899.639 8
  20825979.424    20825983.791   -55157464.412 9  36373537.381 7
  22774256.501    22774261.586    -8619542.073 9  -7866399.121 8
  21274436.458    21274442.248   -75041890.738 9 106912577.979 8
 88  3 25  6 56 29.0800000  0  4G 3G13G11G 9
  23072959.063    23072964.039   -96926568.802 9 121555595.648 9
  20828485.853    20828490.358   -55144288.815 9  36383804.079 8
  22787085.109    22787090.778    -8552122.463 9  -7813864.371 8
  21290640.789    21290644.741   -74956739.922 8 106978929.258 8
 88  3 25  6 56 59.0800000  0  4G 3G13G11G 9
  23061693.847    23061699.238   -96985765.513 9 121509468.380 8
  20831045.177    20831050.454   -55130842.569 9  36394281.690 9
  22799921.218    22799927.497    -8484669.927 9  -7761303.948 9
  21306939.560    21306943.579   -74871087.930 9 107045671.052 7
 88  3 25  6 57 29.0800000  0  4G 3G13G11G 9
  23050473.515    23050477.504   -97044734.016 9 121463518.907 8
  20833655.667    20833661.201   -55117125.161 9  36404970.566 8
  22812763.223    22812769.300    -8417184.178 9  -7708717.654 8
  21323332.912    21323338.622   -74784935.977 8 107112802.442 8
 88  3 25  6 57 59.0800000  0  4G 3G13G11G 9
  23039294.483    23039299.188   -97103475.996 8 121417745.958 8
  20836317.249    20836322.058   -55103139.150 9  36415868.775 7
  22825611.255    22825616.361    -8349667.299 9  -7656107.101 8
  21339822.394    21339827.248   -74698287.920 9 107180320.375 6
 88  3 25  6 58 29.0800000  0  4G 3G13G11G 9
  23028158.499    23028165.168   -97161992.248 8 121372148.908 9
  20839028.428    20839033.883   -55088888.524 9  36426973.157 7
  22838464.964    22838470.578    -8282121.665 9  -7603474.141 8
  21356404.064    21356409.765   -74611147.321 8 107248222.135 8
 88  3 25  6 58 59.0800000  0  4G 3G13G11G 9
  23017066.689    23017072.363   -97220284.153 8 121326726.670 9
  20841789.470    20841795.701   -55074374.562 9  36438282.736 8
  22851323.814    22851329.662    -8214548.869 9  -7550820.006 8
  21373080.035    21373083.867   -74523517.566 9 107316505.048 7
 88  3 25  6 59 29.0800000  0  4G 3G13G11G 9
  23006016.274    23006022.066   -97278349.979 9 121281480.590 9
  20844601.439    20844607.235   -55059597.068 9  36449797.666 8
  22864187.835    22864193.873    -8146948.178 8  -7498144.156 7
  21389847.453    21389852.151   -74435399.524 8 107385168.439 7
 88  3 25  6 59 59.0800000  0  4G 3G13G11G 9
  22995010.616    22995015.628   -97336188.777 9 121236411.424 9
  20847464.002    20847470.241   -55044556.617 8  36461517.493 7
  22877055.053    22877062.241    -8079319.834 9  -7445446.738 8
  21406708.499    21406712.446   -74346794.969 9 107454210.953 7
 88  3 25  7  0 29.0800000  0  4G 3G13G11G 9
  22984046.730    22984052.776   -97393804.117 9 121191516.391 9
  20850376.035    20850380.953   -55029257.278 9  36473439.063 7
  22889930.634    22889936.739    -8011667.808 8  -7392730.871 7
  21423662.001    21423665.096   -74257709.521 9 107523628.166 8
 88  3 25  7  0 59.0800000  0  4G 3G13G11G 9
  22973125.815    22973131.231   -97451195.259 9 121146796.037 9
  20853336.372    20853340.685   -55013700.631 9  36485561.135 8
  22902809.056    22902814.757    -7943992.477 8  -7339996.867 9
  21440703.567    21440710.173   -74168145.464 9 107593418.320 8
 88  3 25  7  1 29.0800000  0  4G 3G13G11G 9
  22962246.187    22962252.452   -97508361.597 9 121102250.858 7
  20856345.420    20856350.282   -54997886.941 9  36497883.517 7
  22915691.601    22915696.194    -7876293.670 9  -7287244.565 8
  21457839.436    21457844.715   -74078104.279 8 107663580.268 8
 88  3 25  7  1 59.0800000  0  4G 3G13G11G 9
  22951410.815    22951417.234   -97565303.733 9 121057880.378 9
  20859402.935    20859408.220   -54981817.915 8  36510404.835 8
  22928578.831    22928584.233    -7808572.297 8  -7234474.675 8
  21475063.004    21475069.022   -73987588.921 9 107734111.697 8
 88  3 25  7  2 29.0800000  0  4G 3G13G11G 9
  22940617.538    22940624.010   -97622023.493 8 121013683.190 8
  20862509.372    20862515.298   -54965496.820 8  36523122.573 7
  22941468.675    22941475.294    -7740831.315 9  -7181689.499 8
  21492377.008    21492384.172   -73896603.845 9 107805009.145 8
 88  3 25  7  2 59.0800000  0  4G 3G13G11G 9
  22929866.472    22929872.423   -97678519.616 8 120969660.268 9
  20865662.352    20865668.764   -54948924.101 9  36536036.376 8
  22954364.450    22954370.275    -7673070.560 8  -7128888.930 8
  21509780.400    21509783.990   -73805150.903 9 107876271.159 8
 88  3 25  7  3 29.0800000  0  4G 3G13G11G 9
  22919157.733    22919164.135   -97734792.088 9 120925811.613 9
  20868864.463    20868868.731   -54932100.994 9  36549145.283 8
  22967262.054    22967267.373    -7605290.375 9  -7076073.207 8
  21527271.688    21527277.499   -73713232.141 9 107947896.163 7
 88  3 25  7  3 59.0800000  0  4G 3G13G11G 9
  22908492.112    22908497.811   -97790842.899 9 120882135.673 8
  20872111.871    20872116.448   -54915030.443 9  36562447.021 8
  22980161.790    22980168.679    -7537493.301 9  -7023244.325 8
  21544852.406    21544857.401   -73620851.761 9 108019880.859 7
 88  3 25  7  4 29.0800000  0  4G 3G13G11G 9
  22897867.939    22897874.323   -97846671.888 8 120838632.587 9
  20875407.682    20875413.082   -54897713.851 8  36575940.484 8
  22993066.896    22993072.909    -7469679.992 9  -6970402.793 8
  21562517.995    21562523.392   -73528012.577 9 108092223.073 7
 88  3 25  7  4 59.0800000  0  4G 3G13G11G 9
  22887285.538    22887291.764   -97902281.512 9 120795300.445 8
  20878749.854    20878753.697   -54880154.255 9  36589623.288 8
  23005973.988    23005980.169    -7401853.662 9  -6917551.101 8
  21580271.018    21580277.101   -73434719.539 9 108164918.920 8
 88  3 25  7  5 29.0800000  0  4G 3G13G11G 9
  22876745.614    22876751.678   -97957669.270 8 120752141.163 9
  20882136.908    20882142.200   -54862350.263 9  36603496.522 7
  23018883.875    23018889.756    -7334011.962 9  -6864687.450 8
  21598110.782    21598115.531   -73340972.553 9 108237968.498 7
 88  3 25  7  5 59.0800000  0  4G 3G13G11G 9
  22866247.780    22866253.948   -98012834.516 8 120709155.286 9
  20885571.536    20885575.872   -54844302.708 9  36617559.563 8
  23031796.567    23031802.517    -7266155.062 9  -6811811.967 9
  21616036.801    21616040.966   -73246773.107 9 108311370.667 8
 88  3 25  7  6 29.0800000  0  4G 3G13G11G 9
  22855793.484    22855798.541   -98067778.879 9 120666341.511 9
  20889051.986    20889055.789   -54826014.377 8  36631810.217 8
  23044713.151    23044717.960    -7198285.148 9  -6758926.321 8
  21634046.548    21634051.186   -73152126.190 9 108385121.492 8
 88  3 25  7  6 59.0800000  0  4G 3G13G11G 9
  22845378.252    22845385.288   -98122505.375 9 120623697.530 8
  20892577.069    20892582.348   -54807489.302 9  36646245.346 9
  23057629.675    23057634.457    -7130405.901 9  -6706033.415 8
  21652142.111    21652146.970   -73057037.032 9 108459216.938 7
 88  3 25  7  7 29.0800000  0  4G 3G13G11G 9
  22835005.888    22835012.232   -98177015.213 8 120581222.334 9
  20896147.505    20896152.801   -54788729.738 9  36660863.182 7
  23070547.331    23070553.859    -7062518.552 9  -6653134.202 8
  21670320.372    21670326.410   -72961509.012 9 108533654.334 7
 88  3 25  7  7 59.0800000  0  4G 3G13G11G 9
  22824675.925    22824681.061   -98231304.924 9 120538918.695 9
  20899762.109    20899766.623   -54769734.780 9  36675664.457 8
  23083467.584    23083474.199    -6994621.069 9  -6600227.096 9
  21688581.667    21688586.203   -72865541.888 9 108608433.917 7
 88  3 25  7  8 29.0800000  0  4G 3G13G11G 9
  22814386.177    22814392.478   -98285373.610 8 120496787.286 9
  20903420.621    20903425.376   -54750503.929 9  36690649.548 8
  23096390.332    23096396.344    -6926713.091 8  -6547311.789 9
  21706927.601    21706932.403   -72769137.499 7 108683554.190 8
 88  3 25  7  8 59.0800000  0  4G 3G13G11G 9
  22804139.062    22804143.920   -98339223.986 8 120454825.960 8
  20907124.148    20907130.052   -54731040.655 9  36705815.728 8
  23109315.012    23109320.650    -6858797.105 9  -6494390.253 7
  21725355.067    21725359.005   -72672300.563 8 108759011.535 8
 88  3 25  7  9 29.0800000  0  4G 3G13G11G 9
  22793931.559    22793937.684   -98392860.548 8 120413031.259 8
  20910872.072    20910877.502   -54711350.434 9  36721158.762 8
  23122238.149    23122245.342    -6790878.420 8  -6441466.622 8
  21743863.470    21743869.171   -72575038.186 9 108834800.377 8
 88  3 25  7  9 59.0800000  0  4G 3G13G11G 9
  22783766.876    22783772.271   -98446280.904 8 120371405.047 8
  20914661.566    20914666.746   -54691432.432 9  36736679.297 8
  23135164.361    23135170.789    -6722954.801 8  -6388539.152 8
  21762452.614    21762457.830   -72477350.984 8 108910920.253 8
 88  3 25  7 10 29.0800000  0  4G 3G13G11G 9
  22773640.247    22773647.667   -98499482.520 9 120329949.273 8
  20918494.912    20918501.242   -54671285.655 9  36752378.076 8
  23148090.473    23148097.399    -6655024.438 7  -6335606.427 7
  21781122.843    21781127.172   -72379238.813 8 108987371.284 8
 88  3 25  7 10 59.0800000  0  4G 3G13G11G 9
  22763558.856    22763565.451   -98552467.334 8 120288662.424 8
  20922371.852    20922377.493   -54650912.578 9  36768253.207 7
  23161018.884    23161025.759    -6587089.267 8  -6282669.940 8
  21799874.080    21799877.217   -72280706.069 9 109064150.034 7
 88  3 25  7 11 29.0800000  0  4G 3G13G11G 9
  22753518.016    22753523.518   -98605237.076 8 120247543.162 8
  20926292.001    20926297.069   -54630316.024 8  36784302.470 8
  23173946.812    23173952.883    -6519151.740 8  -6229731.612 8
  21818702.430    21818706.237   -72181757.077 8 109141253.136 7
 88  3 25  7 11 59.0800000  0  4G 3G13G11G 9
  22743516.764    22743521.696   -98657792.345 8 120206591.030 8
  20930254.030    20930257.141   -54609498.090 8  36800524.250 8
  23186874.593    23186880.861    -6451212.669 9  -6176792.090 8
  21837609.858    21837614.955   -72082395.157 9 109218677.991 8
 88  3 25  7 12 29.0800000  0  4G 3G13G11G 9
  22733556.678    22733562.609   -98710133.273 9 120165805.900 8
  20934256.606    20934262.279   -54588459.619 9  36816917.882 8
  23199803.626    23199811.236    -6383273.053 8  -6123852.142 8
  21856596.750    21856601.113   -71982623.347 9 109296422.241 7
 88  3 25  7 12 59.0800000  0  4G 3G13G11G 9
  22723637.548    22723642.733   -98762259.876 9 120125187.798 8
  20938302.060    20938307.306   -54567202.275 9  36833482.031 7
  23212732.240    23212737.816    -6315333.231 9  -6070912.031 8
  21875660.017    21875664.461   -71882444.135 9 109374483.947 8
 88  3 25  7 13 29.0800000  0  4G 3G13G11G 9
  22713758.115    22713764.538   -98814172.129 9 120084736.697 8
  20942388.612    20942393.802   -54545727.074 9  36850215.952 7
  23225661.425    23225667.415    -6247393.312 8  -6017971.865 8
  21894800.325    21894805.518   -71781860.347 8 109452860.921 7
 88  3 25  7 13 59.0800000  0  4G 3G13G11G 9
  22703920.622    22703926.903   -98865871.805 8 120044451.255 8
  20946516.560    20946521.787   -54524036.437 9  36867117.753 8
  23238589.131    23238595.182    -6179455.255 9  -5965033.129 8
  21914016.734    21914022.072   -71680875.762 8 109531550.191 7
 88  3 25  7 14 29.0800000  0  4G 3G13G11G 9
  22694123.623    22694128.581   -98917359.806 9 120004330.747 9
  20950684.364    20950690.799   -54502132.207 9  36884185.985 8
  23251517.104    23251522.205    -6111520.120 9  -5912096.676 8
  21933309.245    21933314.213   -71579493.966 8 109610548.980 8
 88  3 25  7 14 59.0800000  0  4G 3G13G11G 9
  22684365.355    22684371.070   -98968636.149 9 119964375.191 7
  20954893.683    20954897.694   -54480015.783 9  36901419.558 8
  23264444.412    23264448.565    -6043588.588 8  -5859163.017 8
  21952676.501    21952681.969   -71477718.213 8 109689854.745 8
 88  3 25  7 15 29.0800000  0  4G 3G13G11G 9
  22674647.552    22674653.947   -99019700.915 8 119924584.468 7
  20959142.111    20959147.171   -54457687.652 9  36918818.099 8
  23277369.425    23277376.899    -5975661.045 9  -5806232.476 7
  21972118.016    21972123.360   -71375551.228 9 109769465.363 8
 88  3 25  7 15 59.0800000  0  4G 3G13G11G 9
  22664970.783    22664976.453   -99070553.643 9 119884958.996 8
  20963430.662    20963436.170   -54435149.068 9  36936380.623 8
  23290295.739    23290300.543    -5907737.101 9  -5753304.754 8
  21991634.537    21991639.363   -71272994.795 9 109849379.452 8
 88  3 25  7 16 29.0800000  0  4G 3G13G11G 9
  22655333.943    22655340.168   -99121195.549 8 119845497.785 8
  20967759.555    20967765.459   -54412401.925 9  36954105.684 8
  23303220.728    23303225.612    -5839818.124 9  -5700380.897 8
  22011222.619    22011228.099   -71170053.023 8 109929593.806 7
 88  3 25  7 16 59.0800000  0  4G 3G13G11G 9
  22645737.157    22645743.471   -99171629.725 9 119806198.444 9
  20972127.344    20972131.335   -54389450.716 9  36971989.748 8
  23316143.329    23316147.494    -5771907.442 9  -5647463.502 9
  22030884.019    22030889.468   -71066731.670 9 110010103.932 9
 88  3 25  7 17 29.0800000  0  4G 3G13G11G 9
  22636178.763    22636185.574   -99221854.905 9 119767061.967 7
  20976533.221    20976539.369   -54366295.216 9  36990032.986 7
  23329065.075    23329070.667    -5704004.074 9  -5594551.782 7
  22050617.458    22050623.526   -70963032.331 8 110090908.592 7
 88  3 25  7 17 59.0800000  0  4G 3G13G11G 9
  22626661.563    22626667.434   -99271869.602 8 119728089.483 8
  20980978.597    20980983.236   -54342934.730 9  37008235.982 8
  23341984.423    23341990.902    -5636107.348 8  -5541645.265 9
  22070422.657    22070428.217   -70858956.149 9 110172006.889 8
 88  3 25  7 18 29.0800000  0  4G 3G13G11G 9
  22617183.708    22617190.314   -99321675.357 8 119689279.824 8
  20985462.965    20985468.482   -54319371.293 9  37026597.101 8
  23354904.203    23354909.928    -5568217.983 9  -5488744.492 8
  22090299.198    22090303.284   -70754506.832 9 110253395.952 9
 88  3 25  7 18 59.0800000  0  4G 3G13G11G 9
  22607746.089    22607750.851   -99371275.302 8 119650630.528 9
  20989984.724    20989988.840   -54295609.170 9  37045113.051 8
  23367820.874    23367826.476    -5500339.767 9  -5435852.382 8
  22110245.124    22110250.547   -70649690.514 9 110335070.988 8
 88  3 25  7 19 29.0800000  0  4G 3G13G11G 9
  22598346.293    22598351.359   -99420669.071 8 119612141.889 8
  20994544.294    20994548.299   -54271649.363 9  37063783.016 8
  23380735.605    23380742.208    -5432472.250 9  -5382968.620 8
  22130260.007    22130265.603   -70544509.446 8 110417030.242 8
 88  3 25  7 19 59.0800000  0  4G 3G13G11G 9
  22588986.366    22588992.600   -99469855.626 9 119573814.732 8
  20999140.864    20999147.605   -54247491.335 9  37082607.465 7
  23393648.210    23393655.411    -5364614.362 8  -5330092.364 8
  22150344.216    22150350.033   -70438965.163 9 110499272.528 8
 88  3 25  7 20 29.0800000  0  4G 3G13G12G 9
  22579666.033    22579671.270   -99518836.269 8 119535648.014 8
  21003775.542    21003780.906   -54223137.967 9  37101584.116 9
                  20786175.915  -106931069.396 9
  22170497.525    22170502.644   -70333061.838 9 110581794.598 8
 88  3 25  7 20 59.0800000  0  4G 3G13G12G 9
  22570384.412    22570389.861   -99567612.800 8 119497640.362 9
  21008446.250    21008452.249   -54198592.213 9  37120710.671 7
  20789306.276    20789311.866  -106914642.374 8 135741278.454 7
  22190717.279    22190722.848   -70226803.978 8 110664592.906 8
 88  3 25  7 21 29.0800000  0  4G 3G13G12G 9
  22561140.404    22561146.334   -99616184.700 9 119459792.146 8
  21013153.615    21013158.580   -54173853.783 9  37139987.371 8
  20792554.905    20792560.904  -106897569.035 9 135754582.340 8
  22211004.334    22211009.798   -70120193.732 9 110747665.800 7
 88  3 25  7 21 59.0800000  0  4G 3G13G12G 9
  22551937.205    22551942.832   -99664550.087 9 119422104.842 8
  21017898.124    21017902.592   -54148921.939 9  37159414.796 8
  20795926.918    20795933.760  -106879846.911 7 135768391.766 9
  22231358.940    22231364.711   -70013231.797 9 110831012.756 8
 88  3 25  7 22 29.0800000  0  4G 3G13G12G 9
  22542771.845    22542777.865   -99712712.690 9 119384575.562 8
  21022677.591    21022684.328   -54123801.145 9  37178989.433 7
  20799421.318    20799428.117  -106861479.956 8 135782703.672 8
  22251778.554    22251783.705   -69905924.616 8 110914628.718 8
 88  3 25  7 22 59.0800000  0  4G 3G13G12G 9
  22533645.559    22533651.100   -99760673.322 9 119347203.673 8
  21027494.632    21027499.147   -54098492.830 9  37198710.207 8
  20803040.359    20803045.011  -106842468.718 8 135797517.596 8
  22272264.146    22272269.468   -69798275.459 9 110998511.168 8
 88  3 25  7 23 29.0800000  0  4G 3G13G12G 9
  22524557.594    22524562.856   -99808431.619 9 119309989.424 8
  21032345.918    21032351.715   -54072997.850 9  37218576.423 7
  20806781.442    20806786.567  -106822812.848 9 135812833.850 8
  22292813.238    22292819.740   -69690287.600 9 111082657.537 8
 88  3 25  7 23 59.0800000  0  4G 3G13G12G 9
  22515506.993    22515513.382   -99855987.629 8 119272932.819 8
  21037232.727    21037237.794   -54047317.037 9  37238587.434 8
  20810643.420    20810649.779  -106802511.992 8 135828652.688 9
  22313427.034    22313432.974   -69581963.038 9 111167066.268 8
 88  3 25  7 24 29.0800000  0  4G 3G13G12G 9
  22506497.057    22506501.461   -99903342.114 9 119236033.239 8
  21042155.452    21042160.011   -54021452.455 9  37258741.672 7
  20814627.008    20814635.201  -106781566.936 8 135844973.489 8
  22334103.773    22334109.339   -69473305.395 9 111251734.555 8
 88  3 25  7 24 59.0800000  0  4G 3G13G12G 9
  22497523.000    22497529.045   -99950497.224 8 119199289.019 8
  21047110.350    21047116.144   -53995406.725 9  37279037.038 7
  20818735.911    20818743.682  -106759979.539 8 135861794.818 7
  22354843.062    22354848.499   -69364319.222 9 111336658.822 8
 88  3 25  7 25 29.0800000  0  4G 3G13G12G 9
  22488587.282    22488593.196   -99997452.737 9 119162700.325 8
  21052101.508    21052108.547   -53969180.382 9  37299473.143 8
  20822966.292    20822973.329  -106737749.852 8 135879116.634 7
  22375643.974    22375649.499   -69255007.433 9 111421836.813 8
 88  3 25  7 25 59.0800000  0  4G 3G13G12G 9
  22479690.758    22479696.254  -100044208.217 9 119126267.507 8
  21057126.324    21057130.721   -53942774.311 9  37320049.307 8
  20827319.738    20827325.961  -106714877.676 8 135896939.101 8
  22396507.520    22396512.935   -69145372.335 9 111507266.744 8
 88  3 25  7 26 29.0800000  0  4G 3G13G12G 9
  22470829.749    22470835.687  -100090765.961 8 119089988.757 8
  21062185.383    21062190.633   -53916191.303 9  37340763.347 7
  20831793.442    20831800.008  -106691364.767 7 135915260.831 8
  22417430.503    22417435.597   -69035418.598 9 111592944.957 7
 88  3 25  7 26 59.0800000  0  4G 3G13G12G 9
  22462008.327    22462013.997  -100137127.433 9 119053862.960 8
  21067277.857    21067282.707   -53889433.749 9  37361613.387 6
  20836390.362    20836396.281  -106667212.770 9 135934080.559 8
  22438414.037    22438421.049   -68925150.261 9 111678868.312 8
 88  3 25  7 27 29.0800000  0  4G 3G13G12G 9
  22453224.325    22453229.136  -100183291.463 9 119017890.992 7
  21072402.000    21072408.108   -53862501.402 9  37382599.617 8
  20841108.642    20841113.737  -106642420.948 9 135953398.834 8
  22459457.173    22459462.364   -68814569.443 9 111765035.168 8
 88  3 25  7 27 59.0800000  0  4G 3G13G12G 9
  22444476.146    22444482.413  -100229257.944 9 118982072.980 8
  21077560.102    21077566.841   -53835394.710 9  37403721.718 8
  20845947.769    20845954.300  -106616989.490 8 135973215.553 7
  22480558.960    22480564.304   -68703678.432 9 111851443.729 8
 88  3 25  7 28 29.0800000  0  4G 3G13G12G 9
  22435767.059    22435771.931  -100275027.021 9 118946408.780 8
  21082750.879    21082756.603   -53808114.424 9  37424979.071 7
  20850908.647    20850913.940  -106590918.359 8 135993530.693 7
  22501719.383    22501724.125   -68592480.194 8 111938091.690 8
 88  3 25  7 28 59.0800000  0  4G 3G13G12G 9
  22427094.083    22427100.116  -100320599.773 8 118910897.554 8
  21087975.061    21087979.642   -53780662.856 8  37446369.919 7
  20855991.139    20855997.117  -106564208.834 8 136014343.301 9
  22522936.954    22522942.157   -68480978.727 9 112024975.925 8
 88  3 25  7 29 29.0800000  0  4G 3G13G12G 9
  22418460.200    22418465.424  -100365979.392 8 118875536.840 8
  21093230.642    21093235.411   -53753043.999 9  37467891.091 8
  20861193.992    20861201.670  -106536864.303 8 136035650.711 8
  22544212.425    22544216.246   -68369179.498 9 112112092.190 8
 88  3 25  7 29 59.0800000  0  4G 3G13G12G 9
  22409860.444    22409864.980  -100411166.158 9 118840326.396 8
  21098518.433    21098523.488   -53725258.727 9  37489541.955 7
  20866519.024    20866523.930  -106508884.701 8 136057452.981 7
  22565542.439    22565548.579   -68257085.513 9 112199438.144 8
 88  3 25  7 30 29.0800000  0  4G 3G13G12G 9
  22401299.035    22401304.900  -100456158.006 9 118805267.832 9
  21103837.389    21103842.792   -53697305.268 8  37511323.884 7
  20871964.977    20871971.162  -106480268.688 8 136079751.152 8
  22586929.317    22586934.519   -68144697.651 9 112287013.090 7
 88  3 25  7 30 59.0800000  0  4G 3G13G12G 9
  22392774.261    22392779.738  -100500955.615 8 118770360.634 8
  21109189.214    21109195.061   -53669185.326 9  37533235.518 9
  20877531.157    20877536.801  -106451017.281 9 136102544.439 7
  22608371.173    22608377.773   -68032019.413 8 112374814.297 7
 88  3 25  7 31 29.0800000  0  4G 3G13G12G 9
  22384284.420    22384292.091  -100545562.068 8 118735602.370 8
  21114570.672    21114575.917   -53640902.701 9  37555273.929 8
  20883217.727    20883223.724  -106421133.677 8 136125830.356 8
  22629868.271    22629874.169   -67919056.396 9 112462837.399 8
 88  3 25  7 31 59.0800000  0  4G 3G13G12G 9
  22375832.875    22375838.992  -100589978.948 9 118700991.827 9
  21119983.627    21119989.294   -53612459.785 9  37577437.223 8
  20889024.020    20889029.001  -106390619.771 9 136149607.407 7
  22651417.386    22651422.572   -67805812.907 9 112551079.076 8
 88  3 25  7 32 29.0800000  0  4G 3G13G12G 9
  22367417.036    22367422.738  -100634205.397 8 118666529.677 8
  21125427.496    21125430.987   -53583856.102 9  37599725.799 8
  20894950.878    20894956.253  -106359474.662 9 136173876.309 8
  22673019.238    22673025.061   -67692291.014 8 112639537.679 8
 88  3 25  7 32 59.0800000  0  4G 3G13G12G 9
  22359037.664    22359043.972  -100678240.668 9 118632216.503 8
  21130900.288    21130904.691   -53555092.157 9  37622139.265 7
  20900997.485    20901003.642  -106327698.893 9 136198636.645 8
  22694674.732    22694680.651   -67578492.531 9 112728211.807 8
 88  3 25  7 33 29.0800000  0  4G 3G13G12G 9
  22350695.626    22350699.748  -100722085.886 9 118598051.422 8
  21136404.360    21136408.636   -53526169.819 9  37644676.163 8
  20907164.269    20907169.437  -106295293.663 9 136223887.453 7
  22716381.213    22716386.849   -67464421.175 9 112817098.551 8
 88  3 25  7 33 59.0800000  0  4G 3G13G12G 9
  22342386.936    22342392.462  -100765742.039 9 118564033.642 8
  21141937.522    21141942.921   -53497090.356 9  37667335.485 8
  20913451.547    20913456.050  -106262260.067 9 136249627.906 8
  22738139.845    22738145.006   -67350081.043 8 112906194.756 9
 88  3 25  7 34 29.0800000  0  4G 3G13G12G 9
  22334115.948    22334120.578  -100809210.560 9 118530162.102 8
  21147500.634    21147506.080   -53467855.940 8  37690115.549 7
  20919854.739    20919860.363  -106228599.933 9 136275856.566 8
  22759949.014    22759953.928   -67235476.057 8 112995497.312 9
 88  3 25  7 34 59.0800000  0  4G 3G13G12G 9
  22325878.781    22325883.421  -100852492.795 9 118496435.707 8
  21153092.507    21153098.198   -53438468.578 9  37713014.781 8
  20926380.823    20926385.678  -106194315.184 9 136302571.931 8
  22781806.679    22781812.312   -67120610.285 9 113085003.094 8
 88  3 25  7 35 29.0800000  0  4G 3G13G12G 9
  22317678.893    22317682.973  -100895589.104 8 118462854.182 8
  21158712.397    21158719.736   -53408928.889 9  37736032.724 8
  20933022.706    20933027.900  -106159407.127 9 136329772.999 8
  22803714.394    22803719.200   -67005486.466 8 113174709.946 9
 88  3 25  7 35 59.0800000  0  4G 3G13G12G 9
  22309511.999    22309517.753  -100938498.375 9 118429418.399 8
  21164362.983    21164369.439   -53379236.806 8  37759169.400 8
  20939784.765    20939789.873  -106123874.727 9 136357460.577 8
  22825670.007    22825676.250   -66890106.404 8 113264616.489 8
 88  3 25  7 36 29.0800000  0  4G 3G13G12G 9
  22301382.633    22301387.968  -100981221.838 9 118396127.405 8
  21170042.639    21170048.246   -53349394.249 9  37782423.349 7
  20946664.708    20946670.580  -106087719.600 9 136385633.390 7
  22847673.907    22847679.272   -66774474.390 8 113354719.329 7
 88  3 25  7 36 59.0800000  0  4G 3G13G12G 9
  22293286.112    22293293.354  -101023760.019 8 118362980.795 8
  21175750.220    21175756.073   -53319402.553 9  37805793.494 7
  20953662.319    20953666.896  -106050943.110 8 136414290.394 8
  22869725.639    22869731.299   -66658593.374 9 113445016.202 8
 88  3 25  7 37 29.0800000  0  4G 3G13G12G 9
  22285227.591    22285233.263  -101066115.793 8 118329976.313 9
  21181485.776    21181490.569   -53289265.195 9  37829277.149 8
  20960779.127    20960783.476  -106013548.985 9 136443428.640 7
  22891822.476    22891829.782   -66542468.849 8 113535502.823 8
 88  3 25  7 37 59.0800000  0  4G 3G13G12G 9
  22277203.074    22277207.219  -101108288.814 8 118297114.232 8
  21187248.123    21187253.547   -53258982.253 8  37852874.252 7
  20968011.985    20968018.294  -105975537.481 9 136473047.978 8
  22913967.140    22913973.750   -66426103.708 9 113626176.955 8
 88  3 25  7 38 29.0800000  0  4G 3G13G12G 9
  22269212.223    22269217.320  -101150278.813 9 118264394.764 8
  21193039.431    21193043.499   -53228554.178 9  37876584.432 9
  20975363.913    20975368.804  -105936908.689 9 136503148.322 8
  22936157.041    22936160.988   -66309499.857 9 113717037.091 8
 88  3 25  7 38 59.0800000  0  4G 3G13G12G 9
  22261256.882    22261262.336  -101192084.562 8 118231818.881 8
  21198855.769    21198861.042   -53197980.393 9  37900408.152 8
  20982830.556    20982836.707  -105897662.432 9 136533729.811 7
  22958389.986    22958394.599   -66192659.536 8 113808081.483 9
 88  3 25  7 39 29.0800000  0  4G 3G13G12G 9
  22253334.335    22253340.478  -101233710.564 9 118199383.064 8
  21204701.157    21204706.929   -53167265.672 9  37924341.696 8
  20990416.111    20990421.883  -105857803.976 9 136564788.340 6
  22980668.713    22980672.879   -66075589.528 9 113899304.844 8
 88  3 25  7 39 59.0800000  0  4G 3G13G12G 9
  22245447.873    22245453.808  -101275157.572 9 118167086.694 8
  21210572.600    21210577.329   -53136411.596 9  37948383.845 7
  20998116.906    20998123.578  -105817334.195 9 136596323.215 7
  23002987.826    23002994.521   -65958293.261 8 113990704.518 9
 88  3 25  7 40 29.0800000  0  4G 3G13G12G 9
  22237595.928    22237601.696  -101316422.777 9 118134932.002 7
  21216470.747    21216476.845   -53105415.854 8  37972536.361 8
  21005935.124    21005941.701  -105776251.522 9 136628335.671 7
  23025352.233    23025357.797   -65840770.705 9 114082280.503 8
 88  3 25  7 40 59.0800000  0  4G 3G13G12G 9
  22229777.888    22229782.715  -101357508.403 9 118102917.245 8
  21222395.500    21222400.822   -53074280.708 9  37996797.505 8
  21013869.308    21013874.505  -105734559.343 9 136660823.076 7
  23047758.222    23047763.526   -65723026.777 8 114174029.005 8
 88  3 25  7 41 29.0800000  0  4G 3G13G12G 9
  22221992.462    22221998.671  -101398414.771 8 118071042.166 9
  21228345.958    21228351.790   -53043007.570 9  38021166.181 7
  21021918.788    21021923.270  -105692258.598 9 136693784.671 9
  23070205.481    23070211.162   -65605064.601 8 114265947.568 9
 88  3 25  7 41 59.0800000  0  4G 3G13G12G 9
  22214241.763    22214248.094  -101439144.646 9 118039304.606 8
  21234323.147    21234328.771   -53011599.610 9  38045639.913 7
  21030082.821    21030089.152  -105649352.600 9 136727217.917 7
  23092693.416    23092698.928   -65486889.509 8 114358032.036 8
 88  3 25  7 42 29.0800000  0  4G 3G13G12G 9
  22206524.863    22206531.207  -101479698.923 8 118007703.904 8
  21240325.391    21240331.647   -52980058.306 9  38070217.553 8
  21038362.433    21038368.982  -105605843.172 9 136761121.345 8
  23115221.706    23115227.465   -65368504.817 8 114450279.841 9
 88  3 25  7 42 59.0800000  0  4G 3G13G12G 9
  22198841.492    22198847.505  -101520076.161 9 117976241.133 9
  21246353.702    21246359.000   -52948382.515 9  38094899.983 8
  21046757.256    21046762.963  -105561730.038 8 136795495.200 7
  23137788.736    23137794.916   -65249912.299 9 114542689.568 9
 88  3 25  7 43 29.0800000  0  4G 3G13G12G 9
  22191192.087    22191197.334  -101560276.949 9 117944915.859 9
  21252406.163    21252411.617   -52916573.867 9  38119685.924 7
  21055266.860    21055270.637  -105517014.705 9 136830338.297 8
  23160395.091    23160401.275   -65131115.276 8 114635258.677 8
 88  3 25  7 43 59.0800000  0  4G 3G13G12G 9
  22183575.195    22183579.703  -101600302.904 8 117913726.821 9
  21258484.307    21258489.734   -52884633.640 9  38144574.414 8
  21063888.921    21063894.547  -105471699.248 9 136865649.015 8
  23183040.797    23183045.911   -65012117.634 9 114727984.102 9
 88  3 25  7 44 29.0800000  0  4G 3G13G12G 9
  22175990.074    22175997.739  -101640155.816 8 117882672.635 8
  21264587.034    21264592.603   -52852564.530 9  38169563.331 8
  21072626.528    21072630.674  -105425787.021 8 136901424.756 9
  23205721.412    23205727.928   -64892923.983 9 114820862.259 8
 88  3 25  7 44 59.0800000  0  4G 3G13G12G 9
  22168439.870    22168446.086  -101679835.263 9 117851753.595 9
  21270714.024    21270719.025   -52820366.682 9  38194652.568 9
  21081476.695    21081481.960  -105379278.766 8 136937664.942 7
  23228440.641    23228446.964   -64773536.791 8 114913891.232 8
 88  3 25  7 45 29.0800000  0  4G 3G13G12G 9
  22160922.542    22160928.292  -101719340.831 8 117820970.056 9
  21276865.765    21276870.690   -52788039.826 9  38219842.319 8
  21090440.106    21090445.725  -105332174.443 9 136974369.591 8
  23251195.266    23251199.981   -64653958.542 8 115007069.078 8
 88  3 25  7 45 59.0800000  0  4G 3G13G12G 9
  22153437.354    22153441.848  -101758674.469 8 117790320.499 8
  21283040.783    21283046.859   -52755586.822 9  38245130.372 8
  21099516.814    21099521.912  -105284476.954 9 137011536.445 8
  23273985.441    23273991.789   -64534193.630 9 115100392.366 9
 88  3 25  7 46 29.0800000  0  4G 3G13G12G 9
  22145985.671    22145991.575  -101797835.793 9 117759805.192 8
  21289240.126    21289245.659   -52723007.632 9  38270516.743 8
  21108705.452    21108711.427  -105236187.572 9 137049164.518 8
  23296811.845    23296817.166   -64414244.399 8 115193859.285 8
 88  3 25  7 46 59.0800000  0  4G 3G13G12G 9
  22138566.440    22138572.366  -101836825.946 9 117729423.261 8
  21295463.725    21295468.670   -52690303.931 9  38296000.154 7
  21118007.585    21118013.307  -105187308.148 9 137087252.373 7
  23319671.489    23319677.069   -64294114.742 8 115287466.794 8
 88  3 25  7 47 29.0800000  0  4G 3G13G12G 9
  22131177.522    22131183.873  -101875646.781 8 117699173.281 8
  21301710.692    21301716.297   -52657477.957 9  38321578.821 7
  21127420.137    21127425.255  -105137842.484 9 137125797.023 8
  23342564.712    23342570.025   -64173809.654 8 115381210.994 8
 88  3 25  7 47 59.0800000  0  4G 3G13G12G 9
  22123823.380    22123828.119  -101914299.080 8 117669054.623 9
  21307980.306    21307985.210   -52624530.731 9  38347251.988 7
  21136943.843    21136950.690  -105087792.201 8 137164797.233 7
  23365489.991    23365496.952   -64053332.243 8 115475089.489 9
 88  3 25  7 48 29.0800000  0  4G 3G13G12G 9
  22116500.787    22116505.571  -101952782.645 9 117639067.446 8
  21314273.161    21314279.344   -52591462.377 9  38373019.543 8
  21146580.432    21146585.900  -105037158.020 9 137204252.425 7
  23388449.517    23388455.073   -63932684.778 9 115569100.477 8
 88  3 25  7 48 59.0800000  0  4G 3G13G12G 9
  22109208.788    22109214.993  -101991095.857 9 117609213.009 7
  21320588.959    21320594.223   -52558271.825 9  38398882.294 7
  21156326.619    21156332.496  -104985939.329 9 137244163.074 8
  23411439.837    23411445.509   -63811868.686 8 115663242.881 7
 88  3 25  7 49 29.0800000  0  4G 3G13G12G 9
  22101951.125    22101956.237  -102029240.823 9 117579489.671 8
  21326927.213    21326931.843   -52524961.173 9  38424838.642 7
  21166183.731    21166189.808  -104934139.516 8 137284526.548 8
  23434461.046    23434467.122   -63690888.067 8 115757513.484 9
 88  3 25  7 49 59.0800000  0  4G 3G13G12G 9
  22094722.459    22094728.023  -102067221.875 8 117549894.065 9
  21333288.736    21333293.341   -52491535.142 9  38450884.887 7
  21176150.814    21176155.573  -104881764.044 9 137325338.583 7
  23457513.481    23457519.133   -63569750.241 9 115851906.582 7
 88  3 25  7 50 29.0800000  0  4G 3G13G12G 9
  22087525.981    22087531.303  -102105038.952 9 117520426.229 7
  21339670.846    21339675.931   -52457994.228 9  38477020.671 7
  21186226.600    21186232.324  -104828814.535 9 137366597.936 8
  23480594.551    23480599.925   -63448458.185 8 115946419.861 8
 88  3 25  7 50 59.0800000  0  4G 3G13G12G 9
  22080362.649    22080368.091  -102142689.397 9 117491088.226 8
  21346076.499    21346080.758   -52424336.570 9  38503247.421 8
  21196412.125    21196417.480  -104775289.785 9 137408305.523 8
  23503703.885    23503711.027   -63327012.086 9 116041053.190 8
 88  3 25  7 51 29.0800000  0  4G 3G13G12G 9
  22073229.998    22073233.895  -102180173.539 9 117461879.824 8
  21352502.945    21352507.960   -52390563.247 9  38529564.282 7
  21206706.406    21206711.608  -104721191.755 9 137450459.805 7
  23526844.502    23526849.528   -63205415.086 8 116135804.094 8
 88  3 25  7 51 59.0800000  0  4G 3G13G12G 9
  22066125.867    22066131.677  -102217494.743 8 117432798.375 8
  21358951.227    21358956.165   -52356676.834 9  38555969.280 7
  21217109.206    21217114.989  -104666524.684 9 137493057.514 7
  23550011.033    23550016.804   -63083672.656 8 116230668.323 7
 88  3 25  7 52 29.0800000  0  4G 3G13G12G 9
  22059056.746    22059060.571  -102254653.593 8 117403843.464 8
  21365421.694    21365425.132   -52322679.050 9  38582461.058 8
  21227620.301    21227625.434  -104611290.608 9 137536097.047 8
  23573204.193    23573210.368   -62961788.348 8 116325643.102 9
 88  3 25  7 52 59.0800000  0  4G 3G13G12G 9
  22052015.128    22052019.763  -102291649.978 8 117375015.122 8
  21371911.323    21371916.948   -52288569.771 9  38609039.727 7
  21238239.227    21238243.878  -104555490.735 9 137579577.441 8
  23596426.026    23596430.541   -62839764.494 9 116420726.615 9
 88  3 25  7 53 29.0800000  0  4G 3G13G12G 9
  22045006.790    22045011.370  -102328483.805 8 117346313.429 8
  21378423.563    21378429.072   -52254349.119 9  38635705.168 8
  21248964.442    21248968.553  -104499126.395 9 137623497.706 8
  23619671.221    23619677.283   -62717603.856 9 116515916.710 9
 88  3 25  7 53 59.0800000  0  4G 3G13G12G 9
  22038028.105    22038032.978  -102365156.342 9 117317737.467 8
  21384956.975    21384961.334   -52220018.826 9  38662456.037 7
  21259796.812    21259802.946  -104442199.926 9 137667855.974 8
  23642942.987    23642949.530   -62595310.227 8 116611210.438 9
 88  3 25  7 54 29.0800000  0  4G 3G13G12G 9
  22031079.356    22031084.940  -102401669.937 9 117289285.321 8
  21391509.949    21391513.990   -52185581.632 9  38689290.200 7
  21270735.927    21270741.462  -104384716.107 8 137712648.551 8
  23666238.365    23666245.714   -62472888.814 8 116706603.727 9
 88  3 25  7 54 59.0800000  0  4G 3G13G12G 9
  22024161.981    22024166.590  -102438024.573 9 117260957.043 9
  21398083.068    21398087.447   -52151037.270 9  38716207.892 8
  21281780.834    21281786.858  -104326675.829 8 137757874.715 8
  23689558.423    23689564.866   -62350342.221 8 116802094.561 9
 88  3 25  7 55 29.0800000  0  4G 3G13G12G 9
  22017275.169    22017279.205  -102474218.830 9 117232753.723 8
  21404677.020    21404682.495   -52116385.503 9  38743209.273 9
  21292931.369    21292936.210  -104268079.642 9 137803534.076 8
  23712902.101    23712908.529   -62227671.830 8 116897681.854 8
 88  3 25  7 55 59.0800000  0  4G 3G13G12G 9
  22010416.742    22010421.792  -102510254.234 9 117204674.204 7
  21411291.670    21411295.576   -52081628.307 9  38770292.791 8
  21304186.757    21304192.380  -104208930.954 8 137849623.933 9
  23736267.836    23736275.870   -62104882.164 7 116993362.077 8
 88  3 25  7 56 29.0800000  0  4G 3G13G12G 9
  22003590.262    22003594.132  -102546133.413 8 117176716.423 8
  21417924.814    21417930.729   -52046767.778 9  38797456.837 7
  21315546.265    21315551.676  -104149233.223 8 137896141.637 8
  23759655.167    23759661.662   -61981978.194 8 117089131.391 8
 88  3 25  7 56 59.0800000  0  4G 3G13G12G 9
  21996791.470    21996796.388  -102581855.619 9 117148880.942 8
  21424577.634    21424582.950   -52011803.643 9  38824701.629 8
  21327010.632    21327015.442  -104088987.463 8 137943086.362 8
  23783065.267    23783071.890   -61858961.743 8 117184988.339 8
 88  3 25  7 57 29.0800000  0  4G 3G13G12G 9
  21990023.178    21990028.352  -102617421.349 9 117121167.405 8
  21431251.365    21431256.328   -51976736.947 9  38852026.314 7
  21338579.179    21338584.297  -104028196.193 9 137990456.166 8
  23806495.955    23806501.430   -61735835.824 9 117280930.605 8
 88  3 25  7 57 59.0800000  0  4G 3G13G12G 9
  21983286.265    21983289.947  -102652832.129 9 117093574.605 9
  21437943.279    21437948.945   -51941569.291 9  38879429.688 8
  21350250.601    21350256.249  -103966862.271 9 138038248.814 8
  23829946.311    23829951.420   -61612605.082 8 117376954.553 8
 88  3 25  7 58 29.0800000  0  4G 3G13G12G 9
  21976574.650    21976580.466  -102688088.674 9 117066101.986 8
  21444655.679    21444659.233   -51906301.449 9  38906911.125 8
  21362024.288    21362030.888  -103904988.411 9 138086462.199 8
  23853415.101    23853421.048   -61489272.767 8 117473057.666 8
 88  3 25  7 58 59.0800000  0  4G 3G13G12G 9
  21969896.035    21969901.845  -102723190.618 9 117038749.838 8
  21451384.733    21451390.547   -51870933.449 9  38934470.597 7
  21373901.338    21373907.550  -103842575.462 9 138135095.643 8
  23876904.052    23876908.334   -61365840.730 9 117569238.441 8
 88  3 25  7 59 29.0800000  0  4G 3G13G12G 9
  21963246.540    21963250.779  -102758138.165 9 117011517.990 8
  21458133.749    21458139.530   -51835465.542 9  38962107.928 8
  21385881.413    21385886.446  -103779625.659 9 138184147.425 8
  23900410.266    23900416.254   -61242312.423 9 117665494.290 9
 88  3 25  7 59 59.0800000  0  4G 3G13G12G 9
  21956624.249    21956628.430  -102792934.813 9 116984403.742 8
  21464902.576    21464907.065   -51799901.264 9  38989820.347 8
  21397960.314    21397967.330  -103716144.006 9 138233613.607 8
  23923934.683    23923939.437   -61118693.516 8 117761820.716 8
 88  3 25  8  0 29.0800000  0  4G 3G13G12G 9
  21950031.955    21950036.740  -102827580.008 9 116957407.500 8
  21471687.620    21471693.149   -51764240.547 9  39017607.922 7
  21410142.567    21410147.502  -103652131.834 9 138283493.227 8
  23947474.914    23947479.827   -60994986.180 8 117858216.049 8
 88  3 25  8  0 59.0800000  0  4G 3G13G12G 9
  21943467.881    21943473.591  -102862072.391 8 116930530.332 7
  21478492.722    21478497.530   -51728482.313 9  39045471.473 8
  21422424.194    21422431.050  -103587589.855 9 138333785.648 7
  23971030.836    23971036.856   -60871192.059 8 117954678.988 8
 88  3 25  8  1 29.0800000  0  4G 3G13G12G 9
  21936933.991    21936938.524  -102896412.755 9 116903771.625 8
  21485315.714    21485321.627   -51692627.693 9  39073410.156 8
  21434806.655    21434812.430  -103522520.440 8 138384489.075 7
  23994603.927    23994610.563   -60747314.608 8 118051206.869 8
 88  3 25  8  1 59.0800000  0  4G 3G13G12G 9
  21930426.611    21930433.090  -102930602.376 9 116877130.359 8
  21492156.373    21492161.030   -51656678.565 9  39101422.445 8
  21447288.688    21447293.983  -103456927.020 9 138435600.815 8
  24018192.448    24018200.075   -60623357.640 7 118147796.698 8
 88  3 25  8  2 29.0800000  0  4G 3G13G12G 9
  21923949.955    21923954.527  -102964642.664 9 116850605.484 8
  21499014.912    21499020.299   -51620635.169 9  39129508.210 8
  21459869.642    21459875.461  -103390811.957 9 138487119.027 8
  24041796.882    24041801.776   -60499324.516 7 118244445.859 8
 88  3 25  8  2 59.0800000  0  4G 3G13G12G 9
  21917500.155    21917504.018  -102998535.043 9 116824195.853 8
  21505890.691    21505896.788   -51584500.248 9  39157665.300 7
  21472549.462    21472555.289  -103324179.568 9 138539040.344 8
  24065410.836    24065418.978   -60375219.964 7 118341150.671 9
 88  3 25  8  3 29.0800000  0  4G 3G13G12G 9
  21911077.674    21911083.936  -103032280.277 9 116797900.869 8
  21512784.619    21512789.578   -51548274.431 9  39185893.207 9
  21485326.825    21485333.673  -103257032.474 9 138591362.733 8
  24089041.930    24089048.412   -60251047.598 8 118437908.332 8
 88  3 25  8  3 59.0800000  0  4G 3G13G12G 9
  21904685.118    21904690.436  -103065877.028 9 116771721.613 8
  21519695.790    21519701.372   -51511956.726 9  39214192.705 8
  21498202.505    21498208.096  -103189371.592 9 138644085.478 9
  24112683.588    24112689.475   -60126808.761 8 118534717.794 9
 88  3 25  8  4 29.0800000  0  4G 3G13G12G 9
  21898320.121    21898323.926  -103099327.273 9 116745656.512 8
  21526624.291    21526628.947   -51475548.303 9  39242562.909 8
  21511175.445    21511180.150  -103121199.891 9 138697206.274 8
  24136337.138    24136343.474   -60002507.483 8 118631575.911 9
 88  3 25  8  4 59.0800000  0  4G 3G13G12G 9
  21891981.248    21891986.939  -103132632.415 9 116719704.480 8
  21533569.410    21533574.060   -51439051.592 9  39271001.887 8
  21524243.653    21524250.507  -103052520.569 9 138750722.612 8
  24160001.920    24160009.385   -59878147.852 8 118728479.505 8
 88  3 25  8  5 29.0800000  0  4G 3G13G12G 9
  21885672.099    21885676.698  -103165791.766 9 116693866.016 8
  21540531.936    21540536.373   -51402465.973 9  39299510.172 7
  21537409.583    21537416.213  -102983336.031 9 138804632.634 8
  24183677.201    24183683.221   -59753732.410 9 118825426.596 9
 88  3 25  8  5 59.0800000  0  4G 3G13G12G 9
  21879388.761    21879394.639  -103198805.251 9 116668141.240 9
  21547509.880    21547515.679   -51365792.014 8  39328087.280 8
  21550670.764    21550676.242  -102913648.122 9 138858934.888 7
  24207363.046    24207368.976   -59629263.708 9 118922415.196 9
 88  3 25  8  6 29.0800000  0  4G 3G13G12G 9
  21873134.460    21873140.397  -103231673.884 9 116642529.339 9
  21554505.940    21554511.216   -51329029.872 9  39356733.099 7
  21564026.809    21564033.505  -102843459.251 9 138913627.487 7
  24231059.557    24231064.614   -59504744.848 9 119019442.882 8
 88  3 25  8  6 59.0800000  0  4G 3G13G12G 9
  21866907.470    21866913.858  -103264397.780 9 116617030.236 8
  21561517.820    21561523.209   -51292179.461 8  39385447.714 8
  21577479.303    21577485.214  -102772771.683 9 138968708.715 8
  24254763.649    24254768.125   -59380178.629 9 119116507.466 8
 88  3 25  8  7 29.0800000  0  4G 3G13G12G 9
  21860707.239    21860713.419  -103296978.892 9 116591642.353 8
  21568546.425    21568552.776   -51255243.183 9  39414229.213 7
  21591023.669    21591030.606  -102701589.474 9 139024175.336 8
  24278475.498    24278480.436   -59255569.477 9 119213605.506 8
 88  3 25  8  7 59.0800000  0  4G 3G13G12G 9
  21854533.955    21854540.311  -103329419.008 9 116566364.365 9
  21575591.216    21575597.050   -51218223.569 9  39443075.668 9
  21604662.866    21604669.795  -102629916.599 9 139080024.308 8
  24302193.215    24302199.100   -59130922.387 9 119310733.113 7
 88  3 25  8  8 29.0800000  0  4G 3G13G12G 9
  21848387.670    21848394.331  -103361719.401 9 116541195.242 8
  21582652.529    21582656.736   -51181121.629 9  39471986.263 8
  21618394.616    21618400.989  -102557756.691 9 139136252.809 8
  24325919.339    24325926.313   -59006240.835 7 119407887.577 8
 88  3 25  8  8 59.0800000  0  4G 3G13G12G 9
  21842267.741    21842273.470  -103393877.816 8 116516136.755 7
  21589728.739    21589733.963   -51143935.409 9  39500962.539 8
  21632218.545    21632224.540  -102485109.294 9 139192861.157 7
  24349653.290    24349659.120   -58881525.250 9 119505068.546 8
 88  3 25  8  9 29.0800000  0  4G 3G13G12G 9
  21836176.008    21836181.140  -103425893.792 8 116491189.256 9
  21596820.419    21596825.905   -51106664.927 9  39530004.455 8
  21646136.113    21646142.492  -102411976.965 9 139249847.363 8
  24373392.277    24373397.068   -58756778.426 8 119602273.860 7
 88  3 25  8  9 59.0800000  0  4G 3G13G12G 9
  21830111.161    21830116.105  -103457768.625 9 116466351.726 8
  21603929.051    21603934.008   -51069311.436 9  39559111.073 8
  21660143.868    21660150.103  -102338363.011 9 139307208.865 7
  24397134.432    24397141.581   -58632003.943 7 119699500.718 8
 88  3 25  8 10 29.0800000  0  4G 3G13G12G 9
  21824071.776    21824076.318  -103489503.757 9 116441623.075 8
  21611051.795    21611057.888   -51031876.133 9  39588281.436 7
  21674244.041    21674249.499  -102264270.282 9 139364943.445 8
  24420880.728    24420889.964   -58507205.479 6 119796746.239 8
 88  3 25  8 10 59.0800000  0  4G 3G13G12G 9
  21818058.966    21818063.520  -103521102.470 8 116417000.713 8
  21618191.265    21618196.554   -50994362.285 9  39617513.006 8
  21688433.483    21688437.935  -102189704.567 9 139423046.587 7
  24444635.821    24444641.146   -58382389.342 8 119894005.547 8
 88  3 25  8 11 29.0800000  0  4G 3G13G12G 9
  21812071.162    21812076.585  -103552564.063 9 116392485.192 8
  21625344.830    21625350.854   -50956769.460 9  39646806.103 8
  21702712.710    21702718.305  -102114667.989 9 139481516.647 8
  24468390.465    24468395.400   -58257557.378 8 119991277.181 8
 88  3 25  8 11 59.0800000  0  4G 3G13G12G 9
  21806111.134    21806115.727  -103583886.208 9 116368078.342 9
  21632513.917    21632518.080   -50919095.275 9  39676162.619 8
  21717081.189    21717087.040  -102039159.874 9 139540354.112 7
  24492146.727    24492154.721   -58132709.537 8 120088561.207 7
 88  3 25  8 12 29.0800000  0  4G 3G13G12G 9
  21800176.212    21800182.318  -103615071.235 9 116343778.313 8
  21639698.187    21639703.465   -50881341.500 9  39705581.144 8
  21731538.611    21731544.627  -101963185.056 8 139599555.269 8
  24515908.322    24515914.230   -58007850.864 9 120185853.671 8
 88  3 25  8 12 59.0800000  0  4G 3G13G12G 9
  21794268.365    21794272.843  -103646120.226 9 116319584.331 8
  21646898.039    21646903.546   -50843509.772 9  39735060.401 9
  21746084.098    21746090.151  -101886747.213 9 139659117.208 8
  24539668.467    24539675.594   -57882985.028 9 120283151.700 9
 88  3 25  8 13 29.0800000  0  4G 3G13G12G 9
  21788386.171    21788391.830  -103677033.457 9 116295496.110 9
  21654110.953    21654116.151   -50805600.421 9  39764600.159 8
  21760716.453    21760722.968  -101809848.439 9 139719038.311 8
  24563432.214    24563437.718   -57758114.708 9 120380453.243 9
 88  3 25  8 13 59.0800000  0  4G 3G13G12G 9
  21782527.860    21782534.822  -103707812.779 8 116271512.230 8
  21661340.192    21661344.920   -50767615.082 9  39794199.114 8
  21775438.080    21775444.474  -101732492.990 9 139779315.272 7
  24587192.729    24587199.707   -57633244.373 9 120477754.805 9
 88  3 25  8 14 29.0800000  0  4G 3G13G12G 9
  21776697.182    21776702.320  -103738456.087 8 116247634.316 8
  21668583.264    21668587.665   -50729551.902 9  39823858.737 9
  21790244.515    21790250.433  -101654681.709 8 139839947.417 8
  24610954.882    24610961.102   -57508374.764 9 120575055.791 9
 88  3 25  8 14 59.0800000  0  4G 3G13G12G 9
  21770891.473    21770896.845  -103768964.239 9 116223861.759 9
  21675840.994    21675845.777   -50691412.052 9  39853578.086 8
  21805138.110    21805143.290  -101576417.504 9 139900932.493 7
  24634716.617    24634721.198   -57383509.950 9 120672353.040 9
 88  3 25  8 15 29.0800000  0  4G 3G13G12G 9
  21765111.530    21765117.213  -103799340.127 9 116200192.239 9
  21683112.878    21683117.157   -50653198.562 9  39883354.818 8
  21820116.289    21820121.596  -101497705.938 9 139962266.171 8
  24658474.642    24658481.080   -57258655.154 9 120769642.475 9
 88  3 25  8 15 59.0800000  0  4G 3G13G12G 9
  21759356.572    21759361.411  -103829585.101 8 116176624.748 9
  21690397.865    21690403.490   -50614912.206 8  39913188.338 8
  21835179.150    21835183.903  -101418550.058 9 140023946.050 8
  24682230.094    24682237.380   -57133813.624 8 120866921.607 8
 88  3 25  8 16 29.0800000  0  4G 3G13G12G 9
  21753624.831    21753631.330  -103859696.619 9 116153161.230 9
  21697697.503    21697702.545   -50576550.450 9  39943080.609 8
  21850326.796    21850332.644  -101338950.402 9 140085971.750 8
  24705985.299    24705991.299   -57008985.626 8 120964190.179 9
 88  3 25  8 16 59.0800000  0  4G 3G13G12G 9
  21747921.160    21747926.174  -103889675.180 9 116129801.321 8
  21705011.519    21705017.269   -50538113.975 9  39973031.102 8
  21865557.611    21865563.304  -101258909.734 9 140148341.090 8
  24729737.877    24729743.862   -56884174.355 7 121061445.704 8
 88  3 25  8 17 29.0800000  0  4G 3G13G12G 9
  21742241.230    21742246.617  -103919523.151 8 116106543.164 8
  21712339.848    21712346.298   -50499605.443 9  40003037.751 8
  21880871.566    21880878.343  -101178433.292 8 140211049.983 8
  24753484.000    24753489.432   -56759384.889 7 121158684.216 6
 88  3 25  8 17 59.0800000  0  4G 3G13G12G 9
  21736586.317    21736592.191  -103949240.604 9 116083386.696 9
  21719681.863    21719686.802   -50461024.499 9  40033100.832 8
  21896268.980    21896273.807  -101097523.766 9 140274096.353 8
  24777226.805    24777231.222   -56634619.921 6 121255903.623 7
 88  3 25  8 18 29.0800000  0  4G 3G13G12G 9
  21730955.493    21730961.740  -103978827.756 9 116060331.774 8
  21727037.516    21727041.868   -50422371.242 9  40063220.229 8
  21911747.433    21911752.380  -101016182.888 8 140337478.843 8
  24800961.384    24800968.240   -56509882.142 6 121353101.883 7
 88  3 25  8 18 59.0800000  0  4G 3G13G12G 9
  21725350.294    21725355.829  -104008284.719 9 116037378.296 8
  21734406.998    21734412.222   -50383646.193 9  40093395.588 7
  21927306.282    21927312.242  -100934413.533 8 140401195.215 8
  24824692.989    24824698.541   -56385173.953 7 121450277.075 7
 88  3 25  8 19 29.0800000  0  4G 3G13G12G 9
  21719768.508    21719774.810  -104037614.436 9 116014523.981 9
  21741789.203    21741794.356   -50344851.839 9  40123624.945 9
  21942948.413    21942955.133  -100852221.361 9 140465241.033 8
  24848418.169    24848424.368   -56260501.100 8 121547424.749 8
